[[{"header":{"parameterUnit":"m.s-1","parameterCategory":1,"la1":30.6,"la2":29.2853,"lo1":-89.7004,"lo2":-87.6739,"dy":0.0162,"dx":0.0183,"nx":112,"ny":82,"refTime":"2024-09-04T12:00:00:Z","depth":0,"parameterNumber":2,"parameterNumberName":"U-component_of_WINDS"},"data":[0.0,0.0,0.0,0.0,0.0,0.0,0.0,0.0,0.0,0.0,0.0,0.0,0.0,0.0,0.0,0.0,0.0,0.0,0.0,0.0,0.0,0.0,0.0,0.0,0.0,0.0,0.0,0.0,0.0,0.0,0.0,0.0,0.0,0.0,0.0,0.0,0.0,0.0,0.0,0.0,0.0,0.0,0.0,0.0,0.0,0.0,0.0,0.0,0.0,0.0,0.0,0.0,0.0,0.0,0.0,0.0,0.0,0.0,0.0,0.0,0.0,0.0,0.0,0.0,0.0,0.0,0.0,0.0,0.0,0.0,0.0,0.0,0.0,0.0,0.0,0.0,0.0,0.0,0.0,0.0,0.0,0.0,0.0,0.0,0.0,0.0,0.0,0.0,0.0,0.0,0.0,4.0322,4.0337,4.0263,4.0263,4.0175,3.9457,3.7978,0.0,0.0,0.0,0.0,0.0,0.0,0.0,0.0,0.0,0.0,0.0,0.0,0.0,0.0,0.0,0.0,0.0,0.0,0.0,0.0,0.0,0.0,0.0,0.0,0.0,0.0,0.0,0.0,0.0,0.0,0.0,0.0,0.0,0.0,0.0,0.0,0.0,0.0,0.0,0.0,0.0,0.0,0.0,0.0,0.0,0.0,0.0,0.0,0.0,0.0,0.0,0.0,0.0,0.0,0.0,0.0,0.0,0.0,0.0,0.0,0.0,0.0,0.0,0.0,0.0,0.0,0.0,0.0,0.0,0.0,0.0,0.0,0.0,0.0,0.0,0.0,0.0,0.0,0.0,0.0,0.0,0.0,0.0,0.0,0.0,0.0,0.0,0.0,0.0,0.0,0.0,0.0,0.0,0.0,0.0,0.0,0.0,0.0,0.0,0.0,0.0,0.0,0.0,0.0,3.8676,4.0006,4.015,4.0138,4.0138,4.0125,3.9457,3.7978,0.0,0.0,0.0,0.0,0.0,0.0,0.0,0.0,0.0,0.0,0.0,0.0,0.0,0.0,0.0,0.0,0.0,0.0,0.0,0.0,0.0,0.0,0.0,0.0,0.0,0.0,0.0,0.0,0.0,0.0,0.0,0.0,0.0,0.0,0.0,0.0,0.0,0.0,0.0,0.0,0.0,0.0,0.0,0.0,0.0,0.0,0.0,0.0,0.0,0.0,0.0,0.0,0.0,0.0,0.0,0.0,0.0,0.0,0.0,0.0,0.0,0.0,0.0,0.0,0.0,0.0,0.0,0.0,0.0,0.0,0.0,0.0,0.0,0.0,0.0,0.0,0.0,0.0,0.0,0.0,0.0,0.0,0.0,0.0,0.0,0.0,0.0,0.0,0.0,0.0,0.0,0.0,0.0,0.0,0.0,0.0,0.0,0.0,0.0,0.0,0.0,0.0,0.0,3.8357,3.8943,3.9977,4.0113,4.0113,4.0113,4.0113,3.9457,3.7978,3.6806,0.0,0.0,0.0,0.0,0.0,0.0,0.0,0.0,0.0,0.0,0.0,0.0,0.0,0.0,0.0,0.0,0.0,0.0,0.0,0.0,0.0,0.0,0.0,0.0,0.0,0.0,0.0,0.0,0.0,0.0,0.0,0.0,0.0,0.0,0.0,0.0,0.0,0.0,0.0,0.0,0.0,0.0,0.0,0.0,0.0,0.0,0.0,0.0,0.0,0.0,0.0,0.0,0.0,0.0,0.0,0.0,0.0,0.0,0.0,0.0,0.0,0.0,0.0,0.0,0.0,0.0,0.0,0.0,0.0,0.0,0.0,0.0,0.0,0.0,0.0,0.0,0.0,0.0,0.0,0.0,0.0,0.0,0.0,0.0,0.0,0.0,0.0,0.0,0.0,0.0,0.0,0.0,0.0,0.0,0.0,0.0,0.0,0.0,0.0,0.0,0.0,0.0,3.9051,3.9491,4.0045,4.0113,4.0113,4.0113,3.9762,3.9017,3.7719,3.6017,0.0,0.0,0.0,0.0,0.0,0.0,0.0,0.0,0.0,0.0,0.0,0.0,0.0,0.0,0.0,0.0,0.0,0.0,0.0,0.0,0.0,0.0,0.0,0.0,0.0,0.0,0.0,0.0,0.0,0.0,0.0,0.0,0.0,0.0,0.0,0.0,0.0,0.0,0.0,0.0,0.0,0.0,0.0,0.0,0.0,0.0,0.0,0.0,0.0,0.0,0.0,0.0,0.0,0.0,0.0,0.0,0.0,0.0,0.0,0.0,0.0,0.0,0.0,0.0,0.0,0.0,0.0,0.0,0.0,0.0,0.0,0.0,0.0,0.0,0.0,0.0,0.0,0.0,0.0,0.0,0.0,0.0,0.0,0.0,0.0,0.0,0.0,0.0,0.0,0.0,0.0,0.0,0.0,0.0,0.0,0.0,0.0,0.0,0.0,0.0,0.0,0.0,3.9186,4.0045,4.0079,4.0113,4.0113,4.0113,3.8848,3.7719,3.6931,3.4776,0.0,0.0,0.0,0.0,0.0,0.0,0.0,0.0,0.0,0.0,0.0,0.0,0.0,0.0,0.0,0.0,0.0,0.0,0.0,0.0,0.0,0.0,0.0,0.0,0.0,0.0,0.0,0.0,0.0,0.0,0.0,0.0,0.0,0.0,0.0,0.0,0.0,0.0,0.0,0.0,0.0,0.0,0.0,0.0,0.0,0.0,0.0,0.0,0.0,0.0,0.0,0.0,0.0,0.0,0.0,0.0,0.0,0.0,0.0,0.0,0.0,0.0,0.0,0.0,0.0,0.0,0.0,0.0,0.0,0.0,0.0,0.0,0.0,0.0,0.0,0.0,0.0,0.0,0.0,0.0,0.0,0.0,0.0,0.0,0.0,0.0,0.0,0.0,0.0,0.0,0.0,0.0,0.0,0.0,0.0,0.0,0.0,0.0,0.0,0.0,0.0,0.0,3.878,3.9592,0.0,4.0113,4.0113,4.0113,3.9592,3.8543,3.6897,0.0,0.0,0.0,0.0,0.0,0.0,0.0,0.0,0.0,0.0,0.0,0.0,0.0,0.0,0.0,0.0,0.0,0.0,0.0,0.0,0.0,0.0,0.0,0.0,0.0,0.0,0.0,0.0,0.0,0.0,0.0,0.0,0.0,0.0,0.0,0.0,0.0,0.0,0.0,0.0,0.0,0.0,0.0,0.0,0.0,0.0,0.0,0.0,0.0,0.0,0.0,0.0,0.0,0.0,0.0,0.0,0.0,0.0,0.0,0.0,0.0,0.0,0.0,0.0,0.0,0.0,0.0,0.0,0.0,0.0,0.0,0.0,0.0,0.0,0.0,0.0,0.0,0.0,0.0,0.0,0.0,0.0,0.0,0.0,0.0,0.0,0.0,0.0,0.0,0.0,0.0,0.0,0.0,0.0,0.0,0.0,0.0,0.0,0.0,0.0,0.0,0.0,3.7686,3.8937,3.9795,0.0,4.0113,4.0113,4.0113,3.966,3.8543,3.6547,0.0,0.0,0.0,0.0,0.0,0.0,0.0,0.0,0.0,0.0,0.0,0.0,0.0,0.0,0.0,0.0,0.0,0.0,0.0,0.0,0.0,0.0,0.0,0.0,0.0,0.0,0.0,0.0,0.0,0.0,0.0,0.0,0.0,0.0,0.0,0.0,0.0,0.0,0.0,0.0,0.0,0.0,0.0,0.0,0.0,0.0,0.0,0.0,0.0,0.0,0.0,0.0,0.0,0.0,0.0,0.0,0.0,0.0,0.0,0.0,0.0,0.0,0.0,0.0,0.0,0.0,0.0,0.0,0.0,0.0,0.0,0.0,0.0,0.0,0.0,0.0,0.0,0.0,0.0,0.0,0.0,0.0,0.0,0.0,0.0,0.0,0.0,0.0,0.0,0.0,0.0,0.0,0.0,0.0,0.0,0.0,0.0,0.0,0.0,0.0,0.0,0.0,3.7809,3.9851,4.0933,4.0168,4.01,4.0113,4.0113,3.8768,3.7268,0.0,0.0,0.0,0.0,0.0,0.0,0.0,0.0,0.0,0.0,0.0,0.0,0.0,0.0,0.0,0.0,0.0,0.0,0.0,0.0,0.0,0.0,0.0,0.0,0.0,0.0,0.0,0.0,0.0,0.0,0.0,0.0,0.0,0.0,0.0,0.0,0.0,0.0,0.0,0.0,0.0,0.0,0.0,0.0,0.0,0.0,0.0,0.0,0.0,0.0,0.0,0.0,0.0,0.0,0.0,0.0,0.0,0.0,0.0,0.0,0.0,0.0,0.0,0.0,0.0,0.0,0.0,0.0,0.0,0.0,0.0,0.0,0.0,0.0,0.0,0.0,0.0,0.0,0.0,0.0,0.0,0.0,0.0,0.0,0.0,0.0,0.0,0.0,0.0,0.0,0.0,0.0,0.0,0.0,0.0,0.0,0.0,0.0,0.0,0.0,0.0,0.0,0.0,3.8497,4.0155,4.1136,4.0899,4.0349,3.9948,3.9948,3.9467,3.8094,3.5563,0.0,0.0,0.0,0.0,0.0,0.0,0.0,0.0,0.0,0.0,0.0,0.0,0.0,0.0,0.0,0.0,0.0,0.0,0.0,0.0,0.0,0.0,0.0,0.0,0.0,0.0,0.0,0.0,0.0,0.0,0.0,0.0,0.0,0.0,0.0,0.0,0.0,0.0,0.0,0.0,0.0,0.0,0.0,0.0,0.0,0.0,0.0,0.0,0.0,0.0,0.0,0.0,0.0,0.0,0.0,0.0,0.0,0.0,0.0,0.0,0.0,0.0,0.0,0.0,0.0,0.0,0.0,0.0,0.0,0.0,0.0,0.0,0.0,0.0,0.0,0.0,0.0,0.0,0.0,0.0,0.0,0.0,0.0,0.0,0.0,0.0,0.0,0.0,0.0,0.0,0.0,0.0,0.0,0.0,0.0,0.0,0.0,0.0,0.0,0.0,0.0,0.0,3.8762,4.0433,4.1384,4.1159,4.0334,3.9807,3.9807,3.9742,3.8552,3.5927,0.0,0.0,0.0,0.0,0.0,0.0,0.0,0.0,0.0,0.0,0.0,0.0,0.0,0.0,0.0,0.0,0.0,0.0,0.0,0.0,0.0,0.0,0.0,0.0,0.0,0.0,0.0,0.0,0.0,0.0,0.0,0.0,0.0,0.0,0.0,0.0,0.0,0.0,0.0,0.0,0.0,0.0,0.0,0.0,0.0,0.0,0.0,0.0,0.0,0.0,0.0,0.0,0.0,0.0,0.0,0.0,0.0,0.0,0.0,0.0,0.0,0.0,0.0,0.0,0.0,0.0,0.0,0.0,0.0,0.0,0.0,0.0,0.0,0.0,0.0,0.0,0.0,0.0,0.0,0.0,0.0,0.0,0.0,0.0,0.0,0.0,0.0,0.0,0.0,0.0,0.0,0.0,0.0,0.0,0.0,0.0,0.0,0.0,0.0,0.0,0.0,0.0,3.8761,4.0661,4.1707,4.115,4.0238,3.9677,3.9677,3.9677,3.8748,3.6616,0.0,0.0,0.0,0.0,0.0,0.0,0.0,0.0,0.0,0.0,0.0,0.0,0.0,0.0,0.0,0.0,0.0,0.0,0.0,0.0,0.0,0.0,0.0,0.0,0.0,0.0,0.0,0.0,0.0,0.0,0.0,0.0,0.0,0.0,0.0,0.0,0.0,0.0,0.0,0.0,0.0,0.0,0.0,0.0,0.0,0.0,0.0,0.0,0.0,0.0,0.0,0.0,0.0,0.0,0.0,0.0,0.0,0.0,0.0,0.0,3.8176,0.0,0.0,0.0,0.0,0.0,0.0,0.0,0.0,0.0,0.0,0.0,0.0,0.0,0.0,0.0,0.0,0.0,0.0,0.0,0.0,0.0,0.0,0.0,0.0,0.0,0.0,0.0,0.0,0.0,0.0,0.0,0.0,0.0,0.0,0.0,0.0,0.0,0.0,0.0,0.0,0.0,3.9407,4.091,4.1854,4.1727,4.0401,3.9554,3.9554,3.9461,3.8698,3.7045,3.6248,0.0,0.0,0.0,0.0,0.0,0.0,0.0,0.0,0.0,0.0,0.0,0.0,0.0,0.0,0.0,0.0,0.0,0.0,0.0,0.0,0.0,0.0,0.0,0.0,0.0,0.0,0.0,0.0,0.0,0.0,0.0,0.0,0.0,0.0,0.0,0.0,0.0,0.0,0.0,0.0,0.0,0.0,0.0,0.0,0.0,0.0,0.0,0.0,0.0,0.0,0.0,0.0,0.0,0.0,0.0,0.0,0.0,0.0,0.0,0.0,3.9121,0.0,0.0,0.0,0.0,0.0,0.0,0.0,0.0,0.0,0.0,0.0,0.0,0.0,0.0,0.0,0.0,0.0,0.0,0.0,0.0,0.0,0.0,0.0,0.0,0.0,0.0,0.0,0.0,0.0,0.0,0.0,0.0,0.0,0.0,0.0,0.0,0.0,0.0,0.0,0.0,3.9499,4.0821,4.1694,4.1777,4.0367,3.9408,3.9408,3.9355,3.8805,3.7685,3.6924,0.0,0.0,0.0,0.0,0.0,0.0,0.0,0.0,0.0,0.0,0.0,0.0,0.0,0.0,0.0,0.0,0.0,0.0,0.0,0.0,0.0,0.0,0.0,0.0,0.0,0.0,0.0,0.0,0.0,0.0,0.0,0.0,0.0,0.0,0.0,0.0,0.0,0.0,0.0,0.0,0.0,0.0,0.0,0.0,0.0,0.0,0.0,0.0,0.0,0.0,0.0,0.0,0.0,4.1563,4.2193,4.318,4.2436,4.2315,4.265,4.1366,4.1017,4.1247,4.0831,0.0,0.0,0.0,0.0,0.0,0.0,0.0,0.0,0.0,0.0,0.0,0.0,0.0,0.0,0.0,0.0,0.0,0.0,0.0,0.0,0.0,0.0,0.0,0.0,4.2583,4.3005,0.0,0.0,0.0,0.0,0.0,0.0,0.0,0.0,0.0,0.0,0.0,0.0,3.9422,4.0594,4.1451,4.1624,4.0245,3.9315,3.9315,3.9315,3.9037,3.8414,3.7595,3.6851,0.0,0.0,0.0,0.0,0.0,0.0,0.0,0.0,0.0,0.0,0.0,0.0,0.0,0.0,0.0,0.0,0.0,0.0,0.0,0.0,0.0,0.0,0.0,0.0,0.0,0.0,0.0,0.0,0.0,0.0,0.0,0.0,3.8538,3.8734,0.0,0.0,0.0,0.0,0.0,0.0,0.0,0.0,0.0,0.0,0.0,0.0,0.0,4.1656,4.2158,4.2839,4.3205,4.3253,4.3835,4.4223,4.4365,4.427,4.4249,4.4252,4.3534,0.0,4.1334,4.1822,0.0,0.0,0.0,0.0,0.0,0.0,0.0,0.0,0.0,0.0,0.0,0.0,0.0,0.0,0.0,0.0,0.0,0.0,0.0,0.0,0.0,0.0,4.3184,4.3074,4.3165,4.3113,0.0,4.1146,4.0147,3.9834,3.933,0.0,0.0,0.0,0.0,0.0,0.0,0.0,3.9461,4.0583,4.1409,4.1423,4.0177,3.9315,3.9315,3.9315,3.9249,3.9149,3.7916,3.7148,3.7051,3.5235,0.0,0.0,0.0,0.0,0.0,0.0,0.0,0.0,0.0,0.0,0.0,0.0,0.0,0.0,0.0,0.0,0.0,0.0,0.0,0.0,0.0,0.0,0.0,0.0,0.0,0.0,0.0,0.0,0.0,3.8684,4.0011,3.9936,4.0653,4.0573,0.0,0.0,0.0,0.0,0.0,0.0,0.0,0.0,0.0,4.1823,4.1735,4.2,4.2648,4.2963,4.3225,4.3433,4.4099,4.4619,4.5001,4.5222,4.5258,4.5114,4.4368,4.351,4.2599,4.2253,4.2061,4.1869,0.0,0.0,0.0,0.0,4.1504,4.1104,4.2089,4.22,0.0,4.11,0.0,0.0,0.0,0.0,0.0,0.0,0.0,0.0,0.0,0.0,4.288,4.322,4.329,4.325,4.297,4.2391,4.1613,0.0,4.0401,3.9759,3.7699,0.0,0.0,0.0,0.0,3.9681,3.9378,3.9893,4.0281,4.0281,3.9339,3.859,3.8254,3.8535,3.8576,3.8254,3.7666,3.7302,3.7302,3.6034,3.4986,0.0,0.0,0.0,0.0,0.0,0.0,0.0,0.0,0.0,0.0,0.0,0.0,0.0,0.0,0.0,0.0,0.0,0.0,0.0,0.0,0.0,0.0,0.0,0.0,0.0,0.0,0.0,0.0,4.0092,4.1224,4.1136,4.2302,4.241,0.0,0.0,0.0,0.0,0.0,0.0,4.2761,4.2664,4.2811,4.3248,4.2955,4.3005,4.3524,4.3348,4.3391,4.3698,4.4041,4.4471,4.4989,4.5258,4.5339,4.5147,4.4331,4.3926,4.3755,4.2652,4.2287,4.2434,4.1995,4.1805,4.1865,4.2432,4.2331,4.2013,4.298,4.301,4.2541,4.2062,0.0,4.0487,3.9667,0.0,0.0,0.0,0.0,4.1194,4.2331,4.2631,4.275,4.319,4.329,4.329,4.329,4.327,4.2772,0.0,4.1313,4.0715,3.7734,0.0,0.0,0.0,0.0,3.9534,3.9375,3.9519,3.9582,3.9408,3.8771,3.8057,3.7459,3.7807,3.7879,3.7413,3.7252,3.713,3.713,3.6406,3.5674,3.4957,0.0,0.0,0.0,0.0,0.0,0.0,0.0,0.0,0.0,0.0,0.0,0.0,0.0,0.0,0.0,0.0,0.0,0.0,0.0,0.0,0.0,0.0,0.0,0.0,0.0,0.0,0.0,0.0,0.0,4.2046,4.334,0.0,0.0,0.0,0.0,4.2489,4.3128,4.3428,4.3278,4.4368,4.4953,4.4778,4.5388,4.5707,4.5737,4.5097,4.4807,4.4814,4.4262,4.403,4.4059,4.4088,4.4088,4.4051,4.3362,4.3518,4.419,4.3107,4.267,4.269,4.2861,4.2912,4.2951,4.317,4.323,4.32,4.326,4.326,4.325,4.322,4.2372,4.1463,4.2021,4.1313,0.0,0.0,4.2291,4.247,4.31,4.325,4.326,4.329,4.329,4.329,4.329,4.315,4.2872,0.0,4.2321,4.1673,3.9601,0.0,3.9598,3.7601,3.904,4.0129,3.9551,3.9982,4.0103,3.9471,3.8792,3.8112,3.7447,3.7413,3.7428,3.7383,3.6799,3.643,3.643,3.5673,3.4923,3.4252,3.3857,0.0,0.0,0.0,0.0,0.0,0.0,0.0,0.0,0.0,0.0,0.0,0.0,0.0,0.0,0.0,0.0,0.0,0.0,0.0,0.0,0.0,0.0,0.0,0.0,0.0,0.0,0.0,0.0,4.2636,4.3542,0.0,4.2835,4.3219,4.3669,4.4048,4.4282,4.4581,4.4931,4.4989,4.4967,4.4901,4.4756,4.4676,4.4676,4.4008,4.366,4.366,4.3478,4.3362,4.3369,4.3805,4.3979,4.395,4.3282,4.3201,4.338,4.2619,4.2943,4.3897,4.3567,4.3542,4.3634,4.3725,4.3548,4.329,4.329,4.329,4.327,4.315,4.2704,4.2278,4.2515,4.2278,4.1962,4.2456,4.2574,4.2634,4.2851,4.291,4.291,4.291,4.291,4.291,4.291,4.287,4.2741,4.2614,4.2574,4.1981,4.0006,4.023,3.9976,3.7967,3.8747,3.9485,3.9269,3.9174,3.8866,3.8177,3.7895,3.7342,3.6257,3.6523,3.6585,3.6196,3.5957,3.5814,3.5814,3.5411,3.5044,3.4663,3.4022,3.2895,0.0,0.0,0.0,0.0,0.0,0.0,0.0,0.0,0.0,0.0,0.0,0.0,0.0,0.0,0.0,0.0,0.0,0.0,0.0,0.0,0.0,0.0,0.0,0.0,0.0,0.0,4.2906,4.2984,4.395,4.4356,4.371,4.4262,4.4814,4.522,4.5249,4.5453,4.5888,4.5482,4.5249,4.5249,4.4872,4.464,4.464,4.3776,4.3362,4.3311,4.2905,4.2702,4.2702,4.3158,4.334,4.3311,4.2876,4.2789,4.2934,4.2353,4.3007,4.4342,4.3759,4.3649,4.3794,4.3876,4.3564,4.309,4.309,4.309,4.307,4.295,4.2809,4.2688,4.2688,4.2688,4.2688,4.2688,4.2688,4.2688,4.2688,4.2688,4.2688,4.2688,4.2688,4.2688,4.2688,4.2648,4.2587,4.2587,4.2648,4.2216,4.0694,4.0644,4.0279,3.8811,3.8825,3.9017,3.9071,3.8811,3.8393,3.7719,3.7701,3.729,3.6241,3.6316,3.635,3.6134,3.5759,3.5576,3.5736,3.5347,3.5001,3.4835,3.4242,3.3376,3.2205,0.0,0.0,0.0,0.0,0.0,0.0,0.0,0.0,0.0,0.0,0.0,0.0,0.0,0.0,0.0,0.0,0.0,0.0,0.0,0.0,0.0,0.0,0.0,4.1076,4.2789,4.3747,4.3158,4.4734,4.5627,4.4988,4.554,4.5917,4.5917,4.5917,4.5917,4.5917,4.5917,4.5917,4.5917,4.5917,4.5917,4.5917,4.4698,4.4059,4.4008,4.2731,4.2121,4.2121,4.2121,4.2092,4.2092,4.2092,4.2411,4.2926,4.2324,4.2847,4.3913,4.3494,4.3316,4.3336,4.3616,4.3307,4.2688,4.2688,4.2688,4.2688,4.2688,4.2688,4.2688,4.2688,4.2688,4.2688,4.2688,4.2688,4.2688,4.2688,4.2688,4.2688,4.2688,4.2688,4.2688,4.2688,4.2535,4.2392,4.2392,4.2555,4.2462,4.1794,4.1165,4.0613,4.0143,3.935,0.0,3.9053,3.9071,3.8834,3.8163,3.8269,3.8123,3.7447,3.6849,3.6776,3.7345,3.6221,3.575,3.6195,3.5414,3.4907,3.4769,3.4566,3.4162,3.3624,0.0,0.0,0.0,0.0,0.0,0.0,0.0,0.0,0.0,0.0,0.0,0.0,0.0,0.0,0.0,0.0,0.0,0.0,0.0,0.0,0.0,4.1366,4.2266,4.244,4.2934,4.3739,4.4959,4.5162,4.5308,4.5598,4.5801,4.5917,4.5917,4.5917,4.5917,4.5917,4.5917,4.5917,4.5917,4.633,4.6359,4.5917,4.5569,4.5133,4.464,4.3362,4.2731,4.2731,4.2295,4.2092,4.2092,4.2092,4.2179,4.2324,4.2179,4.2557,4.3304,4.3666,4.3598,4.3374,4.3947,4.3516,4.2688,4.2688,4.2587,4.2494,4.2494,4.2372,4.2248,4.2248,4.2248,4.2248,4.2248,4.2248,4.2248,4.2248,4.2248,4.2248,4.2248,4.2248,4.2248,4.2248,4.2236,4.2195,4.2195,4.2236,4.2044,4.1403,4.0732,4.011,3.9507,3.8959,0.0,3.8649,3.8778,3.8623,3.7937,3.8056,3.7895,3.7253,3.7015,3.6875,3.6776,3.6565,3.6356,3.6208,3.6575,3.6722,3.659,3.5864,3.4948,0.0,0.0,0.0,0.0,0.0,0.0,0.0,0.0,0.0,0.0,0.0,0.0,0.0,0.0,0.0,0.0,0.0,0.0,0.0,0.0,0.0,0.0,4.2353,4.3195,4.3739,4.4059,4.4552,4.5395,4.5395,4.5482,4.5837,4.5917,4.5917,4.5917,4.5917,4.5917,4.5917,4.5917,4.5917,4.5917,4.6243,4.6243,4.5917,4.5627,4.5308,4.4901,4.4146,4.3681,4.342,4.3311,4.3158,4.2876,4.2586,4.2644,4.2847,4.2324,4.244,0.0,0.0,0.0,0.0,0.0,4.2973,4.2453,4.2453,4.2372,4.2248,4.2248,4.2195,4.2092,4.2092,4.2092,4.2092,4.2092,4.2092,4.2092,4.2092,4.2092,4.2092,4.2092,4.2092,4.2092,4.2092,4.2092,4.2092,4.2092,4.2092,0.0,4.1599,4.096,4.0312,3.9799,3.9178,3.871,3.8541,3.8594,3.8521,3.8121,3.8273,3.8251,3.7849,3.7535,0.0,0.0,0.0,3.7199,3.7181,3.7583,0.0,0.0,0.0,0.0,0.0,0.0,0.0,0.0,3.2376,3.2203,0.0,0.0,0.0,0.0,0.0,0.0,0.0,0.0,0.0,0.0,0.0,0.0,0.0,0.0,0.0,0.0,4.2818,4.3652,4.4843,4.554,4.5685,4.5082,4.554,4.5917,4.5917,4.5917,4.5917,4.5917,4.5917,4.5917,4.5917,0.0,0.0,0.0,0.0,4.5953,4.5917,4.5372,4.5082,4.5017,4.4959,4.464,4.4124,4.4669,4.461,4.4066,4.3456,4.3544,4.4008,4.2789,4.2586,4.2992,4.2926,4.2934,4.2934,4.2324,4.2092,4.2092,4.2092,0.0,0.0,4.2092,4.2092,4.2092,4.2092,4.2092,4.2092,4.2092,4.2092,4.2092,4.2092,4.2092,4.2092,4.2092,4.2092,4.2092,4.2092,4.2092,4.2092,4.2092,4.2092,4.2092,4.2092,4.1541,4.0962,4.0558,3.977,3.9043,3.8631,3.8504,3.8474,3.8474,0.0,0.0,3.8778,3.8289,3.823,3.8767,3.83,3.8231,3.8785,3.8616,3.8774,3.9237,3.8131,3.75,3.7325,3.6194,3.5339,3.4751,3.2418,3.2059,0.0,0.0,0.0,0.0,0.0,0.0,0.0,0.0,0.0,0.0,0.0,0.0,0.0,0.0,0.0,4.3398,4.4146,4.4814,4.5598,4.583,4.5859,4.5743,4.583,4.5917,4.5917,4.5917,4.5917,4.5917,4.5917,4.5917,4.5917,4.5917,4.5917,4.5917,4.6388,4.6388,4.5917,4.625,4.6214,4.5714,0.0,0.0,4.4727,4.4843,4.4843,4.4727,4.461,4.461,4.4669,4.3921,4.3369,4.2934,4.244,4.2557,4.2934,4.2324,4.2092,4.2092,4.2092,4.2092,4.2092,4.2092,4.2092,4.2092,4.2092,4.2092,0.0,4.2092,4.2092,4.2092,4.2092,4.2092,4.2092,4.2092,4.2092,4.2092,4.2092,4.2092,4.2092,4.2092,4.2092,4.2092,4.2092,4.1541,4.1067,4.0991,3.9964,3.9179,3.9102,3.8607,3.8258,3.8258,3.8427,3.8557,3.8557,3.8937,3.9071,3.8819,3.9023,3.9614,4.0555,4.0573,4.0242,3.9615,3.8898,3.7807,3.6367,3.5626,3.5138,3.4799,3.427,3.3983,0.0,0.0,0.0,0.0,0.0,0.0,0.0,0.0,0.0,0.0,0.0,4.0728,4.1047,0.0,4.3063,4.4226,4.4529,4.4873,4.5756,4.5917,4.5917,4.5917,4.5917,4.5917,4.5917,4.5917,4.6011,4.633,4.6359,4.6505,4.6847,4.6847,4.6847,4.6847,4.7143,4.7172,4.6847,4.7143,4.6998,4.6359,4.633,4.6034,4.5424,4.5721,4.5692,4.5395,4.5395,4.5576,4.5808,4.5198,4.4356,4.3456,4.3166,4.2847,4.2498,4.2208,4.2092,4.2092,4.2092,4.2092,4.2092,4.2092,4.2092,4.2092,4.2092,4.2092,4.2092,4.2092,4.2092,4.2092,4.2092,4.2092,4.2092,4.2092,4.2092,4.2092,4.2092,4.2092,4.2092,4.2092,4.2092,4.2092,4.2092,4.1831,4.1482,4.1163,4.0554,3.9915,3.9276,3.916,3.8899,3.826,3.8859,3.9178,3.8876,3.943,3.9848,3.9925,4.0169,4.0682,4.1541,4.1599,4.1159,4.0154,3.913,3.79,3.655,3.5495,3.492,3.4799,3.4799,3.4506,0.0,0.0,0.0,0.0,0.0,0.0,0.0,3.9952,4.0059,4.0487,4.1509,4.2302,4.2189,4.2948,4.3856,4.4796,4.4905,4.5205,4.614,4.6266,4.6266,4.6266,4.6156,4.6069,4.6069,4.6185,4.6475,4.6946,4.7004,4.723,4.7776,4.7805,4.7805,4.7805,4.7805,4.7805,4.7805,4.7805,4.7521,4.7004,4.7521,4.7253,4.6295,4.6766,4.6737,4.6266,4.6266,4.6475,4.6772,4.6272,4.5401,4.4378,4.4233,4.3456,4.244,4.2324,4.2266,4.2266,4.215,4.2092,4.2092,4.2092,4.2092,4.2092,4.2092,4.2092,4.2092,4.2092,4.2092,4.2092,4.2092,4.2092,4.2092,4.2092,4.2092,4.2092,4.2092,4.2092,4.2092,4.2092,4.2092,4.2092,4.2092,4.2092,4.1918,4.1366,4.1192,4.0728,3.9712,3.9886,3.9712,3.8667,3.9479,3.9944,3.9596,4.0002,4.0583,4.125,4.1279,4.1541,4.2063,4.1897,4.1318,4.0253,3.884,3.7648,3.6658,3.5403,3.4799,3.4799,3.4677,3.436,4.0274,4.0022,4.0176,4.1366,4.1279,4.1215,0.0,4.2674,4.2499,4.2288,4.2675,4.2943,4.2517,4.3783,4.4938,4.5041,4.6385,4.7445,4.755,4.7602,4.7602,4.7602,4.7056,4.6714,4.6714,4.723,4.7631,4.7666,4.7689,4.7718,4.7805,4.7805,4.7805,4.7805,4.7805,4.7805,4.7805,4.7805,4.7776,4.7689,4.7776,4.7718,4.7602,4.766,4.766,4.7602,4.7602,4.7288,4.6801,4.6743,4.6301,4.5627,4.5046,4.4356,4.3739,4.3108,4.2905,4.2818,4.2295,4.2092,4.2092,4.2092,4.2092,4.2092,4.2092,4.2092,4.2092,4.2092,4.2092,4.2092,4.2092,4.2092,4.2092,4.2092,4.2092,4.2092,4.2092,4.2092,4.2092,4.2092,4.2092,4.2092,4.2092,4.2092,4.2063,4.2005,4.1482,4.1047,4.0902,4.0437,4.0031,3.9886,4.0002,4.0321,4.0844,4.0931,4.1279,4.1947,4.1976,4.2005,4.2092,4.1254,4.0189,3.9023,3.7812,3.6588,3.5404,3.4993,3.4799,3.4775,3.431,3.3793,4.1134,4.1802,4.2349,4.2249,4.256,4.289,4.2808,4.2739,4.2669,4.2531,4.3182,4.3639,4.3121,4.4227,4.5331,0.0,4.6348,4.7091,4.7711,4.7805,4.7805,4.7805,4.8217,4.8339,4.7932,4.8135,4.8653,4.9432,4.949,4.9664,4.9988,5.0017,5.0017,5.0017,4.9669,4.949,4.949,4.9112,4.8706,4.8333,4.8333,4.813,4.7805,4.7805,4.7805,4.7805,4.7805,4.766,4.7404,4.7758,4.755,4.6934,4.6272,4.5843,4.5437,4.4095,4.3573,4.3485,4.2847,4.2615,4.2557,4.2208,4.2092,4.2092,4.2092,4.2092,4.2092,4.2092,4.2092,4.2092,4.2092,4.2092,4.2092,4.2092,4.2092,4.2092,4.2092,4.2092,4.2092,4.2092,4.2092,4.2092,4.2092,4.2092,4.2092,4.2092,4.186,4.1541,4.1163,4.1192,4.125,4.125,4.0902,4.096,4.1628,4.1686,4.1802,4.2063,4.2092,4.1835,4.1254,4.071,3.9667,3.8017,3.7191,3.6235,3.5211,3.492,3.4799,3.4799,3.458,3.4015,4.1687,4.2686,4.3301,4.2366,4.3054,4.367,4.2494,4.2635,4.2821,4.2076,4.3036,4.3809,4.3068,4.4399,4.5677,4.5888,4.6627,4.7417,4.8024,4.8233,4.8386,4.8589,4.9407,4.9847,4.9528,4.9499,4.9876,5.0859,5.0971,5.1149,5.1559,5.1588,5.1588,5.1588,5.1178,5.0971,5.0971,5.0477,4.9901,4.9238,4.9238,4.8914,4.8328,4.813,4.7956,4.7805,4.7956,4.795,4.7863,4.8653,4.8508,4.7776,4.7439,4.7236,4.6888,4.5343,4.456,4.4175,4.3485,4.3282,4.3166,4.2557,4.2353,4.2324,4.215,4.2208,4.2353,4.2353,4.2469,4.2615,4.2615,4.2615,4.2586,4.2382,4.2353,4.2295,4.2121,4.2092,4.2092,4.2092,4.2092,4.2092,4.2092,4.2092,4.2092,4.2092,4.2092,4.1918,4.1424,4.1802,4.2092,4.2092,4.1657,4.157,4.2063,4.2092,4.2092,4.2092,4.1835,4.136,4.0646,3.9885,3.8805,3.7309,3.6588,3.5833,3.509,3.4896,3.4799,3.4775,3.4506,3.3941,4.1543,4.1903,4.2231,4.1724,4.2542,4.3069,4.1825,4.2976,4.3606,4.1017,4.213,4.3252,4.1965,4.4284,4.6175,4.5619,4.7891,4.9512,4.8963,4.9293,4.9896,5.0535,5.0651,5.0888,0.0,5.1501,5.153,5.1559,5.1559,5.1559,5.1588,5.1588,5.1588,5.1588,5.1559,5.1559,5.1559,5.153,5.1236,5.0651,5.0651,5.0303,4.9606,4.8972,4.8362,4.7834,4.842,4.8333,4.7892,4.9141,4.8938,4.7863,4.8426,4.8275,4.7666,4.6975,4.593,4.4785,4.4182,4.395,4.3884,4.3195,4.2963,4.2847,4.2266,4.2498,4.2963,4.2963,4.3427,4.3921,4.3921,4.3921,4.3776,4.3129,4.2963,4.2789,4.2237,4.2092,4.2092,4.2092,4.2092,4.2092,4.2092,4.2092,4.2092,4.2092,4.2092,4.2092,4.2063,4.2092,4.2092,4.2092,4.2063,4.2063,4.2092,4.2092,4.2092,4.2092,4.1191,4.0646,4.0603,3.8604,3.7332,3.7031,3.5858,3.509,3.4799,3.4799,3.4799,3.4775,3.3744,3.3222,4.1078,4.1287,4.1522,4.1051,4.1437,4.1743,4.0957,4.1261,4.1413,4.0178,4.0767,4.1148,4.0054,4.233,4.4355,4.4192,4.6733,4.8923,4.9433,5.0376,5.1091,5.1273,5.2049,0.0,0.0,0.0,0.0,5.2249,5.2252,5.263,5.35,5.3097,5.3039,5.3503,5.2688,5.2252,5.2252,5.1817,5.1501,5.1294,5.0913,5.0564,5.0332,4.9233,4.86,4.842,4.86,4.8571,4.8478,4.9345,4.9461,4.9054,4.8774,4.8571,4.8333,4.7695,4.6911,4.6011,4.4966,4.461,4.4472,4.3863,4.366,4.3652,4.3398,4.3485,4.366,4.366,4.3826,4.3979,4.3979,4.3979,4.3921,4.3718,4.366,4.3602,4.3398,4.2992,4.2702,4.2702,4.2353,4.2092,4.2092,4.2092,4.2092,4.2092,4.2092,4.2092,4.2092,4.2092,4.2092,4.2092,4.2092,4.2092,4.2092,4.2092,4.2092,4.2092,4.117,4.0324,3.9716,3.8039,3.6798,3.6072,3.5331,3.4896,3.4799,3.4799,3.4799,3.4775,3.4065,3.3545,4.0164,4.0331,4.0509,4.0068,4.0456,4.0743,4.0109,4.0058,3.9904,3.8969,3.9365,3.9647,3.8997,4.1388,4.3438,4.3414,4.6437,4.9006,4.9593,5.1036,5.2183,5.2578,5.3358,5.3617,0.0,0.0,0.0,5.2891,5.2917,5.3384,5.4432,5.4084,5.4025,5.449,5.3704,5.3152,5.2917,5.2484,5.2169,5.1962,5.1323,5.1004,5.0975,5.0133,4.9731,4.9731,4.9524,4.9407,4.9436,4.9635,4.9693,4.964,4.9233,4.9059,4.9001,4.8362,4.7869,4.7294,4.604,4.543,4.5162,4.4552,4.4298,4.4269,4.4066,4.4146,4.4298,4.4298,4.4472,4.4581,4.4199,4.411,4.3964,4.3351,4.3205,4.3237,4.3391,4.3084,4.2905,4.3276,4.2847,4.2411,4.2411,4.2237,4.1856,4.1177,4.1668,4.2092,4.2092,4.2092,4.2092,4.2092,4.2092,4.1968,4.1598,4.1556,4.143,4.1064,4.013,3.9299,3.8585,3.7217,3.6167,3.5476,3.5017,3.4799,3.4799,3.4991,3.5087,3.5063,3.4347,3.3823,3.898,3.9051,3.923,3.8848,3.952,4.0084,3.9287,3.9348,3.9095,3.7444,3.7991,3.8698,3.86,4.1276,4.3411,4.3152,4.6906,4.9839,4.9638,5.1396,5.3181,0.0,0.0,0.0,0.0,0.0,0.0,5.359,0.0,5.3793,5.449,5.4575,5.4575,5.4575,5.4575,5.4226,5.3559,5.3503,5.321,5.2626,5.1962,5.1646,5.1646,5.1617,5.1588,5.1559,5.0975,5.0739,5.0681,5.0013,4.9756,4.9731,4.9698,4.9693,4.9635,4.9001,4.8692,4.847,4.723,4.6384,4.5792,4.5198,4.4944,4.4755,4.4204,4.4407,4.4871,4.4826,4.5238,4.5526,4.4475,4.4266,4.3887,4.2222,4.1873,4.202,4.2344,4.2385,4.2676,4.3682,4.3379,4.2958,4.2958,4.2494,4.1453,3.953,4.0795,4.1976,4.1968,4.1989,4.203,4.203,4.1989,4.1577,4.0689,4.056,4.0152,3.9277,3.8319,3.7684,3.7453,3.6264,3.5477,3.5235,3.4993,3.4847,3.4799,3.5376,3.5616,3.5567,3.4513,3.4004,3.8321,3.8066,3.8065,3.8342,3.8506,3.8458,3.7834,3.7769,3.7503,3.6246,3.623,3.6309,3.5893,3.9221,4.2009,4.1931,4.6461,0.0,5.1095,5.2869,0.0,5.5072,0.0,5.5649,5.4981,5.4923,0.0,0.0,5.4052,5.3967,5.5126,5.5184,5.5184,5.5184,5.5184,5.4894,5.4229,5.3762,5.3442,5.3268,5.263,5.2365,5.2336,5.1846,5.1588,5.1588,5.1439,5.1381,5.1323,5.071,5.0448,5.0419,4.9896,4.9693,4.9664,4.9519,4.8632,4.7461,4.7125,4.6328,4.5562,4.6137,4.5482,4.4429,4.4287,4.4344,4.4296,4.3546,4.3472,4.3535,4.3249,4.3748,4.3999,4.2815,4.3121,4.3495,4.2834,4.2309,4.205,4.2306,4.2474,4.2549,4.2549,4.243,4.1757,4.0055,4.022,4.0393,3.9996,4.0567,4.0972,4.0972,4.0374,4.0108,4.056,3.9978,3.9453,3.9232,3.8134,3.7655,3.7976,3.6646,3.5868,3.5794,3.5934,3.5592,3.4799,3.5761,3.6002,3.5567,3.4513,3.4004,3.7442,3.722,3.7166,3.7703,3.7733,3.7591,3.7252,3.6843,3.6338,3.5712,3.54,3.5258,3.5308,3.8718,4.1544,4.1723,4.6248,5.0186,5.1429,5.3163,5.4686,0.0,5.6411,0.0,5.591,5.5852,5.5852,0.0,5.4896,5.4778,5.5794,5.5852,5.5852,5.5852,5.5852,5.5416,5.449,5.4139,5.3764,5.3474,5.3152,5.2978,5.2978,5.2601,5.243,5.2401,0.0,5.2194,5.2343,5.1468,5.129,5.1465,5.0797,5.0365,5.0129,5.0129,4.9326,4.8235,4.8235,4.6993,4.5483,4.5941,4.5772,4.5267,4.4513,4.4312,4.4102,4.3081,4.2792,4.2695,4.2233,4.2498,4.2692,4.1667,4.1864,4.2257,4.2135,4.1819,4.1569,4.1781,4.1972,4.1925,4.1213,4.1462,4.1146,3.938,3.9841,3.9988,3.8836,3.9419,4.0,4.0,3.9519,3.9254,3.9365,3.8899,3.8405,3.7997,3.7219,3.6986,3.7376,3.648,3.6061,3.6154,3.6318,3.6122,3.5496,3.6338,3.6483,3.5927,3.5072,3.4558,3.6652,3.6648,3.6627,3.7156,3.7252,3.718,3.7108,3.6314,3.5568,3.5496,3.5111,3.5017,3.5716,3.8792,4.1466,4.216,4.6292,4.9998,5.1502,5.3201,5.4824,5.6337,5.6993,5.71,5.6578,5.652,5.652,5.652,5.5997,5.5881,5.6374,5.649,5.652,5.652,5.6461,5.5852,5.4606,5.4519,5.4142,5.3474,5.3474,5.3474,5.3474,5.3474,5.3474,5.3471,5.2975,0.0,5.3387,5.2198,5.1972,5.2278,5.1616,5.0904,5.0256,5.0256,4.9724,4.905,4.905,4.7455,4.5423,4.5449,4.5822,4.6005,4.4569,4.4113,4.3899,4.2914,4.2567,4.2266,4.135,4.1147,4.097,3.9929,3.98,4.0109,4.0844,4.0994,4.1137,4.1633,4.1716,4.1293,3.9878,4.0375,4.0301,3.8387,3.9529,3.9981,3.8237,3.8725,3.9199,3.9145,3.9007,3.8621,3.7867,3.7707,3.7271,3.6482,3.6198,3.6207,3.653,3.6307,3.6276,3.6507,3.6579,3.6555,3.6411,3.7012,3.7036,3.6505,3.5794,3.5271,3.7034,3.7091,3.718,3.7735,3.7517,3.7084,3.6651,3.605,3.5472,3.5039,3.4871,3.4848,3.4969,3.7616,4.0489,4.271,4.6759,5.0657,5.3613,5.5164,5.6272,5.7047,5.7247,5.7274,5.7158,5.7158,0.0,0.0,5.7042,5.681,5.6432,5.6868,5.7158,5.7158,5.6665,5.6026,5.5271,5.4749,5.4142,5.3474,5.3474,5.3474,5.3474,5.3474,5.3474,5.3474,5.3384,0.0,5.3416,5.2717,5.1908,5.1068,5.0366,4.9169,4.7827,4.7827,4.6862,4.5555,4.5555,4.5236,4.505,4.6361,4.5331,4.3534,4.3223,4.3146,4.2915,4.1849,4.1254,4.0872,4.0664,4.0901,4.097,3.9929,4.0338,4.0769,4.0109,3.9955,4.0236,4.1138,4.1311,4.1235,4.0932,4.1031,4.0602,3.8969,3.9044,3.8916,3.8114,3.881,3.9186,3.874,3.8011,3.7619,3.7779,3.7083,3.6677,3.6722,3.6479,3.6652,3.7353,3.7121,3.7015,3.706,3.7519,3.7276,3.6411,3.7372,3.7591,3.7034,3.5984,3.5454,3.7332,3.7397,3.7397,3.8214,3.7589,3.6723,3.6459,3.576,3.5111,3.4847,3.4799,3.4799,3.4799,3.7417,4.0054,4.1464,4.4714,4.8327,5.1956,5.3353,5.4821,5.7111,5.7627,5.7826,5.7826,5.7507,5.7303,5.7303,5.7303,5.7187,5.6897,5.6507,5.6021,5.5353,5.5043,5.4882,5.491,5.3951,5.3472,5.3513,5.3513,5.3341,5.2972,5.3055,5.2882,5.2568,5.2568,0.0,5.2566,5.2917,5.2351,5.1253,5.0889,4.9688,4.8137,4.8137,4.7217,4.6008,4.6008,4.5419,4.4833,4.5603,4.5119,4.4041,4.3153,4.2892,4.2657,4.1597,4.1127,4.0926,4.0926,4.1096,4.1052,4.0278,4.0488,4.0619,3.9851,3.9923,4.0179,4.0364,4.0415,4.0415,4.0415,4.0415,4.0185,3.9448,3.9321,3.922,3.8919,3.9296,3.9238,3.8368,3.788,3.7682,3.7884,3.7356,3.7094,3.7221,3.6825,3.6918,3.757,3.736,3.7324,3.7615,3.788,3.776,3.7228,3.776,3.7709,3.7204,3.6599,3.6044,3.7757,3.7853,3.7757,3.8599,3.7613,3.6411,3.6411,3.5568,3.4823,3.4943,3.4967,3.5015,3.5111,3.739,3.9567,4.0502,4.2927,4.601,4.9923,5.1438,5.3397,5.6668,5.7278,5.757,5.7859,5.7025,0.0,5.6509,5.6509,5.6708,5.7275,5.6366,5.5353,5.4352,5.4054,5.4106,5.4484,5.3472,5.3139,5.3501,5.3782,5.3472,5.2715,5.2799,5.2351,5.1487,5.1487,0.0,0.0,5.2326,5.2001,5.0934,5.0934,4.9856,4.8252,4.8252,4.7557,4.6622,4.6489,4.5601,4.4498,4.4369,4.4597,4.4651,4.3309,4.2941,4.2755,4.1897,4.1578,4.1478,4.1478,4.1403,4.1175,4.0775,4.0675,4.0549,4.0149,4.03,4.04,3.9948,3.9873,3.9873,3.9873,3.9973,3.9998,3.9898,3.9873,3.9823,3.9697,3.9697,3.9346,3.8467,3.8266,3.814,3.8015,3.7742,3.7618,3.7692,3.7264,3.7204,3.7661,3.7503,3.7591,3.8,3.8,3.8,3.8,3.8,3.7757,3.7372,3.7172,3.6587,3.8431,3.8668,3.8668,3.8764,3.7613,3.6411,3.6411,3.5568,3.4943,3.5424,3.552,3.5689,3.617,3.6922,3.8466,4.1589,4.3653,4.6174,4.9787,5.2052,5.4008,5.5752,5.5202,5.5172,5.6456,5.4918,5.3844,5.3844,5.3844,5.4856,5.7191,5.7191,5.7078,5.6936,5.5818,5.4986,5.4484,5.4369,5.4032,5.3501,5.4675,5.459,5.3388,5.3416,5.2459,5.0801,5.0801,0.0,0.0,5.0182,4.9505,4.8416,4.8416,4.7348,4.5826,4.5826,4.5392,4.4785,4.4279,4.402,4.3809,4.3305,4.3187,4.3192,4.303,4.2977,4.295,4.2891,4.2487,4.211,4.211,4.1706,4.1302,4.1252,4.1227,4.1227,4.1177,4.08,4.0501,4.045,4.0424,4.0424,4.0424,4.0826,4.1001,4.0499,4.0424,4.0249,3.9747,3.9697,3.9647,3.9546,3.912,3.8592,3.804,3.7742,3.7691,3.7957,3.77,3.7659,3.7954,3.7928,3.7952,3.8,3.8,3.8,3.8,3.8,3.7976,3.7902,3.7337,3.6773,3.8912,3.9296,3.9296,3.9296,3.831,3.718,3.6555,3.6074,3.5712,3.5616,3.5881,3.6146,3.6362,3.7418,3.8659,3.9989,4.1745,4.4161,4.7542,4.9244,5.1228,5.4134,5.4112,5.4245,0.0,0.0,5.3814,5.459,5.3904,5.4263,5.605,5.4651,5.3459,5.2696,5.217,5.216,5.2682,5.1948,5.1785,5.2302,5.2783,5.259,5.1761,5.1791,5.1014,4.9608,4.9608,0.0,0.0,4.959,4.9192,4.8094,4.8094,4.7228,4.5974,4.5974,4.5623,4.5121,4.4895,4.4593,4.4267,4.4041,4.3966,4.384,4.3215,4.324,4.3413,4.309,4.2838,4.2688,4.2688,4.2261,4.1831,4.1831,4.1831,4.1731,4.1378,4.143,4.1404,4.1051,4.0976,4.0976,4.0976,4.1177,4.1227,4.1026,4.07,4.0399,4.0224,3.9898,3.9697,3.9697,3.9522,3.927,3.9044,3.8765,3.8583,3.8471,3.8235,3.8047,3.8,3.8,3.8,3.8,3.8,3.8,3.8,3.8,3.8,3.7974,3.7735,3.7307,3.8984,3.9489,3.9657,3.9801,3.8912,3.7808,3.7036,3.6627,3.6338,3.6122,3.6386,3.6723,3.706,3.8075,3.9016,3.9476,4.097,4.2981,4.5646,4.7261,4.9329,5.2486,5.2765,5.297,5.3743,5.2947,5.2723,5.3607,5.2845,5.2723,5.3637,5.1953,5.0885,5.0753,5.0372,5.0569,5.1492,5.06,5.06,5.1492,5.1896,5.1601,5.0646,5.0677,4.9841,4.8386,4.8386,0.0,0.0,4.8471,4.8326,4.7563,4.7563,4.7057,4.6301,4.6301,4.6075,4.5698,4.5547,4.5221,4.4844,4.464,4.4715,4.4694,4.3765,4.374,4.394,4.3391,4.314,4.3014,4.3014,4.2713,4.2436,4.2436,4.2436,4.2311,4.1907,4.2007,4.206,4.1656,4.1553,4.1553,4.1553,4.1679,4.1729,4.1578,4.1254,4.0953,4.075,4.0275,3.9948,3.9948,3.9798,3.9697,3.9697,3.9439,3.9154,3.8815,3.8552,3.8289,3.8,3.8,3.8046,3.8214,3.8238,3.831,3.8455,3.8455,3.8455,3.8455,3.831,3.7822,3.8527,3.92,3.9729,4.0258,3.9204,3.8,3.8,3.7156,3.6555,3.706,3.718,3.7517,3.8572,3.8788,3.9343,4.0992,4.2188,4.3357,4.471,4.717,4.9356,5.0944,5.0728,5.0955,5.2375,5.0768,4.9654,4.9654,4.9654,0.0,4.9654,4.9622,5.0784,5.3389,5.217,5.1492,5.1492,5.1492,5.1492,5.1518,5.2845,5.249,5.0707,5.0707,4.9404,4.7129,0.0,0.0,0.0,4.6331,4.6331,4.6301,4.6301,4.6301,4.6301,4.6301,4.6301,4.6225,4.5673,4.5497,4.5372,4.479,4.502,4.5372,4.4794,4.4589,4.4464,4.394,4.3388,4.3014,4.3014,4.2989,4.2989,4.2989,4.2989,4.2989,4.2989,4.2562,4.2213,4.2213,4.2213,4.2213,4.2213,4.2637,4.2813,4.2288,4.2187,4.1959,4.1378,4.0826,4.0474,4.0474,4.0023,3.9697,3.9697,3.9439,3.9154,3.8815,3.8552,3.8289,3.8,3.8,3.8238,3.8764,3.8788,3.9053,3.9585,3.9585,3.9585,3.9585,3.9029,3.8179,3.7517,3.8094,3.8455,3.8262,3.8121,3.7808,3.706,3.7493,3.7971,3.7808,3.8334,3.8936,3.9296,3.9989,4.0849,4.1924,4.3202,4.4394,4.537,4.7039,4.8359,4.8829,4.9487,5.0035,0.0,0.0,4.995,5.0822,5.011,4.9982,5.0853,5.0078,4.9982,5.0816,5.0404,5.0181,5.0181,5.0181,5.0181,5.0213,5.0626,5.0344,4.9398,4.9398,4.8564,0.0,0.0,0.0,0.0,4.6301,4.6301,4.6301,4.6301,4.6301,4.6301,4.6301,4.6301,4.6276,4.6125,4.605,4.6024,4.5819,4.5899,4.6024,4.5824,4.5522,4.502,4.4066,4.3689,4.3463,4.3115,4.3014,4.3014,4.3014,4.3014,4.3014,4.3014,4.2864,4.2738,4.2738,4.2738,4.2738,4.2738,4.2889,4.2939,4.2763,4.2411,4.211,4.1934,4.143,4.1051,4.1051,4.0901,4.0499,3.9747,3.962,3.951,3.9382,3.9249,3.918,3.9107,3.9104,3.9176,3.9345,3.9369,3.9441,3.9609,3.9609,3.9417,3.9029,3.8503,3.8062,3.6747,3.7276,3.7735,3.7781,3.7902,3.7952,3.7661,3.8238,3.874,3.8623,3.921,3.9823,4.0016,4.0919,4.1864,4.2692,4.3891,4.4981,4.5699,4.7066,4.8164,4.8589,4.9192,0.0,0.0,4.959,4.9918,5.0727,5.0046,4.995,5.0727,5.0046,4.959,4.959,4.959,4.959,4.959,4.959,4.959,4.959,4.959,4.9314,4.8793,4.8535,4.7958,0.0,0.0,0.0,0.0,4.6828,4.6803,4.6597,4.6597,4.6502,4.6301,4.6301,4.6301,4.6301,4.6301,4.6301,4.6301,4.6301,4.6301,4.6301,4.6301,4.5924,4.5347,4.4644,4.4141,4.3714,4.3388,4.3165,4.3014,4.3014,4.3014,4.3014,4.3014,4.3014,4.3014,4.3014,4.3014,4.3014,4.3014,4.3014,4.3014,4.3014,4.2713,4.2487,4.2487,4.1982,4.1656,4.1656,4.1428,4.1026,4.0349,4.0195,3.9982,3.9601,3.969,3.9712,3.9585,3.9609,3.9705,3.9898,3.9898,3.9994,4.0186,3.9994,3.9633,3.9104,3.8551,3.819,0.0,3.6797,3.7372,3.8383,3.8337,3.8265,3.9248,3.92,0.0,3.9637,3.9951,4.0314,4.0877,4.1642,4.2523,4.3399,4.4426,4.532,4.5837,4.7252,4.861,4.976,4.9714,0.0,4.9558,4.959,4.959,4.959,4.959,4.959,4.959,4.959,4.959,4.959,4.959,4.959,4.959,4.959,4.959,4.959,4.959,4.9321,4.8718,4.8159,4.7631,0.0,0.0,0.0,0.0,4.7676,4.7631,4.7149,4.7124,4.6798,4.6346,4.6326,4.6301,4.6301,4.6301,4.6301,4.6301,4.6301,4.6301,4.6301,4.6301,4.5949,4.5547,4.5497,4.4719,4.3915,4.3865,4.3438,4.3065,4.3065,4.3039,4.3014,4.3014,4.3014,4.3014,4.3014,4.3014,4.3014,4.3014,4.3014,4.3014,4.3014,4.3014,4.3014,4.3014,4.2562,4.2263,4.2263,4.1756,4.1428,4.1378,4.1085,4.0591,3.9773,3.9946,3.9989,3.9705,3.9705,3.9946,4.0451,4.0451,4.0691,4.1201,4.0643,4.0114,3.9585,3.9029,3.8503,3.6691,0.0,3.6702,3.7173,3.765,3.8072,0.0,3.9224,4.0246,4.1031,4.1382,4.176,4.2501,4.3012,4.3664,4.4743,4.5666,4.6408,4.6954,4.7749,4.87,4.9768,4.9746,4.9493,4.9234,4.9461,4.959,4.959,4.959,4.959,4.959,4.959,4.959,4.959,4.959,4.959,4.959,4.959,4.959,4.959,4.959,4.9063,4.8109,4.7958,4.7631,0.0,0.0,0.0,4.7732,4.7857,4.7832,4.7682,4.7249,4.7023,4.6848,4.6446,4.6301,4.6301,4.6301,4.6301,4.6301,4.6301,4.6301,4.6301,4.6301,4.6225,4.6024,4.5598,4.5296,4.4995,4.4514,4.4016,4.3614,4.3614,4.3316,4.3014,4.3014,4.3014,4.3014,4.3014,4.3014,4.3014,4.3014,4.3014,4.3014,4.3014,4.3014,4.3014,4.3014,4.2889,4.2813,4.2813,4.2688,4.2434,4.2034,4.1499,4.1103,4.0909,4.0973,4.094,4.0816,4.0812,4.086,4.1033,4.1033,4.1052,4.1201,4.0643,4.0114,3.9585,3.9029,3.8503,3.7737,3.7726,3.7591,3.8014,3.8586,3.9255,3.9875,4.0226,4.0732,4.1796,4.2098,4.2374,4.3055,4.3668,4.4372,4.5214,4.5927,4.6772,4.7863,4.8108,4.8559,4.9641,4.9536,4.9234,0.0,4.9299,4.9525,4.9396,4.9493,4.959,4.959,4.959,4.959,4.959,4.959,4.959,4.959,4.959,4.959,4.959,4.959,4.9264,4.8686,4.841,4.8159,0.0,0.0,0.0,4.8309,4.8586,4.8535,4.8259,4.7707,4.7299,4.7048,4.6496,4.6301,4.6301,4.6301,4.6301,4.6301,4.6301,4.6301,4.6301,4.6301,4.6301,4.625,4.5949,4.5673,4.5422,4.5095,4.4593,4.4192,4.4192,4.3765,4.3363,4.3363,4.3162,4.3014,4.3014,4.3014,4.3014,4.3014,4.3014,4.3014,4.3014,4.3014,4.3014,4.3014,4.3014,4.3014,4.3014,4.3014,4.2889,4.2587,4.2258,4.1861,4.1327,4.1268,4.1225,4.1201,4.1201,4.1201,4.1201,4.1201,4.1201,4.1201,4.0643,4.0234,3.9946,3.9417,3.9008,3.8999,3.9419,3.9561,3.9737,4.0262,4.1042,4.2098,4.1518,4.1114,4.2375,4.2671,4.2885,4.3443,4.4219,4.4969,4.5478,4.6017,4.6952,4.8561,4.84,4.8433,4.9334,4.9282,0.0,4.8706,4.9259,4.9493,4.9202,4.9429,4.959,4.959,4.959,4.959,4.959,4.959,4.959,4.959,4.959,4.959,4.959,4.959,4.9565,4.9464,4.9019,4.8793,4.8793,0.0,0.0,4.8969,4.9414,4.9264,4.8743,4.8134,4.755,4.7048,4.6496,4.6301,4.6301,4.6301,4.6301,4.6301,4.6301,4.6301,4.6301,4.6301,4.6301,4.6301,4.6301,4.5974,4.5623,4.5623,4.5196,4.4715,4.4715,4.4342,4.389,4.3815,4.3438,4.3115,4.3014,4.3014,4.3014,4.3014,4.3014,4.3014,4.3014,4.3014,4.3014,4.3014,4.3014,4.3014,4.3014,4.3014,4.3014,4.3014,4.2958,4.2507,4.1474,4.1359,4.1311,4.1201,4.1201,4.1201,4.1201,4.1201,4.1201,4.1201,4.0739,4.0475,4.0379,3.9946,3.9681,3.9642,4.1305,4.2434,4.0979,4.1518,4.2386,4.2126,4.2241,4.2686,4.3565,4.3893,4.4253,4.5088,4.5691,4.6282,4.6818,4.7353,4.7962,0.0,0.0,4.8584,4.8756,0.0,4.9396,4.904,4.9364,4.9558,4.9525,4.9558,4.959,4.959,4.959,4.959,4.959,4.959,4.959,4.959,4.959,4.959,4.959,4.959,4.9339,4.8919,4.8843,4.8793,4.8793,0.0,4.9069,4.9464,4.9565,4.9264,4.8743,4.8134,4.755,4.7048,4.6496,4.6301,4.6301,4.6301,4.6301,4.6301,4.6301,4.6301,4.6301,4.6301,4.6301,4.6301,4.6301,4.625,4.6175,4.6175,4.5773,4.5347,4.5347,4.492,4.4338,4.389,4.374,4.3539,4.309,4.3014,4.3014,4.3014,4.3014,4.3014,4.3014,4.3014,4.3014,4.3014,4.3014,4.3014,4.3014,4.3014,4.3014,4.3014,4.2762,4.2404,4.2016,4.1976,4.1741,4.1201,4.1201,4.1201,4.1201,4.1201,4.1201,4.1201,4.1129,4.0836,4.0403,4.0306,4.0042,3.9516,4.1215,4.2669,4.2691,4.403,4.5252,4.4908,4.4398,4.4199,4.4748,4.4556,4.4515,4.5201,4.5522,4.6054,4.7197,4.8043,4.8671,4.8913,4.8804,4.872,0.0,0.0,4.9202,4.8869,4.9299,4.9525,4.9332,4.9493,4.959,4.959,4.959,4.959,4.959,4.959,4.959,4.959,4.959,4.959,4.959,4.959,4.9464,4.9213,4.9213,4.9213,4.9213,0.0,4.9364,4.959,4.959,4.9264,4.8743,4.8134,4.755,4.7048,4.6496,4.6301,4.6301,4.6301,4.6301,4.6301,4.6301,4.6301,4.6301,4.6301,4.6301,4.6301,4.6301,4.6301,4.6301,4.6301,4.6125,4.5924,4.5924,4.5497,4.502,4.4769,4.4468,4.4091,4.3539,4.3413,4.3338,4.3065,4.3014,4.3014,4.3014,4.3014,4.3014,4.3014,4.3014,4.3014,4.3014,4.3014,4.3014,4.3014,4.2681,4.2287,4.1859,4.1688,4.1512,4.1201,4.1201,4.1201,4.1201,4.1201,4.1201,4.1201,4.1201,4.1052,4.0812,4.0812,4.0691,3.9575,4.0989,4.2501,4.3787,4.5445,4.6841,4.7198,4.6142,4.5268,4.5883,4.5515,4.5181,4.559,4.5854,4.6415,4.7521,4.8459,4.9119,4.9119,4.8811,4.8634,4.8734,4.8961,4.9007,4.8837,4.9324,4.9493,4.9234,4.9461,4.959,4.959,4.959,4.959,4.959,4.959,4.959,4.959,4.959,4.959,4.959,4.959,4.959,4.959,4.959,4.959,4.959,4.959,4.959,4.959,4.959,4.9188,4.8542,4.8083,4.7475,4.6848,4.6446,4.6301,4.6301,4.6301,4.6301,4.6301,4.6301,4.6301,4.6301,4.6301,4.6301,4.6301,4.6301,4.6301,4.6301,4.6301,4.6301,4.6301,4.6301,4.5999,4.5648,4.5552,4.5146,4.4669,4.4091,4.389,4.3664,4.3266,4.309,4.3014,4.3014,4.3014,4.3014,4.3014,4.3014,4.3014,4.3014,4.3014,4.2986,4.2902,4.2594,4.2174,4.1635,4.1344,4.1201,4.1201,4.1201,4.1201,4.1201,4.1201,4.1201,4.1201,4.1201,4.1201,4.1201,4.1201,4.1201,4.0345,4.1716,4.2862,4.3433,4.4051,4.5037,4.7049,4.6247,4.5517,4.7049,4.7305,4.7281,4.7329,4.8122,4.871,4.8291,4.87,4.9119,4.9119,0.0,4.8198,4.8584,4.8927,4.9202,4.9493,4.9558,4.959,4.9558,4.959,4.959,4.959,4.959,4.959,4.959,4.959,4.959,4.959,4.959,4.959,4.959,4.959,4.959,4.959,4.959,4.959,4.959,4.959,4.959,4.959,4.959,4.8962,4.7958,4.7933,4.728,4.6346,4.6326,4.6301,4.6301,4.6301,4.6301,4.6301,4.6301,4.6301,4.6301,4.6301,4.6301,4.6301,4.6301,4.6301,4.6301,4.6301,4.6301,4.6301,4.6301,4.6276,4.6125,4.5598,4.5447,4.5246,4.464,4.4141,4.379,4.374,4.3341,4.3014,4.3014,4.3014,4.3014,4.3014,4.3014,4.3014,4.3014,4.3014,4.2849,4.2541,4.2284,4.1972,4.1635,4.1344,4.1201,4.1201,4.1201,4.1201,4.1201,4.1201,4.1201,4.1201,4.1201,4.1201,4.1201,4.1201,4.1201,3.973,4.1408,4.2982,4.3787,4.4652,4.5686,4.7161,4.7281,4.7353,4.8291,4.7954,4.7305,4.6631,4.7642,4.8411,4.7882,4.8507,4.8998,4.8628,4.8713,4.8779,4.8625,4.9097,4.9461,4.959,4.959,4.959,4.959,4.959,4.959,4.959,4.959,4.959,4.959,4.959,4.959,4.959,4.959,4.959,4.959,4.959,4.959,4.959,4.959,4.959,4.959,4.959,4.959,4.959,4.959,4.9138,4.8385,4.7682,4.7149,4.6747,4.6426,4.6301,4.6301,4.6301,4.6301,4.6301,4.6301,4.6301,4.6301,4.6301,4.6301,4.6301,4.6301,4.6301,4.6301,4.6301,4.6301,4.6301,4.6301,4.6301,4.625,4.605,4.5999,4.5824,4.5271,4.4995,4.4744,4.4367,4.3865,4.3489,4.3489,4.3187,4.3014,4.3014,4.3014,4.3014,4.3014,4.2793,4.2566,4.2284,4.1972,4.1659,4.1373,4.1258,4.1201,4.1201,4.1201,4.1201,4.1201,4.1201,4.1201,4.1201,4.1201,4.1201,4.1201,4.1201,4.1201,3.994,4.1499,4.3078,4.4268,4.5229,4.6214,4.7473,4.7906,4.8291,4.9191,4.8483,4.7425,4.6335,4.7185,4.793,0.0,4.8243,4.8734,4.8339,4.8549,4.8705,4.8592,4.9,4.9389,4.9558,4.959,4.959,4.959,4.959,4.959,4.959,4.959,4.959,4.959,4.959,4.959,4.959,4.959,4.959,4.959,4.959,4.959,4.959,4.959,4.959,4.959,4.959,4.959,4.959,4.959,4.9264,4.8693,4.7525,4.7099,4.7048,4.6496,4.6301,4.6301,4.6301,4.6301,4.6301,4.6301,4.6301,4.6301,4.6301,4.6301,4.6301,4.6301,4.6301,4.6301,4.6301,4.6301,4.6301,4.6301,4.6301,4.6301,4.6301,4.6301,4.62,4.5824,4.5598,4.5372,4.497,4.4443,4.4066,4.4066,4.3589,4.3237,4.3237,4.3115,4.3014,4.3014,4.2793,4.2538,4.2256,4.1944,4.1606,4.1344,4.123,4.1201,4.1201,4.1201,4.1201,4.1201,4.1201,4.1201,4.1201,4.1201,4.1201,4.1201,4.1201,4.1201,4.1282,4.2176,4.3174,4.47,4.5517,4.6335,4.793,4.7882,4.7954,4.9576,4.9071,4.7978,4.692,4.7136,0.0,4.7497,4.793,4.8291,4.8291,4.7834,4.7786,4.851,4.8633,4.8869,4.9525,4.959,4.959,4.959,4.959,4.959,4.959,4.959,4.959,4.959,4.959,4.959,4.959,4.959,4.959,4.959,4.959,4.959,4.959,4.959,4.959,4.959,4.959,4.959,4.959,4.959,4.9264,4.8693,4.755,4.7124,4.7048,4.6496,4.6301,4.6301,4.6301,4.6301,4.6301,4.6301,4.6301,4.6301,4.6301,4.6301,4.6301,4.6301,4.6301,4.6301,4.6301,4.6301,4.6301,4.6301,4.6301,4.6301,4.6301,4.6301,4.6301,4.6301,4.5874,4.5497,4.5497,4.502,4.4614,4.4614,4.4166,4.3815,4.379,4.3341,4.3014,4.3014,4.3014,4.2874,4.2513,4.2256,4.1944,4.1635,4.1344,4.1201,4.1201,4.1201,4.1201,4.1201,4.1201,4.1201,4.1201,4.1201,4.1201,4.1201,4.1201,4.1201,4.0298,4.1711,4.3409,4.3835,4.5814,4.7617,4.7714,4.8195,4.8748,4.9239,4.9095,4.8411,4.6968,4.7136,0.0,4.7016,4.7401,4.7738,4.7738,4.8048,4.8346,4.8567,4.9032,4.9364,4.9558,4.959,4.959,4.959,4.959,4.959,4.959,4.959,4.959,4.959,4.959,4.959,4.959,4.959,4.959,4.959,4.959,4.959,4.959,4.959,4.959,4.959,4.959,4.959,4.959,4.959,4.949,4.9238,4.8109,4.7682,4.7525,4.6652,4.6301,4.6301,4.6301,4.6301,4.6301,4.6301,4.6301,4.6301,4.6301,4.6301,4.6301,4.6301,4.6301,4.6301,4.6301,4.6301,4.6301,4.6301,4.6301,4.6301,4.6301,4.6301,4.6301,4.6301,4.6175,4.6075,4.6075,4.5598,4.5221,4.5221,4.4744,4.4242,4.384,4.3341,4.3014,4.3014,4.279,4.2597,4.2513,4.2033,4.1692,4.1606,4.1344,4.1201,4.1201,4.1201,4.1201,4.1201,4.1201,4.1201,4.1201,4.1201,4.1201,4.1201,4.1201,4.1201,4.1942,4.3234,4.4732,4.5766,4.7329,4.8628,4.8748,4.894,4.9119,4.9119,4.8748,4.8171,4.7209,4.7112,0.0,4.704,4.7404,4.7696,4.7696,4.8215,4.8641,4.8772,4.9137,4.9461,4.959,4.959,4.959,4.959,4.959,4.959,4.959,4.959,4.959,4.959,4.959,4.959,4.959,4.959,4.959,4.959,4.959,4.959,4.959,4.959,4.959,4.959,4.959,4.959,4.959,4.959,4.959,4.9515,4.8611,4.8109,4.7807,4.6923,4.6471,4.6301,4.6301,4.6301,4.6301,4.6301,4.6301,4.6301,4.6301,4.6301,4.6301,4.6301,4.6301,4.6301,4.6301,4.6301,4.6301,4.6301,4.6301,4.6301,4.6301,4.6301,4.6301,4.6301,4.6301,4.6301,4.6301,4.6024,4.5824,4.5824,4.5321,4.4769,4.4192,4.3639,4.3313,4.3313,4.2831,4.2485,4.2485,4.1948,4.1606,4.1606,4.1344,4.1201,4.1201,4.1201,4.1201,4.1201,4.1201,4.1201,4.1201,4.1201,4.1201,4.1201,4.1201,4.1201,4.4852,4.5758,4.6535,4.9071,4.9432,4.9456,5.0455,4.9902,4.9167,4.9119,4.8315,4.7617,4.7521,4.7112,4.6944,4.7458,4.7795,4.8026,4.8059,4.8412,4.8772,4.9072,4.9137,4.9267,4.9558,4.959,4.959,4.959,4.959,4.959,4.959,4.959,4.959,4.959,4.959,4.959,4.959,4.959,4.959,4.959,4.959,4.959,4.959,4.959,4.959,4.959,4.959,4.959,4.959,4.959,4.959,4.954,4.9019,4.846,4.7908,4.7324,4.6772,4.6376,4.6326,4.6301,4.6301,4.6301,4.6301,4.6301,4.6301,4.6301,4.6301,4.6301,4.6301,4.6301,4.6301,4.6301,4.6301,4.6301,4.6301,4.6301,4.6301,4.6301,4.6301,4.6301,4.6301,4.6301,4.6301,4.6301,4.6301,4.6301,4.5849,4.5296,4.474,4.4217,4.3865,4.3815,4.3084,4.2587,4.2509,4.1976,4.1635,4.1606,4.1344,4.1201,4.1201,4.1201,4.1196,4.1273,4.1273,4.1273,4.1273,4.1273,4.1249,4.1201,4.1201,4.1201,4.3391,4.4659,4.6238,4.7666,4.8902,4.9913,5.0551,5.0191,4.9624,4.9191,4.8926,4.8483,4.7666,4.7401,4.7476,4.7837,4.796,4.8092,4.8412,4.8772,4.9007,4.9105,4.9332,4.9525,4.959,4.959,4.959,4.959,4.959,4.959,4.959,4.959,4.959,4.959,4.959,4.959,4.959,4.959,4.959,0.0,4.959,4.959,4.959,4.959,4.959,4.959,4.959,4.959,4.959,4.959,4.959,4.954,4.9019,4.8718,4.846,4.745,4.7023,4.6873,4.6451,4.6301,4.6301,4.6301,4.6301,4.6301,4.6301,4.6301,4.6301,4.6301,4.6301,4.6301,4.6301,4.6301,4.6301,4.6301,4.6301,4.6301,4.6301,4.6301,4.6301,4.6301,4.6301,4.6301,4.6301,4.6301,4.6301,4.6301,4.5849,4.5447,4.5321,4.4794,4.4292,4.384,4.3633,4.324,4.2562,4.2199,4.1887,4.1635,4.1344,4.1201,4.1201,4.1201,4.1418,4.1827,4.1827,4.1827,4.1827,4.1827,4.161,4.1201,4.1201,4.1201,4.3938,4.5453,4.7064,4.8652,4.9662,5.0335,5.0648,5.0479,5.0119,4.96,4.9095,4.8459,4.7642,4.763,4.7795,4.796,4.8289,4.8584,4.8804,4.9137,4.9332,4.9332,4.9493,4.959,4.959,4.959,4.959,4.959,4.959,4.959,4.959,4.959,4.959,4.959,4.959,4.959,4.959,4.959,4.959,4.959,4.959,4.959,4.959,4.959,4.959,4.959,4.959,4.959,4.959,4.959,4.959,4.9565,4.9289,4.9044,4.8693,4.7807,4.7324,4.7023,4.6502,4.6301,4.6301,4.6301,4.6301,4.6301,4.6301,4.6301,4.6301,4.6301,4.6301,4.6301,4.6301,4.6301,4.6301,4.6301,4.6301,4.6301,4.6301,4.6301,4.6301,4.6301,4.6301,4.6301,4.6301,4.6301,4.6301,4.6301,4.6075,4.5874,4.5874,4.5372,4.4861,4.444,4.3796,4.3119,4.2508,4.1977,4.1573,4.143,4.1287,4.1321,4.1586,4.1345,4.1345,4.161,4.1634,4.1634,4.1634,4.1634,4.149,4.1201,4.1201,4.1201,4.4491,4.6343,4.8002,5.0046,5.0624,5.0696,5.0696,5.0696,5.0551,5.0009,4.9143,4.8267,4.7738,4.7801,4.796,4.8059,4.8616,4.904,4.917,4.9429,4.959,4.959,4.959,4.959,4.959,4.959,4.959,4.959,4.959,4.959,4.959,4.959,4.959,4.959,4.959,4.959,4.959,4.959,4.959,4.959,4.959,4.959,4.959,4.959,4.959,4.959,4.959,4.959,4.959,4.959,4.959,4.959,4.959,4.9264,4.8743,4.8134,4.755,4.7023,4.6502,4.6301,4.6301,4.6301,4.6301,4.6301,4.6301,4.6301,4.6301,4.6301,4.6301,4.6301,4.6301,4.6301,4.6301,4.6301,4.6301,4.6301,4.6301,4.6301,4.6301,4.6301,4.6301,4.6301,4.6301,4.6301,4.6301,4.6301,4.6301,4.6301,4.6301,4.5924,4.5479,4.5052,4.3968,4.3036,4.2438,4.1861,4.1471,4.1345,4.1345,4.1538,4.1995,4.149,4.1201,4.1201,4.1297,4.1345,4.1345,4.1345,4.1297,4.1201,4.1201,4.1201,4.2284,4.4948,4.7906,4.96,5.0335,5.0696,5.0696,5.0696,5.0551,5.0009,4.9432,4.8854,4.8291,4.7843,4.7762,4.8412,4.8576,4.8869,4.9429,4.9558,4.959,4.959,4.959,4.959,4.959,4.959,4.959,4.959,4.959,4.959,4.959,4.959,4.959,4.959,4.959,4.959,4.959,4.959,4.959,4.959,4.959,4.959,4.959,4.959,4.959,4.959,4.959,4.959,4.959,4.959,4.959,4.959,4.959,4.9264,4.8743,4.8134,4.755,4.7023,4.6502,4.6301,4.6301,4.6301,4.6301,4.6301,4.6301,4.6301,4.6301,4.6301,4.6301,4.6301,4.6301,4.6301,4.6301,4.6301,4.6301,4.6301,4.6301,4.6301,4.6301,4.6301,4.6301,4.6301,4.6301,4.6301,4.6301,4.6301,4.6301,4.6301,4.6301,4.625,4.5905,4.5077,4.4844,4.4082,4.254,4.2739,4.2616,4.1952,4.1899,4.1923,4.1995,4.149,4.1201,4.1201,4.1658,4.1899,4.1899,4.1899,4.1658,4.1201,4.1201,4.1201,4.276,4.4924,4.7064,4.8974,4.9865,5.0274,5.0274,5.0274,5.0095,4.9576,4.9459,4.9281,4.869,4.8534,4.8565,4.8854,4.9032,4.9259,4.9558,4.959,4.959,4.959,4.959,4.959,4.959,4.959,4.959,4.959,4.959,4.959,4.959,4.959,4.959,4.959,4.959,4.959,4.959,4.959,4.959,4.959,4.959,4.959,4.959,4.959,4.959,4.959,4.959,4.959,4.959,4.959,4.959,4.9565,4.9264,4.9019,4.8693,4.7807,4.7299,4.7023,4.6502,4.6301,4.6301,4.6301,4.6301,4.6301,4.6301,4.6301,4.6301,4.6301,4.6301,4.6301,4.6301,4.6301,4.6301,4.6301,4.6301,4.6301,4.6301,4.6301,4.6301,4.6301,4.6301,4.62,4.5899,4.61,4.62,4.5899,4.6125,4.6301,4.6301,4.6301,4.6015,4.5253,4.4902,4.4268,4.3124,4.2992,4.2812,4.2452,4.2164,4.214,4.2428,4.1658,4.1345,4.1658,4.1586,4.1562,4.1562,4.1562,4.1442,4.1201,4.1201,4.1201,4.2874,4.4388,4.5669,4.7906,4.9022,4.9528,4.9672,4.9696,4.9611,4.9294,4.946,4.9553,4.9127,4.9229,4.9289,4.9114,4.9299,4.9493,4.959,4.959,4.959,4.959,4.959,4.959,4.959,4.959,4.959,4.959,4.959,4.959,4.959,4.959,4.959,4.959,4.959,4.959,4.959,4.959,4.959,4.959,4.959,4.959,4.959,4.959,4.959,4.959,4.959,4.959,4.959,4.959,4.959,4.954,4.9019,4.8718,4.8435,4.745,4.7023,4.6823,4.6451,4.6301,4.6301,4.6301,4.6301,4.6301,4.6301,4.6301,4.6301,4.6301,4.6301,4.6301,4.6301,4.6301,4.6301,4.6301,4.6301,4.6301,4.6301,4.6301,4.6276,4.6125,4.61,4.5974,4.5573,4.5824,4.5974,4.5547,4.5949,4.625,4.6125,4.6225,4.6029,4.5361,4.4937,4.4401,4.359,4.3289,4.3078,4.2813,4.2428,4.2308,4.2573,4.1706,4.1394,4.1803,4.1418,4.1201,4.1201,4.1201,4.1201,4.1201,4.1201,4.1201,4.1394,4.2525,4.3584,4.6175,4.7617,4.8507,4.9047,4.9143,4.9211,4.9529,4.9597,4.963,4.9818,4.9619,4.9331,4.9114,4.9105,4.9234,4.9558,4.959,4.959,4.959,4.959,4.959,4.959,4.959,4.959,4.959,4.959,4.959,4.959,4.959,4.959,4.959,4.959,4.959,4.959,4.959,4.959,4.959,4.959,4.959,4.959,4.959,4.959,4.959,4.959,4.959,4.959,4.959,4.959,4.954,4.9019,4.8435,4.7883,4.7299,4.6772,4.6351,4.6326,4.6301,4.6301,4.6301,4.6301,4.6301,4.6301,4.6301,4.6301,4.6301,4.6301,4.6301,4.6301,4.6301,4.6301,4.6301,4.6301,4.6301,4.6301,4.6301,4.615,4.5623,4.5522,4.5522,4.5497,4.5522,4.5522,4.5497,4.5949,4.6125,4.5598,4.5999,4.6029,4.5361,4.5276,4.4787,4.3614,4.3931,4.3811,4.2862,4.2765,4.2525,4.2067,4.1514,4.1196,4.1249,4.1196,4.1201,4.1201,4.1201,4.1201,4.1201,4.1201,4.1201,4.009,4.1369,4.2669,4.4306,4.5742,4.692,4.7449,4.7834,4.8108,4.8242,4.8911,4.9385,4.9101,4.9405,4.9677,4.9464,4.9429,4.9461,4.959,4.959,4.959,4.959,4.959,4.959,4.959,4.959,4.959,4.959,4.959,4.959,4.959,4.959,4.959,4.959,4.959,4.959,4.959,4.959,4.959,4.959,4.959,4.959,4.959,4.959,4.959,4.959,4.959,4.959,4.959,4.959,4.9389,4.9044,4.8435,4.7883,4.7299,4.6772,4.6446,4.6301,4.6301,4.6301,4.6301,4.6301,4.6301,4.6301,4.6301,4.6301,4.6301,4.6301,4.6301,4.6301,4.6301,4.6301,4.6301,4.6301,4.6301,4.6225,4.5849,4.6075,4.625,4.605,4.5723,4.5497,4.5497,4.5171,4.4945,4.4945,4.5095,4.5208,4.5181,4.535,4.5354,4.5006,4.4994,4.4737,4.4058,4.4196,4.4003,4.3289,4.2982,4.2549,4.2019,4.149,4.1201,4.1201,4.1201,4.1201,4.1201,4.1201,4.1201,4.1201,4.1201,4.1201,3.9417,4.0499,4.1803,4.3223,4.4323,4.5325,4.6247,4.6793,4.7213,4.7537,4.8648,4.9422,4.9001,4.9544,4.9973,4.9658,4.959,4.959,4.959,4.959,4.959,4.959,4.959,4.959,4.959,4.959,4.959,4.959,4.959,0.0,4.959,4.959,4.959,4.959,4.959,4.959,4.959,4.959,4.959,4.959,4.959,4.959,4.959,4.959,4.959,4.959,4.959,4.959,4.959,4.9389,4.9145,4.8718,4.7933,4.74,4.7048,4.6496,4.6301,4.6301,4.6301,4.6301,4.6301,4.6301,4.6301,4.6301,4.6301,4.6301,4.6301,4.6301,4.6301,4.6301,4.6301,4.6301,4.6301,4.6301,4.6175,4.5924,4.5573,4.5773,4.5924,4.5547,4.5171,4.492,4.492,4.4593,4.4313,4.4313,4.4464,4.4577,4.4455,4.4625,4.4635,4.4317,4.4421,4.4323,4.3818,4.4124,4.3931,4.3048,4.2886,4.2477,4.1755,4.1394,4.1201,4.1201,4.1201,4.1201,4.1201,4.1201,4.1201,4.1201,4.1201,4.1076,0.0,0.0,0.0,4.2904,4.3433,4.389,4.5501,4.6118,4.6614,4.7585,4.8877,4.98,4.9626,5.0042,5.0218,4.969,4.959,4.959,4.959,4.959,4.959,4.959,4.959,4.959,4.959,4.959,4.959,4.959,4.959,4.959,4.959,4.959,4.959,4.959,4.959,4.959,4.959,4.959,4.959,4.959,4.959,4.959,4.959,4.959,4.959,4.959,4.959,4.959,4.9565,4.9044,4.8793,4.8667,4.7525,4.7099,4.7023,4.6471,4.6301,4.6301,4.6301,4.6301,4.6301,4.6301,4.6301,4.6301,4.6301,4.6301,4.6301,4.6301,4.6301,4.6301,4.6301,4.6301,4.6301,4.6301,4.5899,4.5497,4.5472,4.5472,4.5146,4.4041,4.3815,4.3815,4.3815,4.379,4.379,4.379,4.4242,4.4277,4.349,4.3855,4.3943,4.3246,4.3673,4.3675,4.2867,4.3697,4.3595,4.2091,4.2477,4.2308,4.1249,4.1201,4.1201,4.1201,4.1201,4.1201,4.1201,4.1201,4.1201,4.1201,4.1201,4.0908,3.8359,0.0,0.0,0.0,0.0,0.0,4.4759,4.5079,4.5552,4.7364,4.7922,4.8327,4.9078,4.9554,4.9766,4.9615,4.959,4.959,4.959,4.959,4.959,4.959,4.959,4.959,4.959,4.959,4.959,0.0,4.959,4.959,4.959,4.959,4.959,4.959,4.959,4.959,4.959,4.959,4.959,4.959,4.959,4.959,4.959,4.959,4.959,4.959,4.959,4.959,4.9565,4.9044,4.8542,4.8083,4.7375,4.6848,4.6496,4.6346,4.6301,4.6301,4.6301,4.6301,4.6301,4.6301,4.6301,4.6301,4.6301,4.6301,4.6301,4.6301,4.6301,4.6301,4.6301,4.6301,4.6301,4.6301,4.62,4.5849,4.5045,4.484,4.4769,4.4439,4.4066,4.3915,4.4288,4.374,4.3338,4.374,4.3589,4.334,4.3074,4.3505,4.359,4.2998,4.3367,4.3403,4.2867,4.3054,4.2886,4.2043,4.214,4.1923,4.1249,4.1201,4.1201,4.1201,4.1201,4.1201,4.1201,4.1201,4.1201,4.1201,4.1201,4.0908,0.0,0.0,0.0,0.0,0.0,0.0,4.4628,4.5226,4.584,4.7322,4.7997,4.8369,4.8575,4.9336,4.9866,4.964,4.9992,5.0218,4.9967,5.0142,5.0293,5.0293,5.0293,5.0193,4.9967,4.9941,4.9841,4.9615,4.959,4.959,4.959,4.959,4.959,4.959,4.959,4.959,4.959,4.959,4.959,4.959,4.959,4.959,4.959,4.959,4.959,4.959,4.959,4.959,4.9565,4.9044,4.8435,4.7832,4.7048,4.6602,4.6301,4.6301,4.6301,4.6301,4.6301,4.6301,4.6301,4.6301,4.6301,4.6301,4.6301,4.6301,4.6301,4.6301,4.6301,4.6301,4.6301,4.6301,4.625,4.6024,4.5773,4.5372,4.4468,4.4091,4.394,4.394,4.3689,4.3564,4.389,4.33,4.2947,4.3413,4.299,4.2605,4.2557,4.2732,4.2642,4.2198,4.2567,4.2663,4.2164,4.2525,4.2477,4.1706,4.1875,4.1755,4.1196,4.1201,4.1201,4.1201,4.1201,4.1201,4.1201,4.1201,4.1076,4.0888,4.0888,4.0451,3.9489,3.9709,0.0,0.0,4.2496,0.0,4.4858,4.5889,4.6661,4.7302,4.8396,4.8937,4.8008,4.9088,4.9967,4.949,5.0419,5.1021,5.0569,5.0946,5.1306,5.1306,5.1306,5.1071,5.0569,5.0444,5.0218,4.9715,4.9615,4.959,4.959,4.959,4.959,4.959,4.959,4.959,4.959,4.959,4.959,4.959,4.954,4.954,4.959,4.954,4.954,4.959,4.959,4.959,4.9565,4.9044,4.8435,4.7807,4.6803,4.6346,4.6301,4.6301,4.6301,4.6301,4.6301,4.6301,4.6301,4.6301,4.6301,4.6301,4.6301,4.6301,4.6301,4.6301,4.6301,4.6301,4.6301,4.6276,4.61,4.5598,4.5045,4.4439,4.3915,4.3413,4.309,4.3014,4.3014,4.3014,4.3014,4.2709,4.2597,4.2902,4.2453,4.2082,4.2054,4.185,4.1565,4.1254,4.1682,4.1779,4.1249,4.2067,4.2212,4.1273,4.1658,4.1706,4.1225,4.1201,4.1201,4.1201,4.1201,4.1201,4.1201,4.1201,4.0908,4.0403,4.0403,3.9826,3.9705,4.0431,4.1359,4.1679,0.0,0.0,4.4878,4.5046,4.5404,4.6856,4.7043,4.7029,4.7199,4.7883,4.836,4.8259,4.9565,5.072,5.1071,5.1222,5.1306,5.1306,5.1306,5.1247,5.1122,5.0695,5.0336,5.0268,4.9841,4.959,4.959,4.959,4.959,4.959,4.959,4.959,4.959,4.959,4.959,4.959,4.917,4.9163,4.959,4.917,4.9163,4.959,4.959,4.959,4.9565,4.9044,4.8435,4.7857,4.7174,4.6672,4.6301,4.6301,4.6301,4.6301,4.6301,4.6301,4.6301,4.6301,4.6301,4.6301,4.6301,4.6301,4.6301,4.6301,4.6301,4.6301,4.6301,4.5974,4.5623,4.5522,4.5045,4.4439,4.3915,4.3714,4.3514,4.309,4.3014,4.3014,4.3014,4.2709,4.2513,4.2569,4.2312,4.2001,4.172,4.2,4.1977,4.1278,4.1682,4.1779,4.1249,4.1394,4.1442,4.1196,4.1297,4.1321,4.1196,4.1201,4.1201,4.1201,4.1201,4.1201,4.1201,4.1201,4.0908,4.0403,4.0403,3.9826,0.0,0.0,4.1646,4.2328,0.0,0.0,0.0,4.5153,4.5372,4.6471,4.6276,4.6075,4.6597,4.7124,4.7707,4.8259,4.9766,5.0946,5.128,5.1749,5.2,5.1724,5.1925,5.1875,5.1356,5.1021,5.0619,5.0042,4.9741,4.959,4.959,4.959,4.959,4.959,4.959,4.959,4.959,4.959,4.959,4.959,4.9314,4.9314,4.959,4.9314,4.9371,4.959,4.959,4.959,4.9565,4.9289,4.8837,4.8284,4.7732,4.7149,4.6697,4.6697,4.6522,4.6301,4.6301,4.6301,4.6301,4.6301,4.6301,4.6301,4.6301,4.6301,4.6301,4.6301,4.6301,4.6301,4.6301,4.5899,4.5422,4.5121,4.4618,4.4066,4.3514,4.3388,4.3313,4.3065,4.3014,4.3014,4.3014,4.2457,4.2146,4.2428,4.2029,4.1631,4.1606,4.1735,4.1663,4.1249,4.1442,4.1514,4.1196,4.1201,4.1201,4.1201,4.1201,4.1201,4.1201,4.1201,4.1201,4.1201,4.1201,4.1201,4.1201,4.0908,4.0523,3.9994,3.9994,3.9417,0.0,0.0,0.0,0.0,0.0,4.4028,0.0,0.0,0.0,4.5899,4.5723,4.5598,4.5924,4.6496,4.7255,4.819,0.0,0.0,0.0,5.1825,0.0,5.1975,5.2427,5.2377,5.1373,5.1029,5.0469,4.9665,4.9389,4.9364,4.959,4.959,4.959,4.959,4.959,4.959,4.959,4.949,4.949,4.959,4.9364,4.9314,4.9439,4.9439,4.9439,4.9439,4.954,4.959,4.959,4.959,4.9264,4.8768,4.8259,4.7682,4.7099,4.7099,4.6747,4.6301,4.6301,4.6301,4.6301,4.6301,4.6301,4.6301,4.6301,4.6301,4.6301,4.6301,4.6301,4.6301,4.6301,4.5899,4.5347,4.474,4.4192,4.3639,4.3115,4.3014,4.2986,4.293,4.2874,4.2846,4.2902,4.2231,4.1834,4.2259,4.1688,4.1287,4.1492,4.1344,4.1201,4.1201,4.1201,4.1201,4.1201,4.1201,4.1201,4.1201,4.1201,4.1201,4.1201,4.1201,4.1201,4.1201,4.1201,4.1201,4.1201,4.0643,4.0114,3.9609,3.9513,3.8936,0.0,0.0,0.0,0.0,4.3932,0.0,0.0,0.0,4.4715,4.4765,0.0,0.0,0.0,0.0,0.0,0.0,0.0,0.0,4.964,5.0318,5.087,5.1322,5.1875,5.195,5.1381,4.9974,4.9245,4.9565,4.8661,4.8535,4.954,4.959,4.959,4.959,4.959,4.959,4.959,4.9145,4.9145,4.959,4.8586,4.836,4.8894,4.8894,4.8894,4.8919,4.9389,4.959,4.959,4.959,4.9264,4.8793,4.8743,4.8033,4.7099,4.7099,4.6747,4.6301,4.6301,4.6301,4.6301,4.6301,4.6301,4.6301,4.6301,4.6301,4.6301,4.6301,4.6301,4.6301,4.6301,4.5899,4.5347,4.474,4.4192,4.3639,4.3115,4.3014,4.293,4.2597,4.2369,4.2284,4.2538,4.2284,4.1972,4.1749,4.143,4.1201,4.123,4.1201,4.1201,4.1201,4.1201,4.1201,4.1201,4.1201,4.1201,4.1201,4.1201,4.1201,4.1201,4.1201,4.1201,4.1201,4.1201,4.1201,4.1201,4.0643,4.0114,3.9609,3.9101,3.8575,0.0,0.0,0.0,0.0,0.0,0.0,0.0,0.0,4.3765,0.0,0.0,0.0,0.0,0.0,0.0,0.0,4.6677,0.0,0.0,0.0,4.9791,5.067,0.0,0.0,5.082,4.9597,4.8894,4.9145,4.836,4.8259,4.9095,4.9414,4.959,4.959,4.959,4.959,4.959,4.9364,4.9213,4.9145,4.8636,4.836,4.8284,4.8642,4.8793,4.8843,4.9364,4.959,4.959,4.959,4.9264,4.8793,4.8793,4.8109,4.7149,4.745,4.7023,4.6301,4.6301,4.6301,4.6301,4.6301,4.6301,4.6301,4.6301,4.6301,4.6301,4.6301,4.6301,4.6301,4.6301,4.5648,4.492,4.4665,4.3966,4.3263,4.3065,4.2874,4.2678,4.2513,4.2284,4.2057,4.1976,4.1773,4.1573,4.1606,4.1373,4.1201,4.1201,4.1201,4.1201,4.1201,4.1201,4.1201,4.1201,4.1201,4.1201,4.1201,4.1201,4.1201,4.1201,4.1201,4.1201,4.1201,4.0884,4.0739,4.0715,3.9898,3.9369,3.9152,3.8884,3.8503,4.2732,0.0,0.0,0.0,0.0,0.0,0.0,0.0,0.0,0.0,0.0,0.0,0.0,0.0,0.0,0.0,0.0,4.6075,0.0,4.7255,0.0,0.0,0.0,0.0,0.0,4.8611,4.809,4.8542,4.7732,4.7682,4.8743,4.9195,4.9439,4.959,4.959,4.959,4.959,4.9439,4.927,4.9019,4.8868,4.8592,4.8159,4.8736,4.8944,4.8843,4.9364,4.9515,4.9389,4.954,4.9088,4.8391,4.8693,4.8008,4.6948,4.7475,4.7104,4.6301,4.6301,4.6301,4.6301,4.6301,4.6301,4.6301,4.6301,4.62,4.6075,4.6075,4.5974,4.5819,4.5819,4.5217,4.4564,4.4414,4.379,4.3162,4.2928,4.2653,4.2428,4.2287,4.2114,4.1859,4.1521,4.1402,4.1344,4.1463,4.1316,4.1201,4.1201,4.1201,4.1201,4.1201,4.1052,4.098,4.098,4.0836,4.0739,4.0739,4.0739,4.0739,4.0739,4.0739,4.0739,4.0739,4.0379,4.0186,4.0186,3.9272,3.8788,3.8788,3.8671,3.8359,0.0,0.0,0.0,4.3855,0.0,0.0,0.0,0.0,4.3639,0.0,0.0,0.0,0.0,0.0,0.0,0.0,0.0,0.0,0.0,0.0,0.0,0.0,0.0,0.0,0.0,4.6527,4.625,0.0,4.6476,4.6502,4.8693,4.8818,4.9069,4.9565,4.959,4.959,4.959,4.9095,4.9095,4.9565,4.9069,4.8793,4.8793,4.9314,4.9264,4.8843,4.9364,4.9321,4.8868,4.9364,4.8636,4.7249,4.836,4.7782,4.6401,4.6923,4.6772,4.6301,4.6301,4.6301,4.6301,4.6301,4.6301,4.6301,4.6301,4.5949,4.5552,4.5552,4.5121,4.464,4.464,4.4614,4.4464,4.3966,4.379,4.3529,4.2693,4.2513,4.2316,4.1749,4.1635,4.1521,4.1258,4.143,4.1492,4.123,4.1201,4.1201,4.1201,4.1201,4.1201,4.1201,4.0739,4.0427,4.0427,3.9946,3.9657,3.9657,3.9657,3.9657,3.9657,3.9657,3.9657,3.9657,3.9633,3.9633,3.9633,3.9053,3.8788,3.8788,3.8262,3.8024,0.0,0.0,4.4294,4.3898,0.0,0.0,0.0,0.0,0.0,0.0,0.0,0.0,0.0,0.0,0.0,0.0,0.0,0.0,0.0,0.0,0.0,0.0,0.0,0.0,0.0,0.0,0.0,4.7324,4.6873,0.0,4.7657,4.8385,4.8894,4.9069,4.9414,4.959,4.959,4.9414,4.9213,4.9095,4.8894,4.8592,4.8209,4.8385,4.8385,4.8234,4.8812,4.8736,4.8234,4.8843,4.8284,4.7149,4.75,4.7129,4.6376,4.6898,4.6747,4.6301,4.6301,4.6301,4.6301,4.6301,4.6301,4.6301,4.6301,4.6175,4.5949,4.5598,4.5347,4.5095,4.469,4.4342,4.4041,4.384,4.3344,4.2874,4.2562,4.2174,4.1834,4.1635,4.1463,4.1195,4.0744,4.0728,4.0906,4.1153,4.1201,4.1201,4.1201,4.1201,4.1052,4.0691,4.0499,4.0258,3.9898,3.9705,3.9609,3.9609,3.9609,3.9609,3.9609,3.9609,3.9609,3.9609,3.9272,3.9053,3.9053,3.8527,3.8262,3.8262,3.807,3.8,4.4378,4.4601,0.0,4.4448,4.4373,0.0,4.3711,0.0,0.0,0.0,0.0,0.0,0.0,0.0,0.0,0.0,0.0,0.0,0.0,4.4518,0.0,0.0,0.0,0.0,0.0,4.6948,4.6597,4.6798,4.6622,4.6697,0.0,4.7983,4.8592,4.8793,4.9314,4.959,4.959,4.959,4.9414,4.9063,4.9063,4.8793,4.8209,4.8209,4.8109,4.7933,4.8542,4.8335,4.7682,4.846,4.8008,4.6823,4.7023,4.6772,4.6351,4.6672,4.6597,4.6301,4.6301,4.6301,4.6301,4.6301,4.6301,4.6301,4.6301,4.6024,4.5618,4.5271,4.4895,4.4518,4.4141,4.3765,4.3485,4.3372,4.2927,4.2428,4.2231,4.1863,4.1529,4.1221,4.1026,4.0739,4.021,4.0114,4.0234,4.0571,4.0787,4.0936,4.0936,4.0936,4.0763,4.0427,4.0066,3.9609,3.908,3.9032,3.9032,3.9032,3.9032,3.9032,3.9032,3.9032,3.9032,3.9032,3.8695,3.8527,3.8527,3.7741,3.7575,3.7974,3.7575,3.7361]},{"header":{"parameterUnit":"m.s-1","parameterCategory":1,"la1":30.6,"la2":29.2853,"lo1":-89.7004,"lo2":-87.6739,"dy":0.0162,"dx":0.0183,"nx":112,"ny":82,"refTime":"2024-09-04T12:00:00:Z","depth":0,"parameterNumber":3,"parameterNumberName":"V-component_of_WINDS"},"data":[0.0,0.0,0.0,0.0,0.0,0.0,0.0,0.0,0.0,0.0,0.0,0.0,0.0,0.0,0.0,0.0,0.0,0.0,0.0,0.0,0.0,0.0,0.0,0.0,0.0,0.0,0.0,0.0,0.0,0.0,0.0,0.0,0.0,0.0,0.0,0.0,0.0,0.0,0.0,0.0,0.0,0.0,0.0,0.0,0.0,0.0,0.0,0.0,0.0,0.0,0.0,0.0,0.0,0.0,0.0,0.0,0.0,0.0,0.0,0.0,0.0,0.0,0.0,0.0,0.0,0.0,0.0,0.0,0.0,0.0,0.0,0.0,0.0,0.0,0.0,0.0,0.0,0.0,0.0,0.0,0.0,0.0,0.0,0.0,0.0,0.0,0.0,0.0,0.0,0.0,0.0,2.2495,2.2706,2.2838,2.2838,2.2991,2.2752,2.1954,0.0,0.0,0.0,0.0,0.0,0.0,0.0,0.0,0.0,0.0,0.0,0.0,0.0,0.0,0.0,0.0,0.0,0.0,0.0,0.0,0.0,0.0,0.0,0.0,0.0,0.0,0.0,0.0,0.0,0.0,0.0,0.0,0.0,0.0,0.0,0.0,0.0,0.0,0.0,0.0,0.0,0.0,0.0,0.0,0.0,0.0,0.0,0.0,0.0,0.0,0.0,0.0,0.0,0.0,0.0,0.0,0.0,0.0,0.0,0.0,0.0,0.0,0.0,0.0,0.0,0.0,0.0,0.0,0.0,0.0,0.0,0.0,0.0,0.0,0.0,0.0,0.0,0.0,0.0,0.0,0.0,0.0,0.0,0.0,0.0,0.0,0.0,0.0,0.0,0.0,0.0,0.0,0.0,0.0,0.0,0.0,0.0,0.0,0.0,0.0,0.0,0.0,0.0,0.0,2.1993,2.2894,2.3035,2.3057,2.3057,2.3079,2.2752,2.1954,0.0,0.0,0.0,0.0,0.0,0.0,0.0,0.0,0.0,0.0,0.0,0.0,0.0,0.0,0.0,0.0,0.0,0.0,0.0,0.0,0.0,0.0,0.0,0.0,0.0,0.0,0.0,0.0,0.0,0.0,0.0,0.0,0.0,0.0,0.0,0.0,0.0,0.0,0.0,0.0,0.0,0.0,0.0,0.0,0.0,0.0,0.0,0.0,0.0,0.0,0.0,0.0,0.0,0.0,0.0,0.0,0.0,0.0,0.0,0.0,0.0,0.0,0.0,0.0,0.0,0.0,0.0,0.0,0.0,0.0,0.0,0.0,0.0,0.0,0.0,0.0,0.0,0.0,0.0,0.0,0.0,0.0,0.0,0.0,0.0,0.0,0.0,0.0,0.0,0.0,0.0,0.0,0.0,0.0,0.0,0.0,0.0,0.0,0.0,0.0,0.0,0.0,0.0,2.1923,2.2314,2.3023,2.3101,2.3101,2.3101,2.3101,2.2752,2.1954,2.125,0.0,0.0,0.0,0.0,0.0,0.0,0.0,0.0,0.0,0.0,0.0,0.0,0.0,0.0,0.0,0.0,0.0,0.0,0.0,0.0,0.0,0.0,0.0,0.0,0.0,0.0,0.0,0.0,0.0,0.0,0.0,0.0,0.0,0.0,0.0,0.0,0.0,0.0,0.0,0.0,0.0,0.0,0.0,0.0,0.0,0.0,0.0,0.0,0.0,0.0,0.0,0.0,0.0,0.0,0.0,0.0,0.0,0.0,0.0,0.0,0.0,0.0,0.0,0.0,0.0,0.0,0.0,0.0,0.0,0.0,0.0,0.0,0.0,0.0,0.0,0.0,0.0,0.0,0.0,0.0,0.0,0.0,0.0,0.0,0.0,0.0,0.0,0.0,0.0,0.0,0.0,0.0,0.0,0.0,0.0,0.0,0.0,0.0,0.0,0.0,0.0,0.0,2.2518,2.2771,2.3062,2.3101,2.3101,2.3101,2.2927,2.2498,2.1777,2.082,0.0,0.0,0.0,0.0,0.0,0.0,0.0,0.0,0.0,0.0,0.0,0.0,0.0,0.0,0.0,0.0,0.0,0.0,0.0,0.0,0.0,0.0,0.0,0.0,0.0,0.0,0.0,0.0,0.0,0.0,0.0,0.0,0.0,0.0,0.0,0.0,0.0,0.0,0.0,0.0,0.0,0.0,0.0,0.0,0.0,0.0,0.0,0.0,0.0,0.0,0.0,0.0,0.0,0.0,0.0,0.0,0.0,0.0,0.0,0.0,0.0,0.0,0.0,0.0,0.0,0.0,0.0,0.0,0.0,0.0,0.0,0.0,0.0,0.0,0.0,0.0,0.0,0.0,0.0,0.0,0.0,0.0,0.0,0.0,0.0,0.0,0.0,0.0,0.0,0.0,0.0,0.0,0.0,0.0,0.0,0.0,0.0,0.0,0.0,0.0,0.0,0.0,2.2596,2.3062,2.3081,2.3101,2.3101,2.3101,2.2401,2.1777,2.1268,2.0078,0.0,0.0,0.0,0.0,0.0,0.0,0.0,0.0,0.0,0.0,0.0,0.0,0.0,0.0,0.0,0.0,0.0,0.0,0.0,0.0,0.0,0.0,0.0,0.0,0.0,0.0,0.0,0.0,0.0,0.0,0.0,0.0,0.0,0.0,0.0,0.0,0.0,0.0,0.0,0.0,0.0,0.0,0.0,0.0,0.0,0.0,0.0,0.0,0.0,0.0,0.0,0.0,0.0,0.0,0.0,0.0,0.0,0.0,0.0,0.0,0.0,0.0,0.0,0.0,0.0,0.0,0.0,0.0,0.0,0.0,0.0,0.0,0.0,0.0,0.0,0.0,0.0,0.0,0.0,0.0,0.0,0.0,0.0,0.0,0.0,0.0,0.0,0.0,0.0,0.0,0.0,0.0,0.0,0.0,0.0,0.0,0.0,0.0,0.0,0.0,0.0,0.0,2.2362,2.283,0.0,2.3101,2.3101,2.3101,2.283,2.2225,2.1249,0.0,0.0,0.0,0.0,0.0,0.0,0.0,0.0,0.0,0.0,0.0,0.0,0.0,0.0,0.0,0.0,0.0,0.0,0.0,0.0,0.0,0.0,0.0,0.0,0.0,0.0,0.0,0.0,0.0,0.0,0.0,0.0,0.0,0.0,0.0,0.0,0.0,0.0,0.0,0.0,0.0,0.0,0.0,0.0,0.0,0.0,0.0,0.0,0.0,0.0,0.0,0.0,0.0,0.0,0.0,0.0,0.0,0.0,0.0,0.0,0.0,0.0,0.0,0.0,0.0,0.0,0.0,0.0,0.0,0.0,0.0,0.0,0.0,0.0,0.0,0.0,0.0,0.0,0.0,0.0,0.0,0.0,0.0,0.0,0.0,0.0,0.0,0.0,0.0,0.0,0.0,0.0,0.0,0.0,0.0,0.0,0.0,0.0,0.0,0.0,0.0,0.0,2.1758,2.248,2.2947,0.0,2.3101,2.3101,2.3101,2.2869,2.2225,2.1074,0.0,0.0,0.0,0.0,0.0,0.0,0.0,0.0,0.0,0.0,0.0,0.0,0.0,0.0,0.0,0.0,0.0,0.0,0.0,0.0,0.0,0.0,0.0,0.0,0.0,0.0,0.0,0.0,0.0,0.0,0.0,0.0,0.0,0.0,0.0,0.0,0.0,0.0,0.0,0.0,0.0,0.0,0.0,0.0,0.0,0.0,0.0,0.0,0.0,0.0,0.0,0.0,0.0,0.0,0.0,0.0,0.0,0.0,0.0,0.0,0.0,0.0,0.0,0.0,0.0,0.0,0.0,0.0,0.0,0.0,0.0,0.0,0.0,0.0,0.0,0.0,0.0,0.0,0.0,0.0,0.0,0.0,0.0,0.0,0.0,0.0,0.0,0.0,0.0,0.0,0.0,0.0,0.0,0.0,0.0,0.0,0.0,0.0,0.0,0.0,0.0,0.0,2.1857,2.3008,2.3633,2.3162,2.3123,2.3101,2.3101,2.2383,2.1544,0.0,0.0,0.0,0.0,0.0,0.0,0.0,0.0,0.0,0.0,0.0,0.0,0.0,0.0,0.0,0.0,0.0,0.0,0.0,0.0,0.0,0.0,0.0,0.0,0.0,0.0,0.0,0.0,0.0,0.0,0.0,0.0,0.0,0.0,0.0,0.0,0.0,0.0,0.0,0.0,0.0,0.0,0.0,0.0,0.0,0.0,0.0,0.0,0.0,0.0,0.0,0.0,0.0,0.0,0.0,0.0,0.0,0.0,0.0,0.0,0.0,0.0,0.0,0.0,0.0,0.0,0.0,0.0,0.0,0.0,0.0,0.0,0.0,0.0,0.0,0.0,0.0,0.0,0.0,0.0,0.0,0.0,0.0,0.0,0.0,0.0,0.0,0.0,0.0,0.0,0.0,0.0,0.0,0.0,0.0,0.0,0.0,0.0,0.0,0.0,0.0,0.0,0.0,2.2227,2.3184,2.375,2.3613,2.3472,2.3385,2.3385,2.3277,2.2607,2.1131,0.0,0.0,0.0,0.0,0.0,0.0,0.0,0.0,0.0,0.0,0.0,0.0,0.0,0.0,0.0,0.0,0.0,0.0,0.0,0.0,0.0,0.0,0.0,0.0,0.0,0.0,0.0,0.0,0.0,0.0,0.0,0.0,0.0,0.0,0.0,0.0,0.0,0.0,0.0,0.0,0.0,0.0,0.0,0.0,0.0,0.0,0.0,0.0,0.0,0.0,0.0,0.0,0.0,0.0,0.0,0.0,0.0,0.0,0.0,0.0,0.0,0.0,0.0,0.0,0.0,0.0,0.0,0.0,0.0,0.0,0.0,0.0,0.0,0.0,0.0,0.0,0.0,0.0,0.0,0.0,0.0,0.0,0.0,0.0,0.0,0.0,0.0,0.0,0.0,0.0,0.0,0.0,0.0,0.0,0.0,0.0,0.0,0.0,0.0,0.0,0.0,0.0,2.2549,2.3639,2.4256,2.3943,2.3729,2.3624,2.3624,2.3732,2.3136,2.1587,0.0,0.0,0.0,0.0,0.0,0.0,0.0,0.0,0.0,0.0,0.0,0.0,0.0,0.0,0.0,0.0,0.0,0.0,0.0,0.0,0.0,0.0,0.0,0.0,0.0,0.0,0.0,0.0,0.0,0.0,0.0,0.0,0.0,0.0,0.0,0.0,0.0,0.0,0.0,0.0,0.0,0.0,0.0,0.0,0.0,0.0,0.0,0.0,0.0,0.0,0.0,0.0,0.0,0.0,0.0,0.0,0.0,0.0,0.0,0.0,0.0,0.0,0.0,0.0,0.0,0.0,0.0,0.0,0.0,0.0,0.0,0.0,0.0,0.0,0.0,0.0,0.0,0.0,0.0,0.0,0.0,0.0,0.0,0.0,0.0,0.0,0.0,0.0,0.0,0.0,0.0,0.0,0.0,0.0,0.0,0.0,0.0,0.0,0.0,0.0,0.0,0.0,2.286,2.4251,2.4937,2.4269,2.3969,2.3841,2.3841,2.3841,2.334,2.211,0.0,0.0,0.0,0.0,0.0,0.0,0.0,0.0,0.0,0.0,0.0,0.0,0.0,0.0,0.0,0.0,0.0,0.0,0.0,0.0,0.0,0.0,0.0,0.0,0.0,0.0,0.0,0.0,0.0,0.0,0.0,0.0,0.0,0.0,0.0,0.0,0.0,0.0,0.0,0.0,0.0,0.0,0.0,0.0,0.0,0.0,0.0,0.0,0.0,0.0,0.0,0.0,0.0,0.0,0.0,0.0,0.0,0.0,0.0,0.0,2.6794,0.0,0.0,0.0,0.0,0.0,0.0,0.0,0.0,0.0,0.0,0.0,0.0,0.0,0.0,0.0,0.0,0.0,0.0,0.0,0.0,0.0,0.0,0.0,0.0,0.0,0.0,0.0,0.0,0.0,0.0,0.0,0.0,0.0,0.0,0.0,0.0,0.0,0.0,0.0,0.0,0.0,2.3532,2.452,2.5148,2.4979,2.4456,2.412,2.412,2.4271,2.3947,2.298,2.2486,0.0,0.0,0.0,0.0,0.0,0.0,0.0,0.0,0.0,0.0,0.0,0.0,0.0,0.0,0.0,0.0,0.0,0.0,0.0,0.0,0.0,0.0,0.0,0.0,0.0,0.0,0.0,0.0,0.0,0.0,0.0,0.0,0.0,0.0,0.0,0.0,0.0,0.0,0.0,0.0,0.0,0.0,0.0,0.0,0.0,0.0,0.0,0.0,0.0,0.0,0.0,0.0,0.0,0.0,0.0,0.0,0.0,0.0,0.0,0.0,2.8228,0.0,0.0,0.0,0.0,0.0,0.0,0.0,0.0,0.0,0.0,0.0,0.0,0.0,0.0,0.0,0.0,0.0,0.0,0.0,0.0,0.0,0.0,0.0,0.0,0.0,0.0,0.0,0.0,0.0,0.0,0.0,0.0,0.0,0.0,0.0,0.0,0.0,0.0,0.0,0.0,2.391,2.4893,2.5488,2.5351,2.4737,2.4357,2.4357,2.4443,2.4218,2.3577,2.3101,0.0,0.0,0.0,0.0,0.0,0.0,0.0,0.0,0.0,0.0,0.0,0.0,0.0,0.0,0.0,0.0,0.0,0.0,0.0,0.0,0.0,0.0,0.0,0.0,0.0,0.0,0.0,0.0,0.0,0.0,0.0,0.0,0.0,0.0,0.0,0.0,0.0,0.0,0.0,0.0,0.0,0.0,0.0,0.0,0.0,0.0,0.0,0.0,0.0,0.0,0.0,0.0,0.0,3.3958,3.3863,3.3622,3.4556,3.4766,3.423,3.2137,3.1759,3.248,3.0909,0.0,0.0,0.0,0.0,0.0,0.0,0.0,0.0,0.0,0.0,0.0,0.0,0.0,0.0,0.0,0.0,0.0,0.0,0.0,0.0,0.0,0.0,0.0,0.0,3.2089,3.2113,0.0,0.0,0.0,0.0,0.0,0.0,0.0,0.0,0.0,0.0,0.0,0.0,2.4484,2.5335,2.5807,2.5601,2.4935,2.4507,2.4507,2.4507,2.4363,2.4033,2.3721,2.3363,0.0,0.0,0.0,0.0,0.0,0.0,0.0,0.0,0.0,0.0,0.0,0.0,0.0,0.0,0.0,0.0,0.0,0.0,0.0,0.0,0.0,0.0,0.0,0.0,0.0,0.0,0.0,0.0,0.0,0.0,0.0,0.0,3.3427,3.356,0.0,0.0,0.0,0.0,0.0,0.0,0.0,0.0,0.0,0.0,0.0,0.0,0.0,3.6211,3.6647,3.6994,3.7228,3.7351,3.7812,3.8021,3.7975,3.8146,3.817,3.8046,3.7264,0.0,3.2622,3.2822,0.0,0.0,0.0,0.0,0.0,0.0,0.0,0.0,0.0,0.0,0.0,0.0,0.0,0.0,0.0,0.0,0.0,0.0,0.0,0.0,0.0,0.0,3.5677,3.5626,3.5701,3.5579,0.0,3.2038,2.9606,2.9241,2.8871,0.0,0.0,0.0,0.0,0.0,0.0,0.0,2.6088,2.601,2.5875,2.5852,2.5044,2.4507,2.4507,2.4507,2.4466,2.4404,2.474,2.491,2.4844,2.4729,0.0,0.0,0.0,0.0,0.0,0.0,0.0,0.0,0.0,0.0,0.0,0.0,0.0,0.0,0.0,0.0,0.0,0.0,0.0,0.0,0.0,0.0,0.0,0.0,0.0,0.0,0.0,0.0,0.0,3.3259,3.459,3.4678,3.5222,3.5076,0.0,0.0,0.0,0.0,0.0,0.0,0.0,0.0,0.0,3.6436,3.6359,3.659,3.7155,3.7388,3.7741,3.8215,3.8759,3.9173,3.9508,3.9965,3.9866,3.926,3.8867,3.7532,3.5587,3.5025,3.4213,3.3267,0.0,0.0,0.0,0.0,3.3348,3.3471,3.3743,3.3605,0.0,3.2729,0.0,0.0,0.0,0.0,0.0,0.0,0.0,0.0,0.0,0.0,3.5981,3.6306,3.6405,3.6331,3.6056,3.4674,3.3212,0.0,3.2101,3.159,2.9787,0.0,0.0,0.0,0.0,2.7367,2.7733,2.761,2.7459,2.7459,2.613,2.5421,2.5924,2.5505,2.5442,2.5924,2.616,2.6271,2.6271,2.6031,2.6007,0.0,0.0,0.0,0.0,0.0,0.0,0.0,0.0,0.0,0.0,0.0,0.0,0.0,0.0,0.0,0.0,0.0,0.0,0.0,0.0,0.0,0.0,0.0,0.0,0.0,0.0,0.0,0.0,3.4736,3.5875,3.6035,3.7016,3.707,0.0,0.0,0.0,0.0,0.0,0.0,3.75,3.7374,3.7503,3.8011,3.7753,3.7755,3.817,3.8015,3.8263,3.8917,3.9179,3.9518,3.9934,4.0572,4.0422,3.9637,3.9264,3.8777,3.8203,3.6792,3.6077,3.5844,3.5395,3.5196,3.5246,3.5604,3.5481,3.5253,3.6105,3.613,3.5656,3.5255,0.0,3.3972,3.3248,0.0,0.0,0.0,0.0,3.4527,3.5481,3.5732,3.5832,3.6281,3.6405,3.6405,3.6405,3.6428,3.6049,0.0,3.4628,3.4126,3.1662,0.0,0.0,0.0,0.0,2.9054,2.9269,2.9076,2.8857,2.8697,2.7306,2.6555,2.706,2.6504,2.64,2.7058,2.7345,2.7444,2.7444,2.7434,2.7684,2.8213,0.0,0.0,0.0,0.0,0.0,0.0,0.0,0.0,0.0,0.0,0.0,0.0,0.0,0.0,0.0,0.0,0.0,0.0,0.0,0.0,0.0,0.0,0.0,0.0,0.0,0.0,0.0,0.0,0.0,3.7776,3.8555,0.0,0.0,0.0,0.0,3.7099,3.7615,3.8043,3.8331,3.934,4.0034,4.023,4.0778,4.1065,4.1091,4.0517,4.0256,4.0306,3.981,3.9601,3.9627,3.9653,3.9653,3.9577,3.9,3.8884,3.901,3.7638,3.701,3.6987,3.6728,3.6609,3.6563,3.6425,3.6355,3.6329,3.638,3.638,3.6331,3.6306,3.5554,3.4753,3.5182,3.4628,0.0,0.0,3.5408,3.5558,3.6205,3.6331,3.638,3.6405,3.6405,3.6405,3.6405,3.657,3.6415,0.0,3.5433,3.4929,3.3266,0.0,3.1604,3.1272,3.0228,2.9762,3.0589,2.9958,2.927,2.8743,2.8216,2.769,2.7144,2.7058,2.7037,2.7098,2.7951,2.843,2.843,2.9374,2.9663,2.9125,2.9464,0.0,0.0,0.0,0.0,0.0,0.0,0.0,0.0,0.0,0.0,0.0,0.0,0.0,0.0,0.0,0.0,0.0,0.0,0.0,0.0,0.0,0.0,0.0,0.0,0.0,0.0,0.0,0.0,3.8347,3.9033,0.0,3.8358,3.8574,3.8891,3.9228,3.9436,3.9746,4.0234,4.0287,4.0311,4.0385,4.0254,4.0226,4.0226,3.9625,3.9311,3.9311,3.9105,3.9,3.905,3.9442,3.9599,3.9573,3.8972,3.877,3.8804,3.7956,3.7826,3.8159,3.7705,3.7435,3.7267,3.7221,3.6825,3.6405,3.6405,3.6405,3.6428,3.657,3.6432,3.6269,3.6472,3.6269,3.6037,3.6421,3.6523,3.6574,3.6801,3.6851,3.6851,3.6851,3.6851,3.6851,3.6851,3.6898,3.6868,3.6597,3.6523,3.6014,3.4357,3.4095,3.373,3.2534,3.2154,3.2118,3.2443,3.1758,3.1019,3.0504,2.9474,2.8848,2.884,2.8311,2.8231,2.8791,2.915,2.9326,2.9326,2.9812,3.0063,2.9966,2.9869,2.9199,0.0,0.0,0.0,0.0,0.0,0.0,0.0,0.0,0.0,0.0,0.0,0.0,0.0,0.0,0.0,0.0,0.0,0.0,0.0,0.0,0.0,0.0,0.0,0.0,0.0,0.0,3.8338,3.8661,3.9573,3.9939,3.9314,3.981,4.0306,4.0672,4.0698,4.0881,4.1273,4.0907,4.0698,4.0698,4.0359,4.015,4.015,3.9416,3.9,3.8998,3.8632,3.8449,3.8449,3.8817,3.9024,3.8998,3.8606,3.8527,3.8658,3.8135,3.8343,3.9015,3.8376,3.8027,3.786,3.7765,3.7289,3.664,3.664,3.664,3.6664,3.6805,3.6968,3.7108,3.7108,3.7108,3.7108,3.7108,3.7108,3.7108,3.7108,3.7108,3.7108,3.7108,3.7108,3.7108,3.7108,3.7155,3.7225,3.7225,3.7155,3.6698,3.5413,3.5292,3.4937,3.359,3.3454,3.3471,3.3407,3.2929,3.2395,3.1861,3.0906,3.0298,3.0342,2.9638,2.9534,3.0287,3.0005,2.9918,3.0153,3.0189,3.0292,3.0482,3.0328,3.0184,3.013,0.0,0.0,0.0,0.0,0.0,0.0,0.0,0.0,0.0,0.0,0.0,0.0,0.0,0.0,0.0,0.0,0.0,0.0,0.0,0.0,0.0,0.0,0.0,3.6985,3.8527,3.939,3.8817,4.0278,4.1038,4.0463,4.0959,4.1299,4.1299,4.1299,4.1299,4.1299,4.1299,4.1299,4.1299,4.1299,4.1299,4.1299,4.0202,3.9627,3.9625,3.8475,3.7926,3.7926,3.7926,3.79,3.79,3.79,3.8187,3.8608,3.8109,3.8579,3.9496,3.8735,3.8407,3.8383,3.8124,3.7646,3.7108,3.7108,3.7108,3.7108,3.7108,3.7108,3.7108,3.7108,3.7108,3.7108,3.7108,3.7108,3.7108,3.7108,3.7108,3.7108,3.7108,3.7108,3.7108,3.7108,3.7343,3.7505,3.7505,3.732,3.6952,3.6411,3.5824,3.5149,3.4437,3.3981,0.0,3.3428,3.3407,3.3204,3.2666,3.2361,3.1989,3.1457,3.0954,3.0859,3.1336,3.0427,3.0198,3.088,3.065,3.0579,3.0794,3.1021,3.1926,3.3551,0.0,0.0,0.0,0.0,0.0,0.0,0.0,0.0,0.0,0.0,0.0,0.0,0.0,0.0,0.0,0.0,0.0,0.0,0.0,0.0,0.0,3.7246,3.8057,3.8214,3.8658,3.934,4.0437,4.062,4.075,4.1012,4.1194,4.1299,4.1299,4.1299,4.1299,4.1299,4.1299,4.1299,4.1299,4.1716,4.1742,4.1299,4.0985,4.0594,4.015,3.9,3.8475,3.8475,3.8083,3.79,3.79,3.79,3.7978,3.8109,3.7978,3.8318,3.8948,3.9188,3.8912,3.8459,3.8753,3.812,3.7108,3.7108,3.7225,3.739,3.739,3.7528,3.7667,3.7667,3.7667,3.7667,3.7667,3.7667,3.7667,3.7667,3.7667,3.7667,3.7667,3.7667,3.7667,3.7667,3.7739,3.7785,3.7785,3.7739,3.7485,3.6913,3.6315,3.5721,3.5107,3.443,0.0,3.3894,3.3747,3.339,3.2869,3.2611,3.2258,3.1747,3.1544,3.1286,3.0859,3.1229,3.1292,3.0925,3.1935,3.2596,3.2802,3.348,3.4044,0.0,0.0,0.0,0.0,0.0,0.0,0.0,0.0,0.0,0.0,0.0,0.0,0.0,0.0,0.0,0.0,0.0,0.0,0.0,0.0,0.0,0.0,3.8135,3.8893,3.934,3.9627,4.0071,4.0829,4.0829,4.0907,4.1272,4.1299,4.1299,4.1299,4.1299,4.1299,4.1299,4.1299,4.1299,4.1299,4.1638,4.1638,4.1299,4.1038,4.075,4.0385,3.9705,3.9288,3.9052,3.8998,3.8817,3.8606,3.8344,3.8397,3.8579,3.8109,3.8214,0.0,0.0,0.0,0.0,0.0,3.8145,3.7436,3.7436,3.7528,3.7667,3.7667,3.7785,3.79,3.79,3.79,3.79,3.79,3.79,3.79,3.79,3.79,3.79,3.79,3.79,3.79,3.79,3.79,3.79,3.79,3.79,0.0,3.7456,3.6881,3.6257,3.56,3.5006,3.4474,3.4136,3.3958,3.3745,3.3431,3.3197,3.2923,3.2612,3.2378,0.0,0.0,0.0,3.2408,3.225,3.3214,0.0,0.0,0.0,0.0,0.0,0.0,0.0,0.0,3.998,4.0169,0.0,0.0,0.0,0.0,0.0,0.0,0.0,0.0,0.0,0.0,0.0,0.0,0.0,0.0,0.0,0.0,3.8553,3.9261,4.0332,4.0959,4.109,4.0592,4.0959,4.1299,4.1299,4.1299,4.1299,4.1299,4.1299,4.1299,4.1299,0.0,0.0,0.0,0.0,4.1376,4.1299,4.0853,4.0592,4.0489,4.0437,4.015,3.973,4.0176,4.0123,3.9677,3.9128,3.9207,3.9625,3.8527,3.8344,3.871,3.8608,3.8658,3.8658,3.8109,3.79,3.79,3.79,0.0,0.0,3.79,3.79,3.79,3.79,3.79,3.79,3.79,3.79,3.79,3.79,3.79,3.79,3.79,3.79,3.79,3.79,3.79,3.79,3.79,3.79,3.79,3.79,3.7403,3.6761,3.6041,3.5574,3.5039,3.4328,3.4178,3.4152,3.4152,0.0,0.0,3.3747,3.3357,3.3306,3.37,3.3404,3.3601,3.439,3.458,3.4989,3.5641,3.6822,3.8453,4.0555,4.1775,4.3108,4.4529,4.1494,4.108,0.0,0.0,0.0,0.0,0.0,0.0,0.0,0.0,0.0,0.0,0.0,0.0,0.0,0.0,0.0,3.9076,3.9705,4.0306,4.1012,4.1221,4.1247,4.1142,4.1221,4.1299,4.1299,4.1299,4.1299,4.1299,4.1299,4.1299,4.1299,4.1299,4.1299,4.1299,4.1768,4.1768,4.1299,4.1689,4.1611,4.1116,0.0,0.0,4.0228,4.0332,4.0332,4.0228,4.0123,4.0123,4.0176,3.9547,3.905,3.8658,3.8214,3.8318,3.8658,3.8109,3.79,3.79,3.79,3.79,3.79,3.79,3.79,3.79,3.79,3.79,0.0,3.79,3.79,3.79,3.79,3.79,3.79,3.79,3.79,3.79,3.79,3.79,3.79,3.79,3.79,3.79,3.79,3.7403,3.6937,3.6787,3.5944,3.5239,3.5091,3.4648,3.4335,3.4335,3.4147,3.4,3.4,3.4336,3.4302,3.3819,3.4298,3.5163,3.6396,3.6492,3.6915,3.7758,3.9324,4.0588,4.1469,4.3074,4.4125,4.4591,4.3913,4.3988,0.0,0.0,0.0,0.0,0.0,0.0,0.0,0.0,0.0,0.0,0.0,3.6671,3.6959,0.0,3.933,3.9908,4.0447,4.0939,4.1244,4.1299,4.1299,4.1299,4.1299,4.1299,4.1299,4.1299,4.1428,4.1716,4.1742,4.1873,4.2135,4.2135,4.2135,4.2135,4.2448,4.2474,4.2135,4.2448,4.2317,4.1742,4.1716,4.1403,4.0855,4.1167,4.1141,4.0829,4.0829,4.1036,4.1246,4.0697,3.9939,3.9128,3.8867,3.8579,3.8266,3.8004,3.79,3.79,3.79,3.79,3.79,3.79,3.79,3.79,3.79,3.79,3.79,3.79,3.79,3.79,3.79,3.79,3.79,3.79,3.79,3.79,3.79,3.79,3.79,3.79,3.79,3.79,3.79,3.7665,3.7351,3.7063,3.6515,3.594,3.5365,3.526,3.5025,3.445,3.4835,3.5006,3.4699,3.5193,3.5487,3.54,3.5773,3.643,3.7403,3.7456,3.7881,3.8776,4.03,4.1406,4.2138,4.3687,4.4496,4.4591,4.4591,4.4818,0.0,0.0,0.0,0.0,0.0,0.0,0.0,3.6131,3.6188,3.6937,3.7787,3.8425,3.849,3.9744,4.0718,4.0734,4.1193,4.1559,4.1636,4.1612,4.1612,4.1612,4.1559,4.1481,4.1481,4.1585,4.1847,4.2317,4.2369,4.2526,4.2971,4.2997,4.2997,4.2997,4.2997,4.2997,4.2997,4.2997,4.2788,4.2369,4.2788,4.2501,4.1638,4.2108,4.2082,4.1612,4.1612,4.1847,4.216,4.1664,4.088,3.9914,3.9784,3.9128,3.8214,3.8109,3.8057,3.8057,3.7952,3.79,3.79,3.79,3.79,3.79,3.79,3.79,3.79,3.79,3.79,3.79,3.79,3.79,3.79,3.79,3.79,3.79,3.79,3.79,3.79,3.79,3.79,3.79,3.79,3.79,3.7743,3.7246,3.709,3.6671,3.5757,3.5913,3.5757,3.4816,3.5547,3.5966,3.5652,3.6018,3.6541,3.7142,3.7168,3.7403,3.7874,3.8057,3.8571,3.9514,4.0795,4.1951,4.2921,4.4062,4.4591,4.4591,4.4685,4.493,3.6183,3.5996,3.6175,3.7246,3.7168,3.7355,0.0,3.9061,3.8731,4.0218,4.0321,4.0264,4.0657,4.1367,4.1906,4.191,4.2411,4.2813,4.2814,4.2814,4.2814,4.2814,4.2369,4.2107,4.2107,4.2526,4.284,4.2918,4.2892,4.2918,4.2997,4.2997,4.2997,4.2997,4.2997,4.2997,4.2997,4.2997,4.2971,4.2892,4.2971,4.2918,4.2814,4.2866,4.2866,4.2814,4.2814,4.2579,4.2186,4.2134,4.169,4.1038,4.0515,3.9939,3.934,3.8815,3.8632,3.8553,3.8083,3.79,3.79,3.79,3.79,3.79,3.79,3.79,3.79,3.79,3.79,3.79,3.79,3.79,3.79,3.79,3.79,3.79,3.79,3.79,3.79,3.79,3.79,3.79,3.79,3.79,3.7874,3.7821,3.7351,3.6959,3.6828,3.641,3.6044,3.5913,3.6018,3.6305,3.6776,3.6854,3.7168,3.7769,3.7795,3.7821,3.79,3.8639,3.9579,4.0675,4.1856,4.2981,4.4112,4.4438,4.4591,4.461,4.4968,4.5358,3.7037,3.7639,3.8257,3.8714,3.9127,3.9691,4.0579,4.0425,4.0271,4.0982,4.0979,4.1007,4.1551,4.243,4.297,0.0,4.3315,4.3721,4.3101,4.2997,4.2997,4.2997,4.3415,4.3572,4.3206,4.3389,4.3807,4.446,4.4512,4.4669,4.5009,4.5036,4.5036,4.5036,4.4722,4.4512,4.4512,4.4172,4.3807,4.352,4.352,4.3337,4.2997,4.2997,4.2997,4.2997,4.2997,4.2866,4.2683,4.3049,4.2814,4.2213,4.1664,4.1323,4.0957,3.9703,3.9233,3.9155,3.8579,3.837,3.8318,3.8004,3.79,3.79,3.79,3.79,3.79,3.79,3.79,3.79,3.79,3.79,3.79,3.79,3.79,3.79,3.79,3.79,3.79,3.79,3.79,3.79,3.79,3.79,3.79,3.79,3.7691,3.7403,3.7063,3.709,3.7142,3.7142,3.6828,3.6881,3.7482,3.7534,3.7639,3.7874,3.79,3.8125,3.8639,3.9099,4.0102,4.167,4.2408,4.3279,4.4316,4.4496,4.4591,4.4591,4.4761,4.5191,3.7824,3.8816,3.9591,3.968,4.0546,4.1486,4.1804,4.1715,4.1805,4.2445,4.2199,4.2076,4.2834,4.3822,4.4303,4.3689,4.4441,4.4801,4.3861,4.3572,4.3519,4.3702,4.4487,4.4932,4.4644,4.4618,4.4958,4.5794,4.5844,4.6055,4.6475,4.6501,4.6501,4.6501,4.6081,4.5844,4.5844,4.54,4.4931,4.4383,4.4383,4.4042,4.3467,4.3337,4.318,4.2997,4.318,4.3127,4.3049,4.3807,4.3676,4.2971,4.2761,4.2578,4.2264,4.0827,4.0122,3.9732,3.9155,3.8972,3.8867,3.8318,3.8135,3.8109,3.7952,3.8004,3.8135,3.8135,3.824,3.837,3.837,3.837,3.8344,3.8161,3.8135,3.8083,3.7926,3.79,3.79,3.79,3.79,3.79,3.79,3.79,3.79,3.79,3.79,3.7743,3.7299,3.7639,3.79,3.79,3.7508,3.7429,3.7874,3.79,3.79,3.79,3.8125,3.8526,3.9166,3.9885,4.0937,4.2356,4.2981,4.3663,4.4362,4.4515,4.4591,4.461,4.4818,4.5247,3.8444,3.9032,3.9597,4.0073,4.1082,4.2277,4.3454,4.3258,4.3511,4.5855,4.4835,4.3918,4.515,4.5858,4.6024,4.542,4.5946,4.6222,4.5608,4.502,4.4878,4.5452,4.5557,4.582,0.0,4.6423,4.6449,4.6475,4.6475,4.6475,4.6501,4.6501,4.6501,4.6501,4.6475,4.6475,4.6475,4.6449,4.6133,4.5557,4.5557,4.5243,4.4616,4.4095,4.3546,4.3023,4.3598,4.352,4.3075,4.4198,4.4016,4.3049,4.365,4.3467,4.2918,4.2343,4.1401,4.028,3.9782,3.9573,3.947,3.8893,3.8684,3.8579,3.8057,3.8266,3.8684,3.8684,3.9102,3.9547,3.9547,3.9547,3.9416,3.8791,3.8684,3.8527,3.8031,3.79,3.79,3.79,3.79,3.79,3.79,3.79,3.79,3.79,3.79,3.79,3.7874,3.79,3.79,3.79,3.7874,3.7874,3.79,3.79,3.79,3.79,3.8706,3.9166,3.921,4.1127,4.2336,4.26,4.3693,4.4362,4.4591,4.4591,4.4591,4.461,4.5395,4.5778,3.8939,4.0132,4.1341,4.1865,4.3285,4.4715,4.5437,4.5425,4.5393,4.5764,4.5029,4.4416,4.4778,4.5344,4.5681,4.5513,4.6682,4.7296,4.6249,4.6669,4.6816,4.6268,4.6865,0.0,0.0,0.0,0.0,4.6994,4.7048,4.7388,4.8172,4.7861,4.7809,4.8227,4.744,4.7048,4.7048,4.6656,4.6423,4.6186,4.5792,4.5478,4.5269,4.433,4.3807,4.3598,4.3807,4.3781,4.365,4.4381,4.4486,4.412,4.3964,4.3781,4.352,4.2944,4.2239,4.1428,4.0488,4.0123,4.0043,3.9494,3.9311,3.9261,3.9076,3.9155,3.9311,3.9311,3.9418,3.9599,3.9599,3.9599,3.9547,3.9364,3.9311,3.9259,3.9076,3.871,3.8449,3.8449,3.8135,3.79,3.79,3.79,3.79,3.79,3.79,3.79,3.79,3.79,3.79,3.79,3.79,3.79,3.79,3.79,3.79,3.79,3.8729,3.9497,4.0108,4.1649,4.2801,4.3517,4.417,4.4515,4.4591,4.4591,4.4591,4.461,4.5154,4.5541,3.9771,4.1311,4.2874,4.3393,4.4784,4.6203,4.6755,4.649,4.6158,4.6237,4.5384,4.4617,4.4565,4.5415,4.6125,4.6201,4.7306,4.8106,4.7839,4.7852,4.7764,4.7445,4.8097,4.8277,0.0,0.0,0.0,4.7623,4.7594,4.8068,4.9064,4.875,4.8698,4.9117,4.8355,4.7858,4.7594,4.7257,4.7024,4.6787,4.6212,4.5924,4.5898,4.514,4.4827,4.4827,4.4591,4.4487,4.4513,4.4643,4.4695,4.4696,4.433,4.4173,4.4121,4.3546,4.3101,4.2631,4.1455,4.0906,4.062,4.0071,3.9886,3.986,3.9677,3.9705,3.9886,3.9886,4.0043,4.0273,4.0634,4.073,4.0773,4.0914,4.0955,4.0807,4.0242,3.9826,3.9444,3.9095,3.8579,3.8187,3.8187,3.8031,3.8103,3.8778,3.8308,3.79,3.79,3.79,3.79,3.79,3.79,3.8037,3.8327,3.8372,3.8508,3.8841,3.9694,4.0518,4.1197,4.2438,4.3438,4.4104,4.4419,4.4591,4.4591,4.4837,4.496,4.4979,4.5528,4.5919,4.0986,4.2524,4.4099,4.4592,4.5664,4.6777,4.7448,4.6582,4.5977,4.7232,4.5934,4.4567,4.46,4.6043,4.7271,4.7454,4.794,4.8763,5.0073,4.8666,4.7885,0.0,0.0,0.0,0.0,0.0,0.0,4.8306,0.0,4.8489,4.9117,4.9139,4.9139,4.9139,4.9139,4.8826,4.8224,4.8227,4.7911,4.7333,4.6787,4.6554,4.6554,4.6527,4.6501,4.6475,4.5898,4.5635,4.5583,4.4982,4.48,4.4827,4.4748,4.4695,4.4643,4.4121,4.3939,4.3834,4.276,4.1948,4.1322,4.0697,4.0512,4.043,3.9933,4.0116,4.0535,4.0584,4.1002,4.1672,4.2622,4.284,4.2893,4.3342,4.3408,4.2993,4.1566,4.1245,4.0943,3.9984,3.9273,3.8807,3.8807,3.8388,3.8655,4.0402,3.918,3.8087,3.8037,3.8015,3.7969,3.7969,3.8015,3.8349,3.9121,3.9254,3.9673,4.0539,4.1499,4.2129,4.2333,4.3458,4.4154,4.4347,4.4588,4.4652,4.4591,4.533,4.5638,4.5626,4.6429,4.6803,4.2606,4.4081,4.5313,4.5999,4.7129,4.7972,4.767,4.7323,4.6885,4.6236,4.5701,4.5189,4.4671,4.6075,4.7274,4.7343,4.8587,0.0,4.9937,4.9952,0.0,4.9696,0.0,5.0106,4.9505,4.9453,0.0,0.0,4.8669,4.8646,4.9636,4.9688,4.9688,4.9688,4.9688,4.9427,4.8881,4.8407,4.812,4.7963,4.7388,4.7098,4.7072,4.6682,4.6501,4.6501,4.6316,4.6264,4.6212,4.5609,4.5374,4.5348,4.4878,4.4695,4.4669,4.4538,4.4758,4.5039,4.4769,4.3963,4.2954,4.2046,4.1951,4.2162,4.2027,4.2081,4.2358,4.3073,4.3425,4.3583,4.3867,4.3368,4.3002,4.3855,4.3499,4.307,4.3398,4.3148,4.2744,4.2491,4.1377,4.051,4.051,4.0353,4.0545,4.1253,4.0928,4.0482,3.9996,3.9304,3.8881,3.8881,3.9502,3.9716,3.9254,3.9847,4.0367,4.0582,4.1616,4.2468,4.3019,4.4258,4.4991,4.505,4.5736,4.5607,4.4591,4.5772,4.608,4.5626,4.6429,4.6803,4.3742,4.5051,4.6204,4.6925,4.765,4.806,4.7681,4.7157,4.6511,4.5761,4.5361,4.4976,4.4289,4.5887,4.7424,4.7786,4.9595,5.1125,5.1598,5.1733,5.1612,0.0,5.1128,0.0,5.0342,5.0289,5.0289,0.0,4.9483,4.9322,5.0237,5.0289,5.0289,5.0289,5.0289,4.9897,4.9117,4.8747,4.8463,4.8201,4.7858,4.7702,4.7702,4.7362,4.726,4.7234,0.0,4.6996,4.7181,4.6342,4.6131,4.6288,4.5687,4.5349,4.5087,4.5087,4.51,4.5128,4.5128,4.5133,4.4892,4.3406,4.273,4.2583,4.2752,4.2792,4.3009,4.4031,4.4312,4.4406,4.4846,4.454,4.4354,4.5372,4.519,4.4823,4.4938,4.4698,4.4237,4.355,4.2711,4.2154,4.2306,4.2008,4.2099,4.307,4.2537,4.2184,4.2615,4.0998,3.9826,3.9826,4.0303,4.056,4.0453,4.0901,4.1365,4.174,4.2487,4.3258,4.4004,4.4849,4.5487,4.5861,4.6329,4.6234,4.5484,4.6511,4.6696,4.6088,4.7181,4.7511,4.476,4.5868,4.688,4.7558,4.7681,4.7588,4.7496,4.648,4.5576,4.5484,4.4991,4.4419,4.386,4.5671,4.7544,4.8234,5.0353,5.2286,5.3332,5.3085,5.2712,5.2478,5.1939,5.1413,5.0943,5.089,5.089,5.089,5.042,5.0315,5.076,5.0864,5.089,5.089,5.0838,5.0289,4.9221,4.9143,4.8803,4.8201,4.8201,4.8201,4.8201,4.8201,4.8201,4.8146,4.7647,0.0,4.8123,4.705,4.695,4.7486,4.6936,4.6441,4.6051,4.6051,4.5764,4.5342,4.5342,4.6229,4.6985,4.476,4.3531,4.2995,4.3369,4.3444,4.366,4.4682,4.4906,4.5029,4.5924,4.5949,4.6054,4.7062,4.7222,4.6909,4.6166,4.5981,4.5537,4.4016,4.372,4.3799,4.4095,4.3534,4.355,4.5194,4.4094,4.3632,4.5117,4.2821,4.0993,4.0936,4.1015,4.1325,4.1964,4.2108,4.2546,4.3429,4.3717,4.4316,4.5262,4.5491,4.5964,4.6726,4.6819,4.6788,4.6603,4.7373,4.7404,4.6777,4.8153,4.849,4.661,4.7261,4.7588,4.8245,4.8019,4.7465,4.6911,4.6142,4.5453,4.4899,4.4683,4.4553,4.4458,4.604,4.7406,4.7486,4.9167,5.0657,5.1267,5.1273,5.1338,5.1705,5.1659,5.157,5.1465,5.1465,0.0,0.0,5.1361,5.1152,5.0812,5.1204,5.1465,5.1465,5.1021,5.0446,4.9766,4.9296,4.8803,4.8201,4.8201,4.8201,4.8201,4.8201,4.8201,4.8201,4.8068,0.0,4.8149,4.7466,4.7774,4.8727,4.8162,4.8108,4.8404,4.8404,4.8527,4.8745,4.8745,4.8936,4.8735,4.6059,4.5928,4.6838,4.6912,4.6931,4.7142,4.8142,4.8037,4.7644,4.7822,4.6844,4.6054,4.7062,4.666,4.6233,4.6909,4.704,4.6697,4.5589,4.538,4.5396,4.5459,4.537,4.5441,4.6032,4.5866,4.5565,4.5323,4.4158,4.3141,4.2649,4.3248,4.3228,4.2096,4.2659,4.3469,4.4399,4.4648,4.5414,4.6855,4.7088,4.7271,4.7434,4.7968,4.7711,4.6603,4.7835,4.806,4.7455,4.8353,4.8743,4.7569,4.7865,4.7865,4.8912,4.8112,4.7004,4.6665,4.5823,4.4991,4.4652,4.4591,4.4591,4.4591,4.6051,4.7366,4.7804,5.0043,5.1768,5.19,5.2544,5.294,5.262,5.2287,5.2067,5.2067,5.1779,5.1596,5.1596,5.1596,5.1492,5.123,5.2064,5.2872,5.3571,5.3329,5.2596,5.1316,5.1704,5.13,5.0065,5.0065,4.9905,4.9614,4.9583,4.9367,4.9074,4.9074,0.0,4.9019,4.8119,4.8446,4.9494,4.9196,4.9417,4.9957,4.9957,4.9648,4.9284,4.9284,4.9404,4.9357,4.8056,4.7546,4.7487,4.7717,4.7794,4.8004,4.9028,4.9067,4.8828,4.8828,4.8224,4.7644,4.779,4.7458,4.7141,4.7282,4.7578,4.7567,4.6741,4.6594,4.6594,4.6594,4.6594,4.6637,4.6804,4.6809,4.6689,4.6381,4.5959,4.5288,4.4284,4.4549,4.4512,4.3773,4.4225,4.475,4.5202,4.5526,4.6153,4.7232,4.7497,4.7773,4.8091,4.843,4.8276,4.765,4.8276,4.8266,4.7619,4.8624,4.8989,4.8327,4.845,4.8327,4.9404,4.8142,4.6603,4.6603,4.5576,4.4622,4.4776,4.4806,4.4868,4.4991,4.6224,4.7469,4.8215,5.082,5.2754,5.2896,5.4205,5.4814,5.3893,5.353,5.3217,5.2902,5.2598,0.0,5.2408,5.2408,5.2192,5.1627,5.2562,5.3571,5.4531,5.4826,5.4224,5.2615,5.3588,5.3313,5.1778,5.1542,5.13,5.1073,5.1043,5.0831,5.0486,5.0486,0.0,0.0,4.9331,4.9617,5.0657,5.0657,5.1011,5.1518,5.1518,5.0831,4.9887,4.9744,4.9873,5.0131,4.9985,4.9044,4.804,4.8417,4.8536,4.8699,4.9491,4.9606,4.9486,4.9486,4.9396,4.9179,4.8648,4.8528,4.8379,4.7848,4.8027,4.8147,4.7608,4.7519,4.7519,4.7519,4.7638,4.7668,4.7549,4.7519,4.7459,4.7309,4.7309,4.689,4.5843,4.5603,4.5454,4.5304,4.5531,4.5786,4.5978,4.6326,4.6824,4.7558,4.7733,4.806,4.8583,4.8583,4.8583,4.8583,4.8583,4.8327,4.7835,4.8828,4.9219,4.9189,4.9549,4.9549,4.9672,4.8142,4.6603,4.6603,4.5576,4.4776,4.5391,4.5515,4.568,4.6296,4.7046,4.7714,4.8161,4.9886,5.162,5.2809,5.4375,5.52,5.4728,5.5504,5.5534,5.4341,5.4738,5.5032,5.5032,5.5032,5.4024,5.1721,5.1721,5.1846,5.1944,5.3086,5.3332,5.2615,5.2734,5.2464,5.1778,5.0651,5.0628,5.1725,5.1696,5.2003,5.2434,5.2434,0.0,0.0,5.1401,5.2054,5.3069,5.3069,5.3399,5.3893,5.3893,5.3441,5.2727,5.2131,5.1941,5.1864,5.1267,5.0958,5.0851,5.0886,5.0879,5.0903,5.1003,5.0578,5.0129,5.0129,4.9703,4.9277,4.9217,4.9187,4.9187,4.9127,4.8678,4.8267,4.8207,4.8229,4.8229,4.8229,4.8708,4.8917,4.8319,4.8229,4.7967,4.7369,4.7309,4.7249,4.713,4.657,4.5942,4.5334,4.5531,4.6029,4.682,4.7078,4.761,4.847,4.8491,4.8522,4.8583,4.8583,4.8583,4.8583,4.8583,4.8553,4.8512,4.9046,4.947,4.9805,5.0297,5.0297,5.0297,4.9035,4.7588,4.6788,4.6172,4.5761,4.5638,4.5926,4.6265,4.6542,4.7252,4.8061,4.8944,5.0027,5.1308,5.2859,5.374,5.4457,5.4967,5.5426,5.5624,0.0,0.0,5.5062,5.4293,5.4973,5.4619,5.2842,5.4176,5.5298,5.6079,5.6622,5.6365,5.5394,5.6136,5.6021,5.5054,5.4539,5.4399,5.4545,5.4516,5.4229,5.3724,5.3724,0.0,0.0,5.1973,5.235,5.3413,5.3413,5.3972,5.479,5.479,5.4371,5.3773,5.3503,5.3144,5.2755,5.2486,5.2396,5.2247,5.1445,5.1475,5.1738,5.1295,5.0996,5.0817,5.0817,5.0308,4.9853,4.9853,4.9853,4.9733,4.9366,4.9374,4.9344,4.8977,4.8887,4.8887,4.8887,4.9127,4.9187,4.8947,4.8558,4.8199,4.7938,4.7549,4.7309,4.7309,4.7048,4.68,4.6531,4.6713,4.7066,4.756,4.78,4.81,4.8583,4.8583,4.8583,4.8583,4.8583,4.8583,4.8583,4.8583,4.8583,4.8604,4.879,4.9117,4.9897,5.0543,5.0759,5.0944,4.9805,4.8337,4.7404,4.688,4.6511,4.6234,4.6573,4.7004,4.7434,4.8028,4.8776,4.9907,5.0764,5.1793,5.3327,5.4307,5.5087,5.5794,5.6336,5.6679,5.6757,5.6593,5.6108,5.5209,5.5992,5.6108,5.518,5.6821,5.7832,5.8,5.8331,5.8109,5.7187,5.8081,5.8081,5.7187,5.6821,5.656,5.6372,5.6344,5.5781,5.4931,5.4931,0.0,0.0,5.3071,5.3203,5.3938,5.3938,5.4432,5.5179,5.5179,5.491,5.4461,5.4281,5.3892,5.3443,5.3258,5.3348,5.3264,5.2157,5.2127,5.2366,5.1654,5.1355,5.1206,5.1206,5.0847,5.0518,5.0518,5.0518,5.0368,4.9942,5.0062,5.0069,4.9643,4.9576,4.9576,4.9576,4.9726,4.9786,4.9606,4.9164,4.8805,4.8618,4.7997,4.7608,4.7608,4.7429,4.7309,4.7309,4.7473,4.7709,4.7986,4.8197,4.8406,4.8583,4.8583,4.8696,4.8912,4.8943,4.9035,4.922,4.922,4.922,4.922,4.9035,4.9068,4.9312,5.0174,5.0851,5.1528,5.0122,4.8583,4.8583,4.7558,4.6788,4.7434,4.7588,4.8019,4.9426,4.9703,4.9963,5.0847,5.204,5.3304,5.4418,5.659,5.7916,5.7519,5.9003,5.9529,5.8232,5.866,5.9045,5.9045,5.9045,0.0,5.9045,5.9072,5.7972,5.5528,5.6622,5.7187,5.7187,5.7187,5.7187,5.7216,5.5992,5.5737,5.6316,5.6316,5.6273,5.6166,0.0,0.0,0.0,5.5154,5.5154,5.5179,5.5179,5.5179,5.5179,5.5179,5.5179,5.5089,5.4431,5.4221,5.4072,5.3438,5.3653,5.4072,5.3384,5.3198,5.3049,5.2366,5.1708,5.1206,5.1206,5.1176,5.1176,5.1176,5.1176,5.1176,5.1176,5.0667,5.0196,5.0196,5.0196,5.0196,5.0196,5.0757,5.0966,5.0285,5.0166,4.9949,4.9366,4.8708,4.8289,4.8289,4.7698,4.7309,4.7309,4.7473,4.7709,4.7986,4.8197,4.8406,4.8583,4.8583,4.8943,4.9672,4.9703,5.0041,5.0667,5.0667,5.0667,5.0667,5.0011,4.9532,4.8019,4.8758,4.922,4.8974,4.8737,4.8337,4.7434,4.7989,4.8656,4.8337,4.9066,4.9835,5.0297,5.0498,5.1011,5.2353,5.2876,5.3615,5.5038,5.6496,5.7378,5.7235,5.8521,5.9235,0.0,0.0,5.8743,5.7887,5.8607,5.8716,5.786,5.8634,5.8716,5.7944,5.8303,5.8495,5.8495,5.8495,5.8495,5.8468,5.811,5.7786,5.752,5.752,5.705,0.0,0.0,0.0,0.0,5.5179,5.5179,5.5179,5.5179,5.5179,5.5179,5.5179,5.5179,5.5149,5.497,5.488,5.485,5.4665,5.47,5.485,5.461,5.4251,5.3653,5.2516,5.2067,5.1798,5.1325,5.1206,5.1206,5.1206,5.1206,5.1206,5.1206,5.1026,5.0877,5.0877,5.0877,5.0877,5.0877,5.1056,5.1116,5.0907,5.0488,5.0129,4.992,4.9374,4.8977,4.8977,4.8798,4.8319,4.7369,4.7374,4.777,4.8632,4.8739,4.9145,4.9999,5.0051,5.0143,5.0359,5.0389,5.0482,5.0697,5.0697,5.0451,5.0011,4.9281,4.8882,4.7034,4.7711,4.8245,4.8358,4.8512,4.8522,4.8204,4.8943,4.9641,4.9435,5.0018,5.0629,5.0874,5.1155,5.1698,5.2838,5.3422,5.4144,5.5375,5.6779,5.7847,5.8357,5.882,0.0,0.0,5.9099,5.8771,5.797,5.8662,5.8743,5.797,5.8662,5.9099,5.9099,5.9099,5.9099,5.9099,5.9099,5.9099,5.9099,5.9099,5.877,5.8085,5.7842,5.7154,0.0,0.0,0.0,0.0,5.5807,5.5777,5.5593,5.5593,5.5418,5.5179,5.5179,5.5179,5.5179,5.5179,5.5179,5.5179,5.5179,5.5179,5.5179,5.5179,5.473,5.4042,5.3204,5.2606,5.2097,5.1708,5.1385,5.1206,5.1206,5.1206,5.1206,5.1206,5.1206,5.1206,5.1206,5.1206,5.1206,5.1206,5.1206,5.1206,5.1206,5.0847,5.0578,5.0578,5.0032,4.9643,4.9643,4.9426,4.8947,4.8139,4.8115,4.8394,4.8957,4.9287,4.987,5.0667,5.0697,5.082,5.1067,5.1067,5.119,5.1436,5.119,5.0728,5.0051,4.9343,4.8881,0.0,4.7045,4.7835,4.9127,4.9014,4.8922,5.0236,5.0174,0.0,5.0676,5.0677,5.0739,5.1389,5.1827,5.222,5.2765,5.3893,5.4978,5.5666,5.7385,5.91,6.0431,5.9708,0.0,5.9126,5.9099,5.9099,5.9099,5.9099,5.9099,5.9099,5.9099,5.9099,5.9099,5.9099,5.9099,5.9099,5.9099,5.9099,5.9099,5.9099,5.8713,5.7995,5.7393,5.6765,0.0,0.0,0.0,0.0,5.6881,5.6765,5.6252,5.6222,5.5833,5.5294,5.5209,5.5179,5.5179,5.5179,5.5179,5.5179,5.5179,5.5179,5.5179,5.5179,5.476,5.4281,5.4221,5.3294,5.2336,5.2276,5.1768,5.1265,5.1265,5.1236,5.1206,5.1206,5.1206,5.1206,5.1206,5.1206,5.1206,5.1206,5.1206,5.1206,5.1206,5.1206,5.1206,5.1206,5.0667,5.0255,5.0255,4.9763,4.9426,4.9366,4.9509,4.946,4.917,4.9883,5.0498,5.082,5.082,5.1128,5.1775,5.1775,5.2082,5.2676,5.2021,5.1344,5.0667,5.0011,4.9281,4.6333,0.0,4.6871,4.7048,4.7866,4.8676,0.0,5.0205,5.1339,5.1815,5.2434,5.3032,5.3491,5.3533,5.386,5.4946,5.5706,5.636,5.7023,5.7988,5.9077,6.0373,5.9681,5.918,5.9395,5.9207,5.9099,5.9099,5.9099,5.9099,5.9099,5.9099,5.9099,5.9099,5.9099,5.9099,5.9099,5.9099,5.9099,5.9099,5.9099,5.8471,5.7334,5.7154,5.6765,0.0,0.0,0.0,5.6885,5.7034,5.7004,5.6825,5.6372,5.6102,5.5893,5.5414,5.5179,5.5179,5.5179,5.5179,5.5179,5.5179,5.5179,5.5179,5.5179,5.5089,5.485,5.4341,5.3982,5.3623,5.3109,5.2456,5.1977,5.1977,5.1565,5.1206,5.1206,5.1206,5.1206,5.1206,5.1206,5.1206,5.1206,5.1206,5.1206,5.1206,5.1206,5.1206,5.1206,5.1056,5.0966,5.0966,5.0817,5.0571,5.0039,4.9621,4.9696,5.0462,5.0711,5.1239,5.2183,5.2236,5.2298,5.246,5.246,5.2544,5.2676,5.2021,5.1344,5.0667,5.0011,4.9281,4.7548,4.7855,4.806,4.8275,4.9166,5.0131,5.0638,5.1256,5.1901,5.2604,5.3162,5.3691,5.4249,5.4409,5.4795,5.5772,5.64,5.7374,5.9105,5.9409,5.9899,6.1234,6.0159,5.9395,0.0,5.9342,5.9153,5.9261,5.918,5.9099,5.9099,5.9099,5.9099,5.9099,5.9099,5.9099,5.9099,5.9099,5.9099,5.9099,5.9099,5.871,5.8022,5.7693,5.7393,0.0,0.0,0.0,5.7573,5.7902,5.7842,5.7513,5.6855,5.6432,5.6132,5.5474,5.5179,5.5179,5.5179,5.5179,5.5179,5.5179,5.5179,5.5179,5.5179,5.5179,5.5119,5.476,5.4431,5.4132,5.3743,5.3144,5.2665,5.2665,5.2157,5.1678,5.1678,5.1439,5.1206,5.1206,5.1206,5.1206,5.1206,5.1206,5.1206,5.1206,5.1206,5.1206,5.1206,5.1206,5.1206,5.1206,5.1206,5.1056,5.0697,5.0361,5.0388,5.0978,5.1476,5.206,5.2676,5.2676,5.2676,5.2676,5.2676,5.2676,5.2676,5.2021,5.1498,5.1128,5.0451,4.9928,4.9139,5.0002,5.0636,5.0746,5.1476,5.2354,5.3162,5.2725,5.2446,5.3392,5.3705,5.4034,5.4738,5.5219,5.5718,5.6412,5.7081,5.8435,6.1049,6.0778,6.0752,6.1882,6.052,0.0,5.988,5.9426,5.918,5.9422,5.9234,5.9099,5.9099,5.9099,5.9099,5.9099,5.9099,5.9099,5.9099,5.9099,5.9099,5.9099,5.9099,5.9069,5.8949,5.8354,5.8085,5.8085,0.0,0.0,5.8294,5.889,5.871,5.8025,5.7363,5.6731,5.6132,5.5474,5.5179,5.5179,5.5179,5.5179,5.5179,5.5179,5.5179,5.5179,5.5179,5.5179,5.5179,5.5179,5.479,5.4371,5.4371,5.3862,5.3348,5.3348,5.2845,5.2306,5.2217,5.1768,5.1325,5.1206,5.1206,5.1206,5.1206,5.1206,5.1206,5.1206,5.1206,5.1206,5.1206,5.1206,5.1206,5.1206,5.1206,5.1206,5.1206,5.1253,5.1222,5.116,5.2054,5.2639,5.2676,5.2676,5.2676,5.2676,5.2676,5.2676,5.2676,5.2144,5.1805,5.1682,5.1128,5.079,4.9726,5.2395,5.4191,5.1807,5.2725,5.4129,5.3737,5.3945,5.439,5.4891,5.5678,5.6388,5.6874,5.7442,5.812,5.8792,5.9464,6.0228,0.0,0.0,6.013,6.0343,0.0,5.9261,5.9556,5.9288,5.9126,5.9153,5.9126,5.9099,5.9099,5.9099,5.9099,5.9099,5.9099,5.9099,5.9099,5.9099,5.9099,5.9099,5.9099,5.88,5.8234,5.8145,5.8085,5.8085,0.0,5.8414,5.8949,5.9069,5.871,5.8025,5.7363,5.6731,5.6132,5.5474,5.5179,5.5179,5.5179,5.5179,5.5179,5.5179,5.5179,5.5179,5.5179,5.5179,5.5179,5.5179,5.5119,5.5029,5.5029,5.4551,5.4042,5.4042,5.3533,5.2899,5.2306,5.2127,5.1887,5.1295,5.1206,5.1206,5.1206,5.1206,5.1206,5.1206,5.1206,5.1206,5.1206,5.1206,5.1206,5.1206,5.1206,5.1206,5.1206,5.1416,5.1611,5.1827,5.201,5.2299,5.2676,5.2676,5.2676,5.2676,5.2676,5.2676,5.2676,5.2583,5.2267,5.1713,5.159,5.1251,5.0125,5.2516,5.4553,5.4336,5.6166,5.7789,5.6966,5.6572,5.6381,5.6445,5.6647,5.6977,5.7531,5.7875,5.855,5.9937,6.1011,6.1809,6.2116,6.1355,6.0772,0.0,0.0,5.9422,5.9747,5.9342,5.9153,5.9315,5.918,5.9099,5.9099,5.9099,5.9099,5.9099,5.9099,5.9099,5.9099,5.9099,5.9099,5.9099,5.9099,5.8949,5.865,5.865,5.865,5.865,0.0,5.883,5.9099,5.9099,5.871,5.8025,5.7363,5.6731,5.6132,5.5474,5.5179,5.5179,5.5179,5.5179,5.5179,5.5179,5.5179,5.5179,5.5179,5.5179,5.5179,5.5179,5.5179,5.5179,5.5179,5.497,5.473,5.473,5.4221,5.3653,5.3354,5.2995,5.2546,5.1887,5.1738,5.1648,5.1265,5.1206,5.1206,5.1206,5.1206,5.1206,5.1206,5.1206,5.1206,5.1206,5.1206,5.1206,5.1206,5.1433,5.1757,5.2155,5.2291,5.2481,5.2676,5.2676,5.2676,5.2676,5.2676,5.2676,5.2676,5.2676,5.2544,5.2236,5.2236,5.2082,5.0426,5.2346,5.4337,5.6108,5.8233,5.9819,5.9737,5.8729,5.7876,5.8137,5.793,5.7894,5.8418,5.8756,5.9408,6.0824,6.2025,6.2798,6.2798,6.1848,6.1141,6.1061,6.0126,5.9583,5.9773,5.9372,5.918,5.9395,5.9207,5.9099,5.9099,5.9099,5.9099,5.9099,5.9099,5.9099,5.9099,5.9099,5.9099,5.9099,5.9099,5.9099,5.9099,5.9099,5.9099,5.9099,5.9099,5.9099,5.9099,5.9099,5.862,5.7786,5.7304,5.6641,5.5893,5.5414,5.5179,5.5179,5.5179,5.5179,5.5179,5.5179,5.5179,5.5179,5.5179,5.5179,5.5179,5.5179,5.5179,5.5179,5.5179,5.5179,5.5179,5.5179,5.482,5.4401,5.4227,5.3803,5.3234,5.2546,5.2306,5.2037,5.1505,5.1295,5.1206,5.1206,5.1206,5.1206,5.1206,5.1206,5.1206,5.1206,5.1206,5.1229,5.1299,5.1556,5.1849,5.2284,5.2563,5.2676,5.2676,5.2676,5.2676,5.2676,5.2676,5.2676,5.2676,5.2676,5.2676,5.2676,5.2676,5.2676,5.0664,5.2917,5.4799,5.5592,5.6447,5.7709,6.0152,5.9193,5.8325,6.0152,6.0547,6.0517,6.0578,6.1594,6.2275,6.1809,6.2333,6.2798,6.2798,0.0,6.039,6.013,5.975,5.9422,5.918,5.9126,5.9099,5.9126,5.9099,5.9099,5.9099,5.9099,5.9099,5.9099,5.9099,5.9099,5.9099,5.9099,5.9099,5.9099,5.9099,5.9099,5.9099,5.9099,5.9099,5.9099,5.9099,5.9099,5.9099,5.9099,5.8351,5.7154,5.7124,5.6346,5.5294,5.5209,5.5179,5.5179,5.5179,5.5179,5.5179,5.5179,5.5179,5.5179,5.5179,5.5179,5.5179,5.5179,5.5179,5.5179,5.5179,5.5179,5.5179,5.5179,5.5149,5.497,5.4341,5.4162,5.3922,5.3258,5.2606,5.2187,5.2127,5.1594,5.1206,5.1206,5.1206,5.1206,5.1206,5.1206,5.1206,5.1206,5.1206,5.1293,5.1549,5.181,5.2063,5.2284,5.2563,5.2676,5.2676,5.2676,5.2676,5.2676,5.2676,5.2676,5.2676,5.2676,5.2676,5.2676,5.2676,5.2676,5.0454,5.2762,5.4952,5.6108,5.7217,5.8541,6.0363,6.0517,6.0609,6.1809,6.1379,6.0547,5.9686,6.0978,6.1963,6.1286,6.2086,6.2645,6.224,6.1378,6.0574,6.0047,5.956,5.9207,5.9099,5.9099,5.9099,5.9099,5.9099,5.9099,5.9099,5.9099,5.9099,5.9099,5.9099,5.9099,5.9099,5.9099,5.9099,5.9099,5.9099,5.9099,5.9099,5.9099,5.9099,5.9099,5.9099,5.9099,5.9099,5.9099,5.856,5.7663,5.6825,5.6252,5.5773,5.5329,5.5179,5.5179,5.5179,5.5179,5.5179,5.5179,5.5179,5.5179,5.5179,5.5179,5.5179,5.5179,5.5179,5.5179,5.5179,5.5179,5.5179,5.5179,5.5179,5.5119,5.488,5.482,5.461,5.3952,5.3623,5.3324,5.2875,5.2276,5.1828,5.1828,5.1468,5.1206,5.1206,5.1206,5.1206,5.1206,5.1339,5.1579,5.181,5.2063,5.2314,5.2541,5.2631,5.2676,5.2676,5.2676,5.2676,5.2676,5.2676,5.2676,5.2676,5.2676,5.2676,5.2676,5.2676,5.2676,5.0835,5.2938,5.5076,5.6724,5.7956,5.9218,6.0763,6.1317,6.1809,6.2891,6.2056,6.0701,5.9372,6.0393,6.1348,0.0,6.1748,6.2306,6.1871,6.1308,6.0685,6.0073,5.964,5.9318,5.9126,5.9099,5.9099,5.9099,5.9099,5.9099,5.9099,5.9099,5.9099,5.9099,5.9099,5.9099,5.9099,5.9099,5.9099,5.9099,5.9099,5.9099,5.9099,5.9099,5.9099,5.9099,5.9099,5.9099,5.9099,5.9099,5.871,5.7965,5.6701,5.6192,5.6132,5.5474,5.5179,5.5179,5.5179,5.5179,5.5179,5.5179,5.5179,5.5179,5.5179,5.5179,5.5179,5.5179,5.5179,5.5179,5.5179,5.5179,5.5179,5.5179,5.5179,5.5179,5.5179,5.5179,5.5059,5.461,5.4341,5.4072,5.3593,5.2965,5.2516,5.2516,5.1947,5.1528,5.1528,5.1325,5.1206,5.1206,5.1339,5.1602,5.1834,5.2086,5.2306,5.2563,5.2653,5.2676,5.2676,5.2676,5.2676,5.2676,5.2676,5.2676,5.2676,5.2676,5.2676,5.2676,5.2676,5.2676,5.2015,5.35,5.5199,5.7278,5.8325,5.9372,6.1348,6.1286,6.1379,6.3383,6.2737,6.1409,6.0055,6.0332,0.0,6.0794,6.1348,6.1809,6.1809,6.1225,6.0617,6.0039,5.999,5.9747,5.9153,5.9099,5.9099,5.9099,5.9099,5.9099,5.9099,5.9099,5.9099,5.9099,5.9099,5.9099,5.9099,5.9099,5.9099,5.9099,5.9099,5.9099,5.9099,5.9099,5.9099,5.9099,5.9099,5.9099,5.9099,5.9099,5.871,5.7965,5.6731,5.6222,5.6132,5.5474,5.5179,5.5179,5.5179,5.5179,5.5179,5.5179,5.5179,5.5179,5.5179,5.5179,5.5179,5.5179,5.5179,5.5179,5.5179,5.5179,5.5179,5.5179,5.5179,5.5179,5.5179,5.5179,5.5179,5.5179,5.467,5.4221,5.4221,5.3653,5.3228,5.3228,5.2636,5.2217,5.2187,5.1594,5.1206,5.1206,5.1206,5.1323,5.1572,5.1834,5.2086,5.2284,5.2563,5.2676,5.2676,5.2676,5.2676,5.2676,5.2676,5.2676,5.2676,5.2676,5.2676,5.2676,5.2676,5.2676,5.1348,5.3268,5.5561,5.617,5.8639,6.0948,6.1071,6.1686,6.2394,6.2952,6.2768,6.1963,6.0116,6.0332,0.0,6.0178,6.0671,6.1101,6.1101,6.0608,6.0171,6.0043,5.9613,5.9288,5.9126,5.9099,5.9099,5.9099,5.9099,5.9099,5.9099,5.9099,5.9099,5.9099,5.9099,5.9099,5.9099,5.9099,5.9099,5.9099,5.9099,5.9099,5.9099,5.9099,5.9099,5.9099,5.9099,5.9099,5.9099,5.9099,5.8979,5.868,5.7334,5.6825,5.6701,5.5598,5.5179,5.5179,5.5179,5.5179,5.5179,5.5179,5.5179,5.5179,5.5179,5.5179,5.5179,5.5179,5.5179,5.5179,5.5179,5.5179,5.5179,5.5179,5.5179,5.5179,5.5179,5.5179,5.5179,5.5179,5.5029,5.491,5.491,5.4341,5.3892,5.3892,5.3324,5.2725,5.2247,5.1594,5.1206,5.1206,5.1393,5.1503,5.1572,5.1964,5.2238,5.2306,5.2563,5.2676,5.2676,5.2676,5.2676,5.2676,5.2676,5.2676,5.2676,5.2676,5.2676,5.2676,5.2676,5.2676,5.3683,5.54,5.7254,5.8577,6.0578,6.224,6.2394,6.2641,6.2798,6.2798,6.2394,6.1656,6.0424,6.0301,0.0,6.0209,6.047,6.0638,6.0638,6.0276,5.9933,5.9827,5.9476,5.9207,5.9099,5.9099,5.9099,5.9099,5.9099,5.9099,5.9099,5.9099,5.9099,5.9099,5.9099,5.9099,5.9099,5.9099,5.9099,5.9099,5.9099,5.9099,5.9099,5.9099,5.9099,5.9099,5.9099,5.9099,5.9099,5.9099,5.9099,5.9009,5.7932,5.7334,5.6974,5.5983,5.5444,5.5179,5.5179,5.5179,5.5179,5.5179,5.5179,5.5179,5.5179,5.5179,5.5179,5.5179,5.5179,5.5179,5.5179,5.5179,5.5179,5.5179,5.5179,5.5179,5.5179,5.5179,5.5179,5.5179,5.5179,5.5179,5.5179,5.485,5.461,5.461,5.4012,5.3354,5.2665,5.2007,5.1618,5.1618,5.1613,5.1595,5.1595,5.2033,5.2306,5.2306,5.2563,5.2676,5.2676,5.2676,5.2676,5.2676,5.2676,5.2676,5.2676,5.2676,5.2676,5.2676,5.2676,5.2676,5.7408,5.8633,5.9562,6.2737,6.3198,6.3229,6.458,6.3872,6.286,6.2798,6.184,6.0948,6.0824,6.0301,6.0086,6.0675,6.056,6.0377,6.0351,6.0118,5.9827,5.9529,5.9476,5.9369,5.9126,5.9099,5.9099,5.9099,5.9099,5.9099,5.9099,5.9099,5.9099,5.9099,5.9099,5.9099,5.9099,5.9099,5.9099,5.9099,5.9099,5.9099,5.9099,5.9099,5.9099,5.9099,5.9099,5.9099,5.9099,5.9099,5.9099,5.9039,5.8354,5.7752,5.7094,5.6462,5.5803,5.5269,5.5209,5.5179,5.5179,5.5179,5.5179,5.5179,5.5179,5.5179,5.5179,5.5179,5.5179,5.5179,5.5179,5.5179,5.5179,5.5179,5.5179,5.5179,5.5179,5.5179,5.5179,5.5179,5.5179,5.5179,5.5179,5.5179,5.5179,5.5179,5.464,5.3982,5.3378,5.2695,5.2276,5.2217,5.186,5.1663,5.1625,5.201,5.2284,5.2306,5.2563,5.2676,5.2676,5.2676,5.2729,5.2768,5.2768,5.2768,5.2768,5.2768,5.2737,5.2676,5.2676,5.2676,5.5476,5.7161,5.9249,6.1009,6.2522,6.3814,6.4703,6.4241,6.3445,6.2891,6.2552,6.2056,6.1009,6.0671,6.0562,6.0477,6.0429,6.0324,6.0118,5.9827,5.9583,5.9503,5.9315,5.9153,5.9099,5.9099,5.9099,5.9099,5.9099,5.9099,5.9099,5.9099,5.9099,5.9099,5.9099,5.9099,5.9099,5.9099,5.9099,0.0,5.9099,5.9099,5.9099,5.9099,5.9099,5.9099,5.9099,5.9099,5.9099,5.9099,5.9099,5.9039,5.8354,5.7995,5.7752,5.6611,5.6102,5.5923,5.5359,5.5179,5.5179,5.5179,5.5179,5.5179,5.5179,5.5179,5.5179,5.5179,5.5179,5.5179,5.5179,5.5179,5.5179,5.5179,5.5179,5.5179,5.5179,5.5179,5.5179,5.5179,5.5179,5.5179,5.5179,5.5179,5.5179,5.5179,5.464,5.4162,5.4012,5.3384,5.2785,5.2247,5.2115,5.1933,5.1632,5.188,5.2132,5.2284,5.2563,5.2676,5.2676,5.2676,5.2953,5.3476,5.3476,5.3476,5.3476,5.3476,5.3199,5.2676,5.2676,5.2676,5.6238,5.8177,6.024,6.2271,6.3564,6.4426,6.4826,6.4611,6.4149,6.3414,6.2768,6.2025,6.0978,6.069,6.056,6.0429,6.0167,5.9929,5.98,5.9476,5.9315,5.9315,5.918,5.9099,5.9099,5.9099,5.9099,5.9099,5.9099,5.9099,5.9099,5.9099,5.9099,5.9099,5.9099,5.9099,5.9099,5.9099,5.9099,5.9099,5.9099,5.9099,5.9099,5.9099,5.9099,5.9099,5.9099,5.9099,5.9099,5.9099,5.9099,5.9069,5.874,5.8384,5.7965,5.6974,5.6462,5.6102,5.5418,5.5179,5.5179,5.5179,5.5179,5.5179,5.5179,5.5179,5.5179,5.5179,5.5179,5.5179,5.5179,5.5179,5.5179,5.5179,5.5179,5.5179,5.5179,5.5179,5.5179,5.5179,5.5179,5.5179,5.5179,5.5179,5.5179,5.5179,5.491,5.467,5.467,5.4072,5.3582,5.3374,5.2893,5.254,5.2434,5.236,5.2382,5.2495,5.2608,5.2829,5.3168,5.286,5.286,5.3199,5.3229,5.3229,5.3229,5.3229,5.3045,5.2676,5.2676,5.2676,5.6946,5.9316,6.144,6.4057,6.4795,6.4888,6.4888,6.4888,6.4703,6.3937,6.2829,6.1779,6.1101,6.0704,6.0429,6.0351,5.9902,5.9556,5.9449,5.9234,5.9099,5.9099,5.9099,5.9099,5.9099,5.9099,5.9099,5.9099,5.9099,5.9099,5.9099,5.9099,5.9099,5.9099,5.9099,5.9099,5.9099,5.9099,5.9099,5.9099,5.9099,5.9099,5.9099,5.9099,5.9099,5.9099,5.9099,5.9099,5.9099,5.9099,5.9099,5.9099,5.9099,5.871,5.8025,5.7363,5.6731,5.6102,5.5418,5.5179,5.5179,5.5179,5.5179,5.5179,5.5179,5.5179,5.5179,5.5179,5.5179,5.5179,5.5179,5.5179,5.5179,5.5179,5.5179,5.5179,5.5179,5.5179,5.5179,5.5179,5.5179,5.5179,5.5179,5.5179,5.5179,5.5179,5.5179,5.5179,5.5179,5.473,5.4441,5.4592,5.3814,5.3263,5.3292,5.3101,5.2961,5.286,5.286,5.3106,5.3691,5.3045,5.2676,5.2676,5.2799,5.286,5.286,5.286,5.2799,5.2676,5.2676,5.2676,5.406,5.7531,6.1317,6.3414,6.4426,6.4888,6.4888,6.4888,6.4703,6.3937,6.3198,6.246,6.1809,6.1168,6.0586,6.0118,5.9986,5.9747,5.9234,5.9126,5.9099,5.9099,5.9099,5.9099,5.9099,5.9099,5.9099,5.9099,5.9099,5.9099,5.9099,5.9099,5.9099,5.9099,5.9099,5.9099,5.9099,5.9099,5.9099,5.9099,5.9099,5.9099,5.9099,5.9099,5.9099,5.9099,5.9099,5.9099,5.9099,5.9099,5.9099,5.9099,5.9099,5.871,5.8025,5.7363,5.6731,5.6102,5.5418,5.5179,5.5179,5.5179,5.5179,5.5179,5.5179,5.5179,5.5179,5.5179,5.5179,5.5179,5.5179,5.5179,5.5179,5.5179,5.5179,5.5179,5.5179,5.5179,5.5179,5.5179,5.5179,5.5179,5.5179,5.5179,5.5179,5.5179,5.5179,5.5179,5.5179,5.5119,5.495,5.4622,5.446,5.4074,5.336,5.3851,5.3998,5.3576,5.3568,5.3599,5.3691,5.3045,5.2676,5.2676,5.326,5.3568,5.3568,5.3568,5.326,5.2676,5.2676,5.2676,5.473,5.75,6.024,6.2614,6.3752,6.4275,6.4275,6.4275,6.4118,6.3383,6.2879,6.2373,6.1694,6.1221,6.0646,5.986,5.9613,5.9426,5.9126,5.9099,5.9099,5.9099,5.9099,5.9099,5.9099,5.9099,5.9099,5.9099,5.9099,5.9099,5.9099,5.9099,5.9099,5.9099,5.9099,5.9099,5.9099,5.9099,5.9099,5.9099,5.9099,5.9099,5.9099,5.9099,5.9099,5.9099,5.9099,5.9099,5.9099,5.9099,5.9099,5.9069,5.871,5.8354,5.7965,5.6974,5.6432,5.6102,5.5418,5.5179,5.5179,5.5179,5.5179,5.5179,5.5179,5.5179,5.5179,5.5179,5.5179,5.5179,5.5179,5.5179,5.5179,5.5179,5.5179,5.5179,5.5179,5.5179,5.5179,5.5179,5.5179,5.5059,5.47,5.494,5.5059,5.47,5.497,5.5179,5.5179,5.5179,5.5265,5.5387,5.5018,5.4728,5.4642,5.4597,5.449,5.4276,5.3906,5.3876,5.4245,5.326,5.286,5.326,5.3168,5.3137,5.3137,5.3137,5.2983,5.2676,5.2676,5.2676,5.4938,5.6878,5.8454,6.1317,6.2675,6.3322,6.3506,6.3537,6.3356,6.281,6.253,6.2157,6.1348,6.1065,6.0664,5.9647,5.9342,5.918,5.9099,5.9099,5.9099,5.9099,5.9099,5.9099,5.9099,5.9099,5.9099,5.9099,5.9099,5.9099,5.9099,5.9099,5.9099,5.9099,5.9099,5.9099,5.9099,5.9099,5.9099,5.9099,5.9099,5.9099,5.9099,5.9099,5.9099,5.9099,5.9099,5.9099,5.9099,5.9099,5.9099,5.9039,5.8354,5.7995,5.7723,5.6611,5.6102,5.5863,5.5359,5.5179,5.5179,5.5179,5.5179,5.5179,5.5179,5.5179,5.5179,5.5179,5.5179,5.5179,5.5179,5.5179,5.5179,5.5179,5.5179,5.5179,5.5179,5.5179,5.5149,5.497,5.494,5.479,5.4311,5.461,5.479,5.4281,5.476,5.5119,5.497,5.5089,5.5406,5.5954,5.5493,5.5323,5.5667,5.5407,5.5076,5.4737,5.4245,5.4091,5.4429,5.3322,5.2922,5.3445,5.2953,5.2676,5.2676,5.2676,5.2676,5.2676,5.2676,5.2676,5.2922,5.4368,5.5722,5.9101,6.0948,6.2086,6.2706,6.2829,6.2776,6.2476,6.2422,6.2045,6.0838,6.0799,6.058,5.9647,5.9503,5.9395,5.9126,5.9099,5.9099,5.9099,5.9099,5.9099,5.9099,5.9099,5.9099,5.9099,5.9099,5.9099,5.9099,5.9099,5.9099,5.9099,5.9099,5.9099,5.9099,5.9099,5.9099,5.9099,5.9099,5.9099,5.9099,5.9099,5.9099,5.9099,5.9099,5.9099,5.9099,5.9099,5.9099,5.9039,5.8354,5.7723,5.7064,5.6432,5.5803,5.5239,5.5209,5.5179,5.5179,5.5179,5.5179,5.5179,5.5179,5.5179,5.5179,5.5179,5.5179,5.5179,5.5179,5.5179,5.5179,5.5179,5.5179,5.5179,5.5179,5.5179,5.4999,5.4371,5.4251,5.4251,5.4221,5.4251,5.4251,5.4221,5.476,5.497,5.4341,5.482,5.5406,5.5954,5.5973,5.5865,5.5698,5.6293,5.6139,5.4799,5.4676,5.4368,5.3783,5.3076,5.2729,5.2737,5.2729,5.2676,5.2676,5.2676,5.2676,5.2676,5.2676,5.2676,5.1313,5.2891,5.4553,5.6645,5.8547,6.0055,6.0732,6.1225,6.1506,6.1401,6.142,6.119,6.0365,6.0469,6.0398,5.9408,5.9234,5.9207,5.9099,5.9099,5.9099,5.9099,5.9099,5.9099,5.9099,5.9099,5.9099,5.9099,5.9099,5.9099,5.9099,5.9099,5.9099,5.9099,5.9099,5.9099,5.9099,5.9099,5.9099,5.9099,5.9099,5.9099,5.9099,5.9099,5.9099,5.9099,5.9099,5.9099,5.9099,5.9099,5.886,5.8384,5.7723,5.7064,5.6432,5.5803,5.5414,5.5179,5.5179,5.5179,5.5179,5.5179,5.5179,5.5179,5.5179,5.5179,5.5179,5.5179,5.5179,5.5179,5.5179,5.5179,5.5179,5.5179,5.5179,5.5089,5.464,5.491,5.5119,5.488,5.4491,5.4221,5.4221,5.3832,5.3563,5.3563,5.3743,5.4056,5.4384,5.4649,5.5203,5.614,5.625,5.6305,5.6392,5.6631,5.6385,5.5407,5.4952,5.4399,5.3722,5.3045,5.2676,5.2676,5.2676,5.2676,5.2676,5.2676,5.2676,5.2676,5.2676,5.2676,5.0451,5.1836,5.3445,5.526,5.673,5.8079,5.9193,5.9758,6.0024,6.0166,6.0479,6.0556,5.9841,6.0102,6.0153,5.9246,5.9099,5.9099,5.9099,5.9099,5.9099,5.9099,5.9099,5.9099,5.9099,5.9099,5.9099,5.9099,5.9099,0.0,5.9099,5.9099,5.9099,5.9099,5.9099,5.9099,5.9099,5.9099,5.9099,5.9099,5.9099,5.9099,5.9099,5.9099,5.9099,5.9099,5.9099,5.9099,5.9099,5.886,5.8504,5.7995,5.7124,5.6551,5.6132,5.5474,5.5179,5.5179,5.5179,5.5179,5.5179,5.5179,5.5179,5.5179,5.5179,5.5179,5.5179,5.5179,5.5179,5.5179,5.5179,5.5179,5.5179,5.5179,5.5029,5.473,5.4311,5.4551,5.473,5.4281,5.3832,5.3533,5.3533,5.3144,5.2869,5.2869,5.3049,5.3361,5.3869,5.4134,5.4631,5.559,5.5907,5.6035,5.6084,5.6539,5.6293,5.5099,5.4829,5.4306,5.3383,5.2922,5.2676,5.2676,5.2676,5.2676,5.2676,5.2676,5.2676,5.2676,5.2676,5.2575,0.0,0.0,0.0,5.4914,5.5592,5.6176,5.8239,5.85,5.8405,5.8828,5.969,6.0144,5.9273,5.9638,5.9847,5.9219,5.9099,5.9099,5.9099,5.9099,5.9099,5.9099,5.9099,5.9099,5.9099,5.9099,5.9099,5.9099,5.9099,5.9099,5.9099,5.9099,5.9099,5.9099,5.9099,5.9099,5.9099,5.9099,5.9099,5.9099,5.9099,5.9099,5.9099,5.9099,5.9099,5.9099,5.9099,5.9099,5.9069,5.8384,5.8085,5.7935,5.6701,5.6192,5.6102,5.5444,5.5179,5.5179,5.5179,5.5179,5.5179,5.5179,5.5179,5.5179,5.5179,5.5179,5.5179,5.5179,5.5179,5.5179,5.5179,5.5179,5.5179,5.5179,5.47,5.4221,5.4192,5.4192,5.3803,5.2486,5.2217,5.2217,5.2217,5.2187,5.2187,5.2187,5.2725,5.3002,5.264,5.32,5.3784,5.4246,5.4905,5.5153,5.4745,5.593,5.5862,5.3814,5.4306,5.4091,5.2737,5.2676,5.2676,5.2676,5.2676,5.2676,5.2676,5.2676,5.2676,5.2676,5.2676,5.2359,4.9097,0.0,0.0,0.0,0.0,0.0,5.6586,5.6482,5.6503,5.8555,5.8654,5.8625,5.9272,5.9384,5.9308,5.9129,5.9099,5.9099,5.9099,5.9099,5.9099,5.9099,5.9099,5.9099,5.9099,5.9099,5.9099,0.0,5.9099,5.9099,5.9099,5.9099,5.9099,5.9099,5.9099,5.9099,5.9099,5.9099,5.9099,5.9099,5.9099,5.9099,5.9099,5.9099,5.9099,5.9099,5.9099,5.9099,5.9069,5.8384,5.7786,5.7304,5.6521,5.5893,5.5474,5.5294,5.5179,5.5179,5.5179,5.5179,5.5179,5.5179,5.5179,5.5179,5.5179,5.5179,5.5179,5.5179,5.5179,5.5179,5.5179,5.5179,5.5179,5.5179,5.5059,5.464,5.3683,5.3498,5.3354,5.3019,5.2516,5.2336,5.2839,5.2127,5.1648,5.2127,5.1947,5.2053,5.2779,5.3486,5.407,5.4543,5.5196,5.5367,5.4745,5.5045,5.4829,5.3753,5.3876,5.3599,5.2737,5.2676,5.2676,5.2676,5.2676,5.2676,5.2676,5.2676,5.2676,5.2676,5.2676,5.2359,0.0,0.0,0.0,0.0,0.0,0.0,5.5792,5.5912,5.6168,5.7984,5.829,5.8286,5.847,5.9057,5.9428,5.9159,5.9578,5.9847,5.9548,5.9757,5.9937,5.9937,5.9937,5.9817,5.9548,5.9518,5.9398,5.9129,5.9099,5.9099,5.9099,5.9099,5.9099,5.9099,5.9099,5.9099,5.9099,5.9099,5.9099,5.9099,5.9099,5.9099,5.9099,5.9099,5.9099,5.9099,5.9099,5.9099,5.9069,5.8384,5.7723,5.7004,5.6132,5.5538,5.5179,5.5179,5.5179,5.5179,5.5179,5.5179,5.5179,5.5179,5.5179,5.5179,5.5179,5.5179,5.5179,5.5179,5.5179,5.5179,5.5179,5.5179,5.5119,5.485,5.4551,5.4072,5.2995,5.2546,5.2366,5.2366,5.2067,5.1917,5.2306,5.1832,5.1466,5.1738,5.1633,5.1799,5.2495,5.3006,5.3429,5.383,5.4483,5.4607,5.3906,5.4368,5.4306,5.3322,5.3537,5.3383,5.2729,5.2676,5.2676,5.2676,5.2676,5.2676,5.2676,5.2676,5.2575,5.2276,5.2276,5.1775,5.0543,5.0768,0.0,0.0,5.3246,0.0,5.5457,5.5978,5.6353,5.7192,5.8061,5.8321,5.7214,5.8501,5.9548,5.8979,6.0086,6.0805,6.0266,6.0715,6.1076,6.1076,6.1076,6.0864,6.0266,6.0116,5.9847,5.9249,5.9129,5.9099,5.9099,5.9099,5.9099,5.9099,5.9099,5.9099,5.9099,5.9099,5.9099,5.9099,5.9039,5.9039,5.9099,5.9039,5.9039,5.9099,5.9099,5.9099,5.9069,5.8384,5.7723,5.6974,5.5777,5.5294,5.5179,5.5179,5.5179,5.5179,5.5179,5.5179,5.5179,5.5179,5.5179,5.5179,5.5179,5.5179,5.5179,5.5179,5.5179,5.5179,5.5179,5.5149,5.494,5.4341,5.3683,5.3019,5.2336,5.1738,5.1295,5.1206,5.1206,5.1206,5.1206,5.1409,5.1503,5.1299,5.1672,5.2025,5.2048,5.2261,5.2489,5.2684,5.3291,5.3414,5.2737,5.3783,5.3968,5.2768,5.326,5.3322,5.2706,5.2676,5.2676,5.2676,5.2676,5.2676,5.2676,5.2676,5.2359,5.1713,5.1713,5.0974,5.082,5.1344,5.2054,5.2398,0.0,0.0,5.4684,5.4343,5.4351,5.6089,5.6188,5.6047,5.6312,5.7064,5.7633,5.7513,5.9069,6.0446,6.0864,6.1044,6.1076,6.1076,6.1076,6.1074,6.0924,6.0416,6.0054,5.9907,5.9398,5.9099,5.9099,5.9099,5.9099,5.9099,5.9099,5.9099,5.9099,5.9099,5.9099,5.9099,5.8534,5.859,5.9099,5.8534,5.859,5.9099,5.9099,5.9099,5.9069,5.8384,5.7723,5.7034,5.6282,5.5683,5.5179,5.5179,5.5179,5.5179,5.5179,5.5179,5.5179,5.5179,5.5179,5.5179,5.5179,5.5179,5.5179,5.5179,5.5179,5.5179,5.5179,5.479,5.4371,5.4251,5.3683,5.3019,5.2336,5.2097,5.1858,5.1295,5.1206,5.1206,5.1206,5.1409,5.1572,5.1526,5.1787,5.204,5.2215,5.2742,5.3009,5.2715,5.3291,5.3414,5.2737,5.2922,5.2983,5.2729,5.2799,5.2829,5.2729,5.2676,5.2676,5.2676,5.2676,5.2676,5.2676,5.2676,5.2359,5.1713,5.1713,5.0974,0.0,0.0,5.1774,5.2329,0.0,0.0,0.0,5.4051,5.4072,5.5444,5.5149,5.491,5.5593,5.6222,5.6855,5.7513,5.9308,6.0715,6.1046,6.1672,6.1972,6.1642,6.1882,6.1822,6.1136,6.0805,6.0326,5.9638,5.9279,5.9099,5.9099,5.9099,5.9099,5.9099,5.9099,5.9099,5.9099,5.9099,5.9099,5.9099,5.877,5.877,5.9099,5.877,5.8773,5.9099,5.9099,5.9099,5.9069,5.874,5.8201,5.7543,5.6885,5.6252,5.5713,5.5713,5.5504,5.5179,5.5179,5.5179,5.5179,5.5179,5.5179,5.5179,5.5179,5.5179,5.5179,5.5179,5.5179,5.5179,5.5179,5.47,5.4132,5.3773,5.3174,5.2516,5.1858,5.1708,5.1618,5.1265,5.1206,5.1206,5.1206,5.1618,5.1872,5.1642,5.2017,5.2337,5.2306,5.2703,5.2909,5.2737,5.2983,5.3076,5.2729,5.2676,5.2676,5.2676,5.2676,5.2676,5.2676,5.2676,5.2676,5.2676,5.2676,5.2676,5.2676,5.2359,5.1867,5.119,5.119,5.0451,0.0,0.0,0.0,0.0,0.0,5.3056,0.0,0.0,0.0,5.47,5.4491,5.4341,5.473,5.5474,5.6316,5.7367,0.0,0.0,0.0,6.1762,0.0,6.1942,6.248,6.2421,6.1224,6.0747,6.0146,5.9189,5.886,5.883,5.9099,5.9099,5.9099,5.9099,5.9099,5.9099,5.9099,5.8979,5.8979,5.9099,5.883,5.877,5.8919,5.8919,5.8919,5.8919,5.9039,5.9099,5.9099,5.9099,5.871,5.8055,5.7513,5.6825,5.6192,5.6192,5.5773,5.5179,5.5179,5.5179,5.5179,5.5179,5.5179,5.5179,5.5179,5.5179,5.5179,5.5179,5.5179,5.5179,5.5179,5.47,5.4042,5.3378,5.2665,5.2007,5.1325,5.1206,5.1229,5.1276,5.1323,5.1346,5.1299,5.1803,5.2124,5.178,5.2291,5.2608,5.2397,5.2563,5.2676,5.2676,5.2676,5.2676,5.2676,5.2676,5.2676,5.2676,5.2676,5.2676,5.2676,5.2676,5.2676,5.2676,5.2676,5.2676,5.2676,5.2021,5.1344,5.0697,5.0574,4.9835,0.0,0.0,0.0,0.0,5.2882,0.0,0.0,0.0,5.3348,5.3408,0.0,0.0,0.0,0.0,0.0,0.0,0.0,0.0,5.9159,5.9967,6.0625,6.1164,6.1822,6.1912,6.1166,5.9491,5.8623,5.9069,5.7992,5.7842,5.9039,5.9099,5.9099,5.9099,5.9099,5.9099,5.9099,5.8504,5.8504,5.9099,5.7902,5.7633,5.8205,5.8205,5.8205,5.8234,5.886,5.9099,5.9099,5.9099,5.871,5.8085,5.8025,5.7244,5.6192,5.6192,5.5773,5.5179,5.5179,5.5179,5.5179,5.5179,5.5179,5.5179,5.5179,5.5179,5.5179,5.5179,5.5179,5.5179,5.5179,5.47,5.4042,5.3378,5.2665,5.2007,5.1325,5.1206,5.1276,5.1503,5.1741,5.181,5.1602,5.181,5.2063,5.2193,5.2495,5.2676,5.2653,5.2676,5.2676,5.2676,5.2676,5.2676,5.2676,5.2676,5.2676,5.2676,5.2676,5.2676,5.2676,5.2676,5.2676,5.2676,5.2676,5.2676,5.2676,5.2021,5.1344,5.0697,5.0103,4.9374,0.0,0.0,0.0,0.0,0.0,0.0,0.0,0.0,5.2157,0.0,0.0,0.0,0.0,0.0,0.0,0.0,5.5628,0.0,0.0,0.0,5.9338,6.0386,0.0,0.0,6.0565,5.9042,5.8205,5.8504,5.7633,5.7513,5.8444,5.889,5.9099,5.9099,5.9099,5.9099,5.9099,5.883,5.865,5.8504,5.7962,5.7633,5.7543,5.7905,5.8085,5.8145,5.883,5.9099,5.9099,5.9099,5.871,5.8085,5.8085,5.7334,5.6252,5.6611,5.6102,5.5179,5.5179,5.5179,5.5179,5.5179,5.5179,5.5179,5.5179,5.5179,5.5179,5.5179,5.5179,5.5179,5.5179,5.4401,5.3533,5.3288,5.2396,5.1558,5.1265,5.1323,5.1486,5.1572,5.181,5.1994,5.201,5.2223,5.2382,5.2306,5.2541,5.2676,5.2676,5.2676,5.2676,5.2676,5.2676,5.2676,5.2676,5.2676,5.2676,5.2676,5.2676,5.2676,5.2676,5.2676,5.2676,5.2676,5.2329,5.2144,5.2113,5.1067,5.0389,5.0112,4.9826,4.9281,5.2302,0.0,0.0,0.0,0.0,0.0,0.0,0.0,0.0,0.0,0.0,0.0,0.0,0.0,0.0,0.0,0.0,5.491,0.0,5.6316,0.0,0.0,0.0,0.0,0.0,5.7932,5.7247,5.7786,5.6885,5.6825,5.8025,5.8563,5.8919,5.9099,5.9099,5.9099,5.9099,5.8919,5.8653,5.8354,5.8175,5.7846,5.7393,5.8082,5.8264,5.8145,5.883,5.9009,5.886,5.9039,5.8501,5.7606,5.7965,5.7214,5.6013,5.6641,5.6137,5.5179,5.5179,5.5179,5.5179,5.5179,5.5179,5.5179,5.5179,5.5059,5.491,5.491,5.479,5.4665,5.4665,5.3947,5.3169,5.2989,5.2187,5.1439,5.1329,5.1456,5.1642,5.1757,5.1949,5.2155,5.2374,5.2518,5.2563,5.2419,5.2586,5.2676,5.2676,5.2676,5.2676,5.2676,5.2544,5.2452,5.2452,5.2267,5.2144,5.2144,5.2144,5.2144,5.2144,5.2144,5.2144,5.2144,5.1682,5.1436,5.1436,5.0266,4.9703,4.9703,4.9497,4.9097,0.0,0.0,0.0,5.2438,0.0,0.0,0.0,0.0,5.2007,0.0,0.0,0.0,0.0,0.0,0.0,0.0,0.0,0.0,0.0,0.0,0.0,0.0,0.0,0.0,0.0,5.5448,5.5119,0.0,5.5388,5.5418,5.7965,5.8115,5.8414,5.9069,5.9099,5.9099,5.9099,5.8444,5.8444,5.9069,5.8414,5.8085,5.8085,5.877,5.871,5.8145,5.883,5.8713,5.8175,5.883,5.7962,5.6372,5.7633,5.6944,5.5299,5.5983,5.5803,5.5179,5.5179,5.5179,5.5179,5.5179,5.5179,5.5179,5.5179,5.476,5.4227,5.4227,5.3773,5.3258,5.3258,5.3228,5.3049,5.2396,5.2187,5.2048,5.1676,5.1572,5.1734,5.2193,5.2284,5.2374,5.2631,5.2495,5.2397,5.2653,5.2676,5.2676,5.2676,5.2676,5.2676,5.2676,5.2144,5.1744,5.1744,5.1128,5.0759,5.0759,5.0759,5.0759,5.0759,5.0759,5.0759,5.0759,5.0728,5.0728,5.0728,5.0041,4.9703,4.9703,4.8974,4.8614,0.0,0.0,5.4153,5.2606,0.0,0.0,0.0,0.0,0.0,0.0,0.0,0.0,0.0,0.0,0.0,0.0,0.0,0.0,0.0,0.0,0.0,0.0,0.0,0.0,0.0,0.0,0.0,5.6462,5.5923,0.0,5.6795,5.7663,5.8205,5.8414,5.889,5.9099,5.9099,5.889,5.865,5.8444,5.8205,5.7846,5.7453,5.7663,5.7663,5.7483,5.8171,5.8082,5.7483,5.8145,5.7543,5.6252,5.6671,5.6166,5.5269,5.5953,5.5773,5.5179,5.5179,5.5179,5.5179,5.5179,5.5179,5.5179,5.5179,5.5029,5.476,5.4341,5.4042,5.3743,5.3318,5.2845,5.2486,5.2247,5.2,5.178,5.1632,5.1849,5.2124,5.2284,5.2419,5.2432,5.2091,5.1954,5.2063,5.2614,5.2676,5.2676,5.2676,5.2676,5.2544,5.2082,5.1836,5.1528,5.1067,5.082,5.0697,5.0697,5.0697,5.0697,5.0697,5.0697,5.0697,5.0697,5.0266,5.0041,5.0041,4.9312,4.8974,4.8974,4.8727,4.8583,5.4135,5.4407,0.0,5.3266,5.3176,0.0,5.2151,0.0,0.0,0.0,0.0,0.0,0.0,0.0,0.0,0.0,0.0,0.0,0.0,5.3054,0.0,0.0,0.0,0.0,0.0,5.6013,5.5593,5.5833,5.5623,5.5713,0.0,5.7184,5.7846,5.8085,5.877,5.9099,5.9099,5.9099,5.889,5.8471,5.8471,5.8085,5.7453,5.7453,5.7334,5.7124,5.7786,5.7603,5.6825,5.7752,5.7214,5.5863,5.6102,5.5803,5.5239,5.5683,5.5593,5.5179,5.5179,5.5179,5.5179,5.5179,5.5179,5.5179,5.5179,5.485,5.4426,5.3952,5.3503,5.3054,5.2606,5.2157,5.1881,5.1976,5.1787,5.1642,5.1803,5.2101,5.2268,5.2113,5.2217,5.2144,5.1467,5.1344,5.1498,5.1929,5.2206,5.2337,5.2337,5.2337,5.2175,5.1744,5.1282,5.0697,5.002,4.9959,4.9959,4.9959,4.9959,4.9959,4.9959,4.9959,4.9959,4.9959,4.9528,4.9312,4.9312,4.913,4.8913,4.8604,4.8913,4.9077]}]]